Darstellungsparameter: Aktuell verwendete Einstellungen:
Skalierung der Graphiken ... ?
xyx+y,   Skalierungsfaktor:      Skalierung: Modus: x, Faktor: 1
Darstellungszeitraum ... ?
Vom - - bis: - -   Zeitraum: 30.08.2020 - 29.09.2020
Min/Max/Avg-Anzeige ... ?
Zeige MMA aktuell
Zeige MMA Monat
Zeige MMA alles
Zeige --A aktuell
Zeige --A Monat
Zeige --A alles
Keine MMA-Anzeige
MMA:
Average (ber die Originaldaten)
MMA-Basis: 30.08.2020 - 29.09.2020
Quicknavigation für Darstellung... ?
Tage:      1T, 2T, 3T, 5T -1T -2T -3T -5T +1T +2T +3T +5T
Wochen: 1W, 2W, 3W -1W -2W -3W +1W +2W +3W
Monate: 1M, 3M, 6M -1M -3M -6M +1M +3M +6M
Jahre:    1J, 3J, 5J, 10J -1J -3J -5J -10J +1J +3J +5J +10J
Nutze für die Darstellung ... ?
Originaldaten oder Mittelwerte auf ...
Stundenbasis Tagesbasis Wochenbasis
Monatsbasis Jahresbasis      Datenbasis: Original-Daten
Darstellen als:
Statistik (Auto) Statistik J:M      Darstellung:
Zur Graphik,    zurück zur Übersicht aller Sensoren.
 
Tabellarische Datenbersicht: ?
 
Sensor: Nr:Datum:Temp:Abs-Feuchte:Windchill:Wind:
Aussen-T/F 1 30-08-2020 00:00:00 13.3 C 10.63 g/m*3 13.3 C 6.4 km/h
2 30-08-2020 00:05:00 13.3 C 10.63 g/m*3 13.3 C 1.6 km/h
3 30-08-2020 00:10:00 13.2 C 10.56 g/m*3 13.2 C 0 km/h
4 30-08-2020 00:15:00 13.2 C 10.56 g/m*3 13.2 C 0 km/h
5 30-08-2020 00:20:00 13.1 C 10.5 g/m*3 13.1 C 0 km/h
6 30-08-2020 00:25:00 13.1 C 10.5 g/m*3 13.1 C 0 km/h
7 30-08-2020 00:30:00 13 C 10.43 g/m*3 13 C 0 km/h
8 30-08-2020 00:35:00 12.9 C 10.48 g/m*3 12.9 C 0 km/h
9 30-08-2020 00:40:00 12.8 C 10.42 g/m*3 12.8 C 0 km/h
10 30-08-2020 00:45:00 12.8 C 10.42 g/m*3 12.8 C 0 km/h
11 30-08-2020 00:50:00 12.8 C 10.42 g/m*3 12.8 C 0 km/h
12 30-08-2020 00:55:00 12.8 C 10.42 g/m*3 12.8 C 0 km/h
13 30-08-2020 01:00:00 12.8 C 10.42 g/m*3 12.8 C 0 km/h
14 30-08-2020 01:05:00 12.7 C 10.35 g/m*3 12.7 C 0 km/h
15 30-08-2020 01:10:00 12.6 C 10.29 g/m*3 12.6 C 0 km/h
16 30-08-2020 01:15:00 12.6 C 10.29 g/m*3 12.6 C 0 km/h
17 30-08-2020 01:20:00 12.4 C 10.16 g/m*3 12.4 C 0 km/h
18 30-08-2020 01:25:00 12.4 C 10.16 g/m*3 12.4 C 0 km/h
19 30-08-2020 01:30:00 12.3 C 10.1 g/m*3 12.3 C 0 km/h
20 30-08-2020 01:35:00 12.2 C 10.04 g/m*3 12.2 C 1.6 km/h
21 30-08-2020 01:40:00 12.1 C 9.97 g/m*3 12.1 C 1.6 km/h
22 30-08-2020 01:45:00 12 C 9.91 g/m*3 12 C 0 km/h
23 30-08-2020 01:50:00 11.9 C 9.96 g/m*3 11.9 C 0 km/h
24 30-08-2020 01:55:00 11.9 C 9.96 g/m*3 11.9 C 3.2 km/h
25 30-08-2020 02:00:00 11.8 C 9.89 g/m*3 11.8 C 0 km/h
Sensor: Nr:Datum:Temp:Abs-Feuchte:Windchill:Wind:
Aussen-T/F 26 30-08-2020 02:05:00 11.8 C 9.89 g/m*3 11.8 C 0 km/h
27 30-08-2020 02:10:00 11.7 C 9.83 g/m*3 11.7 C 0 km/h
28 30-08-2020 02:15:00 11.7 C 9.83 g/m*3 11.7 C 0 km/h
29 30-08-2020 02:20:00 11.7 C 9.83 g/m*3 11.7 C 0 km/h
30 30-08-2020 02:25:00 11.6 C 9.77 g/m*3 11.6 C 0 km/h
31 30-08-2020 02:30:00 11.6 C 9.77 g/m*3 11.6 C 0 km/h
32 30-08-2020 02:35:00 11.6 C 9.77 g/m*3 11.6 C 0 km/h
33 30-08-2020 02:40:00 11.5 C 9.71 g/m*3 11.5 C 0 km/h
34 30-08-2020 02:45:00 11.4 C 9.65 g/m*3 11.4 C 0 km/h
35 30-08-2020 02:50:00 11.3 C 9.59 g/m*3 11.3 C 0 km/h
36 30-08-2020 02:55:00 11.3 C 9.59 g/m*3 11.3 C 0 km/h
37 30-08-2020 03:00:00 11.2 C 9.53 g/m*3 11.2 C 0 km/h
38 30-08-2020 03:05:00 11.2 C 9.53 g/m*3 11.2 C 0 km/h
39 30-08-2020 03:10:00 11.2 C 9.53 g/m*3 11.2 C 0 km/h
40 30-08-2020 03:15:00 11.2 C 9.53 g/m*3 11.2 C 0 km/h
41 30-08-2020 03:20:00 11.1 C 9.47 g/m*3 11.1 C 0 km/h
42 30-08-2020 03:25:00 11.1 C 9.57 g/m*3 11.1 C 0 km/h
43 30-08-2020 03:30:00 11.1 C 9.57 g/m*3 11.1 C 0 km/h
44 30-08-2020 03:35:00 11.1 C 9.57 g/m*3 11.1 C 0 km/h
45 30-08-2020 03:40:00 11 C 9.51 g/m*3 11 C 0 km/h
46 30-08-2020 03:45:00 10.9 C 9.35 g/m*3 10.9 C 0 km/h
47 30-08-2020 03:50:00 10.9 C 9.35 g/m*3 10.9 C 0 km/h
48 30-08-2020 03:55:00 10.8 C 9.29 g/m*3 10.8 C 0 km/h
49 30-08-2020 04:00:00 10.8 C 9.39 g/m*3 10.8 C 0 km/h
50 30-08-2020 04:05:00 10.7 C 9.33 g/m*3 10.7 C 0 km/h
Sensor: Nr:Datum:Temp:Abs-Feuchte:Windchill:Wind:
Aussen-T/F 51 30-08-2020 04:10:00 10.7 C 9.33 g/m*3 10.7 C 0 km/h
52 30-08-2020 04:15:00 10.7 C 9.33 g/m*3 10.7 C 0 km/h
53 30-08-2020 04:20:00 10.6 C 9.27 g/m*3 10.6 C 0 km/h
54 30-08-2020 04:25:00 10.6 C 9.27 g/m*3 10.6 C 0 km/h
55 30-08-2020 04:30:00 10.6 C 9.27 g/m*3 10.6 C 0 km/h
56 30-08-2020 04:35:00 10.6 C 9.27 g/m*3 10.6 C 0 km/h
57 30-08-2020 04:40:00 10.7 C 9.33 g/m*3 10.7 C 0 km/h
58 30-08-2020 04:45:00 10.7 C 9.33 g/m*3 10.7 C 0 km/h
59 30-08-2020 04:50:00 10.7 C 9.33 g/m*3 10.7 C 0 km/h
60 30-08-2020 04:55:00 10.7 C 9.33 g/m*3 10.7 C 0 km/h
61 30-08-2020 05:00:00 10.8 C 9.49 g/m*3 10.8 C 0 km/h
62 30-08-2020 05:05:00 10.8 C 9.49 g/m*3 10.8 C 0 km/h
63 30-08-2020 05:10:00 10.9 C 9.55 g/m*3 10.9 C 0 km/h
64 30-08-2020 05:15:00 10.9 C 9.55 g/m*3 10.9 C 0 km/h
65 30-08-2020 05:20:00 11 C 9.61 g/m*3 11 C 0 km/h
66 30-08-2020 05:25:00 11 C 9.61 g/m*3 11 C 0 km/h
67 30-08-2020 05:30:00 11 C 9.61 g/m*3 11 C 0 km/h
68 30-08-2020 05:35:00 11 C 9.51 g/m*3 11 C 0 km/h
69 30-08-2020 05:40:00 10.9 C 9.55 g/m*3 10.9 C 0 km/h
70 30-08-2020 05:45:00 10.8 C 9.39 g/m*3 10.8 C 0 km/h
71 30-08-2020 05:50:00 10.7 C 9.33 g/m*3 10.7 C 0 km/h
72 30-08-2020 05:55:00 10.6 C 9.27 g/m*3 10.6 C 0 km/h
73 30-08-2020 06:00:00 10.6 C 9.27 g/m*3 10.6 C 0 km/h
74 30-08-2020 06:05:00 10.6 C 9.27 g/m*3 10.6 C 0 km/h
75 30-08-2020 06:10:00 10.6 C 9.37 g/m*3 10.6 C 0 km/h
Sensor: Nr:Datum:Temp:Abs-Feuchte:Windchill:Wind:
Aussen-T/F 76 30-08-2020 06:15:00 10.6 C 9.37 g/m*3 10.6 C 0 km/h
77 30-08-2020 06:20:00 10.6 C 9.37 g/m*3 10.6 C 0 km/h
78 30-08-2020 06:25:00 10.7 C 9.43 g/m*3 10.7 C 0 km/h
79 30-08-2020 06:30:00 10.7 C 9.43 g/m*3 10.7 C 0 km/h
80 30-08-2020 06:35:00 10.7 C 9.43 g/m*3 10.7 C 0 km/h
81 30-08-2020 06:40:00 10.7 C 9.43 g/m*3 10.7 C 0 km/h
82 30-08-2020 06:45:00 10.7 C 9.43 g/m*3 10.7 C 0 km/h
83 30-08-2020 06:50:00 10.7 C 9.43 g/m*3 10.7 C 0 km/h
84 30-08-2020 06:55:00 10.8 C 9.49 g/m*3 10.8 C 0 km/h
85 30-08-2020 07:00:00 10.8 C 9.49 g/m*3 10.29 C 6.4 km/h
86 30-08-2020 07:05:00 10.8 C 9.49 g/m*3 10.29 C 6.4 km/h
87 30-08-2020 07:10:00 10.9 C 9.55 g/m*3 10.9 C 0 km/h
88 30-08-2020 07:15:00 10.9 C 9.55 g/m*3 10.9 C 1.6 km/h
89 30-08-2020 07:20:00 11 C 9.61 g/m*3 11 C 0 km/h
90 30-08-2020 07:25:00 11.1 C 9.67 g/m*3 11.1 C 0 km/h
91 30-08-2020 07:30:00 11.1 C 9.67 g/m*3 11.1 C 0 km/h
92 30-08-2020 07:35:00 11.2 C 9.73 g/m*3 11.2 C 0 km/h
93 30-08-2020 07:40:00 11.2 C 9.73 g/m*3 11.2 C 0 km/h
94 30-08-2020 07:45:00 11.3 C 9.79 g/m*3 11.3 C 0 km/h
95 30-08-2020 07:50:00 11.4 C 9.85 g/m*3 11.4 C 0 km/h
96 30-08-2020 07:55:00 11.5 C 9.92 g/m*3 11.5 C 0 km/h
97 30-08-2020 08:00:00 11.6 C 9.98 g/m*3 11.6 C 1.6 km/h
98 30-08-2020 08:05:00 11.7 C 10.04 g/m*3 11.7 C 1.6 km/h
99 30-08-2020 08:10:00 11.7 C 10.04 g/m*3 11.7 C 0 km/h
100 30-08-2020 08:15:00 11.8 C 10.1 g/m*3 11.8 C 0 km/h
Sensor: Nr:Datum:Temp:Abs-Feuchte:Windchill:Wind:
Aussen-T/F 101 30-08-2020 08:20:00 11.8 C 10.1 g/m*3 11.8 C 0 km/h
102 30-08-2020 08:25:00 11.9 C 10.17 g/m*3 11.9 C 0 km/h
103 30-08-2020 08:30:00 11.9 C 10.17 g/m*3 11.9 C 0 km/h
104 30-08-2020 08:35:00 12 C 10.23 g/m*3 12 C 0 km/h
105 30-08-2020 08:40:00 12.1 C 10.29 g/m*3 12.1 C 0 km/h
106 30-08-2020 08:45:00 12.2 C 10.36 g/m*3 12.2 C 0 km/h
107 30-08-2020 08:50:00 12.3 C 10.42 g/m*3 12.3 C 0 km/h
108 30-08-2020 08:55:00 12.3 C 10.53 g/m*3 12.3 C 0 km/h
109 30-08-2020 09:00:00 12.4 C 10.6 g/m*3 12.4 C 0 km/h
110 30-08-2020 09:05:00 12.6 C 10.62 g/m*3 12.6 C 0 km/h
111 30-08-2020 09:10:00 12.8 C 10.87 g/m*3 12.8 C 0 km/h
112 30-08-2020 09:15:00 13 C 11 g/m*3 13 C 0 km/h
113 30-08-2020 09:20:00 13.1 C 11.07 g/m*3 13.1 C 0 km/h
114 30-08-2020 09:25:00 13.2 C 11.14 g/m*3 13.2 C 0 km/h
115 30-08-2020 09:30:00 13.2 C 11.02 g/m*3 13.2 C 0 km/h
116 30-08-2020 09:35:00 13.4 C 11.16 g/m*3 13.4 C 0 km/h
117 30-08-2020 09:40:00 13.4 C 11.16 g/m*3 13.4 C 0 km/h
118 30-08-2020 09:45:00 13.5 C 11.23 g/m*3 13.5 C 0 km/h
119 30-08-2020 09:50:00 13.6 C 11.18 g/m*3 13.6 C 1.6 km/h
120 30-08-2020 09:55:00 13.7 C 11.13 g/m*3 13.7 C 6.4 km/h
121 30-08-2020 10:00:00 13.8 C 11.2 g/m*3 13.8 C 6.4 km/h
122 30-08-2020 10:05:00 14 C 11.1 g/m*3 14 C 8.1 km/h
123 30-08-2020 10:10:00 14.3 C 11.3 g/m*3 14.3 C 6.4 km/h
124 30-08-2020 10:15:00 14.4 C 11.25 g/m*3 14.4 C 6.4 km/h
125 30-08-2020 10:20:00 14.6 C 11.14 g/m*3 14.6 C 4.8 km/h
Sensor: Nr:Datum:Temp:Abs-Feuchte:Windchill:Wind:
Aussen-T/F 126 30-08-2020 10:25:00 14.8 C 11.27 g/m*3 14.8 C 4.8 km/h
127 30-08-2020 10:30:00 14.9 C 11.22 g/m*3 14.9 C 6.4 km/h
128 30-08-2020 10:35:00 15.1 C 11.35 g/m*3 15.1 C 3.2 km/h
129 30-08-2020 10:40:00 15.2 C 11.42 g/m*3 15.2 C 4.8 km/h
130 30-08-2020 10:45:00 15.3 C 11.23 g/m*3 15.3 C 6.4 km/h
131 30-08-2020 10:50:00 15.4 C 11.17 g/m*3 15.4 C 11.3 km/h
132 30-08-2020 10:55:00 15.6 C 11.3 g/m*3 15.6 C 6.4 km/h
133 30-08-2020 11:00:00 15.7 C 11.24 g/m*3 15.7 C 4.8 km/h
134 30-08-2020 11:05:00 15.8 C 11.31 g/m*3 15.8 C 6.4 km/h
135 30-08-2020 11:10:00 15.9 C 11.38 g/m*3 15.9 C 8.1 km/h
136 30-08-2020 11:15:00 16 C 11.44 g/m*3 16 C 1.6 km/h
137 30-08-2020 11:20:00 16.1 C 11.38 g/m*3 16.1 C 6.4 km/h
138 30-08-2020 11:25:00 16.2 C 11.45 g/m*3 16.2 C 9.7 km/h
139 30-08-2020 11:30:00 16.3 C 11.52 g/m*3 16.3 C 6.4 km/h
140 30-08-2020 11:35:00 16.4 C 11.45 g/m*3 16.4 C 6.4 km/h
141 30-08-2020 11:40:00 16.4 C 11.45 g/m*3 16.4 C 9.7 km/h
142 30-08-2020 11:45:00 16.5 C 11.51 g/m*3 16.5 C 6.4 km/h
143 30-08-2020 11:50:00 16.6 C 11.44 g/m*3 16.6 C 6.4 km/h
144 30-08-2020 11:55:00 16.6 C 11.44 g/m*3 16.6 C 6.4 km/h
145 30-08-2020 12:00:00 16.7 C 11.51 g/m*3 16.7 C 4.8 km/h
146 30-08-2020 12:05:00 16.7 C 11.51 g/m*3 16.7 C 8.1 km/h
147 30-08-2020 12:10:00 16.8 C 11.58 g/m*3 16.8 C 6.4 km/h
148 30-08-2020 12:15:00 16.8 C 11.44 g/m*3 16.8 C 9.7 km/h
149 30-08-2020 12:20:00 16.8 C 11.58 g/m*3 16.8 C 8.1 km/h
150 30-08-2020 12:25:00 16.9 C 11.51 g/m*3 16.9 C 9.7 km/h
Sensor: Nr:Datum:Temp:Abs-Feuchte:Windchill:Wind:
Aussen-T/F 151 30-08-2020 12:30:00 17.1 C 11.65 g/m*3 17.1 C 11.3 km/h
152 30-08-2020 12:35:00 17.2 C 11.57 g/m*3 17.2 C 9.7 km/h
153 30-08-2020 12:40:00 17.2 C 11.42 g/m*3 17.2 C 6.4 km/h
154 30-08-2020 12:45:00 17.3 C 11.49 g/m*3 17.3 C 11.3 km/h
155 30-08-2020 12:50:00 17.4 C 11.56 g/m*3 17.4 C 3.2 km/h
156 30-08-2020 12:55:00 17.5 C 11.63 g/m*3 17.5 C 8.1 km/h
157 30-08-2020 13:00:00 17.6 C 11.7 g/m*3 17.6 C 8.1 km/h
158 30-08-2020 13:05:00 17.6 C 11.7 g/m*3 17.6 C 3.2 km/h
159 30-08-2020 13:10:00 17.7 C 11.62 g/m*3 17.7 C 4.8 km/h
160 30-08-2020 13:15:00 17.9 C 11.76 g/m*3 17.9 C 3.2 km/h
161 30-08-2020 13:20:00 18 C 11.83 g/m*3 18 C 8.1 km/h
162 30-08-2020 13:25:00 18 C 11.67 g/m*3 18 C 6.4 km/h
163 30-08-2020 13:30:00 18.1 C 11.59 g/m*3 18.1 C 4.8 km/h
164 30-08-2020 13:35:00 18.1 C 11.59 g/m*3 18.1 C 6.4 km/h
165 30-08-2020 13:40:00 18.2 C 11.5 g/m*3 18.2 C 6.4 km/h
166 30-08-2020 13:45:00 18.2 C 11.5 g/m*3 18.2 C 4.8 km/h
167 30-08-2020 13:50:00 18.4 C 11.64 g/m*3 18.4 C 8.1 km/h
168 30-08-2020 13:55:00 18.4 C 11.48 g/m*3 18.4 C 8.1 km/h
169 30-08-2020 14:00:00 18.5 C 11.55 g/m*3 18.5 C 4.8 km/h
170 30-08-2020 14:05:00 18.6 C 11.46 g/m*3 18.6 C 8.1 km/h
171 30-08-2020 14:10:00 18.6 C 11.46 g/m*3 18.6 C 4.8 km/h
172 30-08-2020 14:15:00 18.7 C 11.53 g/m*3 18.7 C 0 km/h
173 30-08-2020 14:20:00 18.8 C 11.6 g/m*3 18.8 C 8.1 km/h
174 30-08-2020 14:25:00 18.9 C 11.34 g/m*3 18.9 C 8.1 km/h
175 30-08-2020 14:30:00 18.8 C 11.27 g/m*3 18.8 C 6.4 km/h
Sensor: Nr:Datum:Temp:Abs-Feuchte:Windchill:Wind:
Aussen-T/F 176 30-08-2020 14:35:00 18.8 C 11.27 g/m*3 18.8 C 6.4 km/h
177 30-08-2020 14:40:00 18.9 C 11.34 g/m*3 18.9 C 6.4 km/h
178 30-08-2020 14:45:00 19.1 C 11.47 g/m*3 19.1 C 6.4 km/h
179 30-08-2020 14:50:00 19.2 C 11.87 g/m*3 19.2 C 6.4 km/h
180 30-08-2020 14:55:00 19.3 C 11.78 g/m*3 19.3 C 3.2 km/h
181 30-08-2020 15:00:00 19.4 C 11.51 g/m*3 19.4 C 9.7 km/h
182 30-08-2020 15:05:00 19.4 C 11.51 g/m*3 19.4 C 6.4 km/h
183 30-08-2020 15:10:00 19.5 C 11.41 g/m*3 19.5 C 8.1 km/h
184 30-08-2020 15:15:00 19.5 C 11.24 g/m*3 19.5 C 8.1 km/h
185 30-08-2020 15:20:00 19.6 C 11.14 g/m*3 19.6 C 8.1 km/h
186 30-08-2020 15:25:00 19.6 C 11.48 g/m*3 19.6 C 3.2 km/h
187 30-08-2020 15:30:00 19.7 C 11.38 g/m*3 19.7 C 4.8 km/h
188 30-08-2020 15:35:00 19.8 C 10.76 g/m*3 19.8 C 11.3 km/h
189 30-08-2020 15:40:00 20.1 C 10.6 g/m*3 20.1 C 9.7 km/h
190 30-08-2020 15:45:00 20.3 C 10.9 g/m*3 20.3 C 6.4 km/h
191 30-08-2020 15:50:00 20.7 C 11.16 g/m*3 20.7 C 6.4 km/h
192 30-08-2020 15:55:00 21.1 C 11.24 g/m*3 21.1 C 6.4 km/h
193 30-08-2020 16:00:00 21.2 C 10.93 g/m*3 21.2 C 11.3 km/h
194 30-08-2020 16:05:00 21.4 C 11.25 g/m*3 21.4 C 6.4 km/h
195 30-08-2020 16:10:00 21.4 C 10.69 g/m*3 21.4 C 9.7 km/h
196 30-08-2020 16:15:00 21.4 C 10.5 g/m*3 21.4 C 9.7 km/h
197 30-08-2020 16:20:00 21.4 C 10.5 g/m*3 21.4 C 9.7 km/h
198 30-08-2020 16:25:00 21.4 C 10.31 g/m*3 21.4 C 8.1 km/h
199 30-08-2020 16:30:00 21.3 C 10.44 g/m*3 21.3 C 8.1 km/h
200 30-08-2020 16:35:00 21.3 C 10.07 g/m*3 21.3 C 8.1 km/h
Sensor: Nr:Datum:Temp:Abs-Feuchte:Windchill:Wind:
Aussen-T/F 201 30-08-2020 16:40:00 21.2 C 10.38 g/m*3 21.2 C 9.7 km/h
202 30-08-2020 16:45:00 21.2 C 10.38 g/m*3 21.2 C 4.8 km/h
203 30-08-2020 16:50:00 21.3 C 10.62 g/m*3 21.3 C 4.8 km/h
204 30-08-2020 16:55:00 21.4 C 10.5 g/m*3 21.4 C 6.4 km/h
205 30-08-2020 17:00:00 21.5 C 10.37 g/m*3 21.5 C 8.1 km/h
206 30-08-2020 17:05:00 21.4 C 10.12 g/m*3 21.4 C 11.3 km/h
207 30-08-2020 17:10:00 21.3 C 10.25 g/m*3 21.3 C 6.4 km/h
208 30-08-2020 17:15:00 21.3 C 10.25 g/m*3 21.3 C 9.7 km/h
209 30-08-2020 17:20:00 21.3 C 10.44 g/m*3 21.3 C 4.8 km/h
210 30-08-2020 17:25:00 21.3 C 10.25 g/m*3 21.3 C 9.7 km/h
211 30-08-2020 17:30:00 21.5 C 10.37 g/m*3 21.5 C 4.8 km/h
212 30-08-2020 17:35:00 21.7 C 10.68 g/m*3 21.7 C 6.4 km/h
213 30-08-2020 17:40:00 21.8 C 10.36 g/m*3 21.8 C 8.1 km/h
214 30-08-2020 17:45:00 22 C 10.48 g/m*3 22 C 9.7 km/h
215 30-08-2020 17:50:00 22.2 C 10.41 g/m*3 22.2 C 6.4 km/h
216 30-08-2020 17:55:00 22.2 C 10.01 g/m*3 22.2 C 8.1 km/h
217 30-08-2020 18:00:00 22.1 C 10.35 g/m*3 22.1 C 6.4 km/h
218 30-08-2020 18:05:00 21.9 C 9.65 g/m*3 21.9 C 9.7 km/h
219 30-08-2020 18:10:00 21.8 C 9.78 g/m*3 21.8 C 4.8 km/h
220 30-08-2020 18:15:00 21.7 C 9.73 g/m*3 21.7 C 0 km/h
221 30-08-2020 18:20:00 21.7 C 10.11 g/m*3 21.7 C 8.1 km/h
222 30-08-2020 18:25:00 21.6 C 9.86 g/m*3 21.6 C 4.8 km/h
223 30-08-2020 18:30:00 21.6 C 9.86 g/m*3 21.6 C 4.8 km/h
224 30-08-2020 18:35:00 21.6 C 9.86 g/m*3 21.6 C 3.2 km/h
225 30-08-2020 18:40:00 21.5 C 10.18 g/m*3 21.5 C 3.2 km/h
Sensor: Nr:Datum:Temp:Abs-Feuchte:Windchill:Wind:
Aussen-T/F 226 30-08-2020 18:45:00 21.4 C 9.94 g/m*3 21.4 C 0 km/h
227 30-08-2020 18:50:00 21.3 C 9.88 g/m*3 21.3 C 8.1 km/h
228 30-08-2020 18:55:00 21.2 C 9.82 g/m*3 21.2 C 12.9 km/h
229 30-08-2020 19:00:00 21.2 C 9.82 g/m*3 21.2 C 6.4 km/h
230 30-08-2020 19:05:00 21.1 C 9.95 g/m*3 21.1 C 8.1 km/h
231 30-08-2020 19:10:00 20.9 C 10.02 g/m*3 20.9 C 8.1 km/h
232 30-08-2020 19:15:00 20.9 C 10.38 g/m*3 20.9 C 0 km/h
233 30-08-2020 19:20:00 20.8 C 10.14 g/m*3 20.8 C 3.2 km/h
234 30-08-2020 19:25:00 20.8 C 10.68 g/m*3 20.8 C 0 km/h
235 30-08-2020 19:30:00 20.7 C 10.08 g/m*3 20.7 C 0 km/h
236 30-08-2020 19:35:00 20.6 C 10.92 g/m*3 20.6 C 0 km/h
237 30-08-2020 19:40:00 20.4 C 10.61 g/m*3 20.4 C 0 km/h
238 30-08-2020 19:45:00 20.3 C 10.55 g/m*3 20.3 C 0 km/h
239 30-08-2020 19:50:00 20.1 C 10.95 g/m*3 20.1 C 0 km/h
240 30-08-2020 19:55:00 19.8 C 10.42 g/m*3 19.8 C 0 km/h
241 30-08-2020 20:00:00 19.6 C 10.8 g/m*3 19.6 C 0 km/h
242 30-08-2020 20:05:00 19.3 C 10.62 g/m*3 19.3 C 0 km/h
243 30-08-2020 20:10:00 19.1 C 10.33 g/m*3 19.1 C 0 km/h
244 30-08-2020 20:15:00 18.9 C 10.69 g/m*3 18.9 C 0 km/h
245 30-08-2020 20:20:00 18.8 C 10.79 g/m*3 18.8 C 0 km/h
246 30-08-2020 20:25:00 18.6 C 10.66 g/m*3 18.6 C 0 km/h
247 30-08-2020 20:30:00 18.4 C 10.7 g/m*3 18.4 C 0 km/h
248 30-08-2020 20:35:00 18.4 C 10.7 g/m*3 18.4 C 12.9 km/h
249 30-08-2020 20:40:00 18.7 C 10.89 g/m*3 18.7 C 9.7 km/h
250 30-08-2020 20:45:00 18.9 C 11.02 g/m*3 18.9 C 6.4 km/h
Sensor: Nr:Datum:Temp:Abs-Feuchte:Windchill:Wind:
Aussen-T/F 251 30-08-2020 20:50:00 19 C 11.24 g/m*3 19 C 9.7 km/h
252 30-08-2020 20:55:00 19.1 C 11.31 g/m*3 19.1 C 3.2 km/h
253 30-08-2020 21:00:00 19.1 C 11.31 g/m*3 19.1 C 4.8 km/h
254 30-08-2020 21:05:00 19.1 C 11.47 g/m*3 19.1 C 9.7 km/h
255 30-08-2020 21:10:00 19.1 C 11.47 g/m*3 19.1 C 8.1 km/h
256 30-08-2020 21:15:00 19 C 11.41 g/m*3 19 C 6.4 km/h
257 30-08-2020 21:20:00 19 C 11.57 g/m*3 19 C 4.8 km/h
258 30-08-2020 21:25:00 18.9 C 11.5 g/m*3 18.9 C 4.8 km/h
259 30-08-2020 21:30:00 18.9 C 11.5 g/m*3 18.9 C 4.8 km/h
260 30-08-2020 21:35:00 18.8 C 11.43 g/m*3 18.8 C 4.8 km/h
261 30-08-2020 21:40:00 18.8 C 11.6 g/m*3 18.8 C 0 km/h
262 30-08-2020 21:45:00 18.7 C 11.69 g/m*3 18.7 C 0 km/h
263 30-08-2020 21:50:00 18.6 C 11.62 g/m*3 18.6 C 0 km/h
264 30-08-2020 21:55:00 18.5 C 11.71 g/m*3 18.5 C 0 km/h
265 30-08-2020 22:00:00 18.3 C 11.57 g/m*3 18.3 C 0 km/h
266 30-08-2020 22:05:00 18.2 C 11.66 g/m*3 18.2 C 0 km/h
267 30-08-2020 22:10:00 18.1 C 11.59 g/m*3 18.1 C 0 km/h
268 30-08-2020 22:15:00 17.9 C 11.45 g/m*3 17.9 C 0 km/h
269 30-08-2020 22:20:00 17.8 C 11.54 g/m*3 17.8 C 0 km/h
270 30-08-2020 22:25:00 17.7 C 11.62 g/m*3 17.7 C 0 km/h
271 30-08-2020 22:30:00 17.6 C 11.55 g/m*3 17.6 C 0 km/h
272 30-08-2020 22:35:00 17.4 C 11.41 g/m*3 17.4 C 0 km/h
273 30-08-2020 22:40:00 17.3 C 11.49 g/m*3 17.3 C 0 km/h
274 30-08-2020 22:45:00 17.3 C 11.49 g/m*3 17.3 C 0 km/h
275 30-08-2020 22:50:00 17.2 C 11.42 g/m*3 17.2 C 0 km/h
Sensor: Nr:Datum:Temp:Abs-Feuchte:Windchill:Wind:
Aussen-T/F 276 30-08-2020 22:55:00 17.1 C 11.5 g/m*3 17.1 C 0 km/h
277 30-08-2020 23:00:00 17 C 11.43 g/m*3 17 C 0 km/h
278 30-08-2020 23:05:00 16.9 C 11.36 g/m*3 16.9 C 0 km/h
279 30-08-2020 23:10:00 16.8 C 11.29 g/m*3 16.8 C 0 km/h
280 30-08-2020 23:15:00 16.8 C 11.44 g/m*3 16.8 C 0 km/h
281 30-08-2020 23:20:00 16.7 C 11.37 g/m*3 16.7 C 0 km/h
282 30-08-2020 23:25:00 16.7 C 11.37 g/m*3 16.7 C 0 km/h
283 30-08-2020 23:30:00 16.7 C 11.37 g/m*3 16.7 C 0 km/h
284 30-08-2020 23:35:00 16.6 C 11.3 g/m*3 16.6 C 0 km/h
285 30-08-2020 23:40:00 16.6 C 11.3 g/m*3 16.6 C 0 km/h
286 30-08-2020 23:45:00 16.6 C 11.3 g/m*3 16.6 C 0 km/h
287 30-08-2020 23:50:00 16.5 C 11.23 g/m*3 16.5 C 0 km/h
288 30-08-2020 23:55:00 16.4 C 11.31 g/m*3 16.4 C 0 km/h
289 31-08-2020 00:00:00 16.4 C 11.31 g/m*3 16.4 C 0 km/h
290 31-08-2020 00:05:00 16.3 C 11.24 g/m*3 16.3 C 0 km/h
291 31-08-2020 00:10:00 16.2 C 11.17 g/m*3 16.2 C 0 km/h
292 31-08-2020 00:15:00 16.2 C 11.31 g/m*3 16.2 C 0 km/h
293 31-08-2020 00:20:00 16.1 C 11.24 g/m*3 16.1 C 0 km/h
294 31-08-2020 00:25:00 16.1 C 11.24 g/m*3 16.1 C 0 km/h
295 31-08-2020 00:30:00 16.1 C 11.24 g/m*3 16.1 C 0 km/h
296 31-08-2020 00:35:00 16 C 11.17 g/m*3 16 C 0 km/h
297 31-08-2020 00:40:00 15.9 C 11.24 g/m*3 15.9 C 0 km/h
298 31-08-2020 00:45:00 15.9 C 11.24 g/m*3 15.9 C 0 km/h
299 31-08-2020 00:50:00 15.8 C 11.17 g/m*3 15.8 C 0 km/h
300 31-08-2020 00:55:00 15.8 C 11.17 g/m*3 15.8 C 0 km/h
Sensor: Nr:Datum:Temp:Abs-Feuchte:Windchill:Wind:
Aussen-T/F 301 31-08-2020 01:00:00 15.7 C 11.24 g/m*3 15.7 C 0 km/h
302 31-08-2020 01:05:00 15.7 C 11.24 g/m*3 15.7 C 0 km/h
303 31-08-2020 01:10:00 15.7 C 11.37 g/m*3 15.7 C 0 km/h
304 31-08-2020 01:15:00 15.7 C 11.37 g/m*3 15.7 C 0 km/h
305 31-08-2020 01:20:00 15.7 C 11.37 g/m*3 15.7 C 0 km/h
306 31-08-2020 01:25:00 15.7 C 11.37 g/m*3 15.7 C 0 km/h
307 31-08-2020 01:30:00 15.7 C 11.51 g/m*3 15.7 C 0 km/h
308 31-08-2020 01:35:00 15.8 C 11.44 g/m*3 15.8 C 0 km/h
309 31-08-2020 01:40:00 15.8 C 11.44 g/m*3 15.8 C 0 km/h
310 31-08-2020 01:45:00 15.7 C 11.37 g/m*3 15.7 C 0 km/h
311 31-08-2020 01:50:00 15.7 C 11.37 g/m*3 15.7 C 0 km/h
312 31-08-2020 01:55:00 15.6 C 11.3 g/m*3 15.6 C 0 km/h
313 31-08-2020 02:00:00 15.6 C 11.3 g/m*3 15.6 C 0 km/h
314 31-08-2020 02:05:00 15.4 C 11.17 g/m*3 15.4 C 0 km/h
315 31-08-2020 02:10:00 15.4 C 11.3 g/m*3 15.4 C 0 km/h
316 31-08-2020 02:15:00 15.4 C 11.3 g/m*3 15.4 C 0 km/h
317 31-08-2020 02:20:00 15.4 C 11.3 g/m*3 15.4 C 0 km/h
318 31-08-2020 02:25:00 15.4 C 11.43 g/m*3 15.4 C 0 km/h
319 31-08-2020 02:30:00 15.4 C 11.43 g/m*3 15.4 C 0 km/h
320 31-08-2020 02:35:00 15.4 C 11.43 g/m*3 15.4 C 0 km/h
321 31-08-2020 02:40:00 15.5 C 11.5 g/m*3 15.5 C 0 km/h
322 31-08-2020 02:45:00 15.5 C 11.5 g/m*3 15.5 C 0 km/h
323 31-08-2020 02:50:00 15.6 C 11.57 g/m*3 15.6 C 0 km/h
324 31-08-2020 02:55:00 15.6 C 11.57 g/m*3 15.6 C 0 km/h
325 31-08-2020 03:00:00 15.5 C 11.37 g/m*3 15.5 C 0 km/h
Sensor: Nr:Datum:Temp:Abs-Feuchte:Windchill:Wind:
Aussen-T/F 326 31-08-2020 03:05:00 15.4 C 11.3 g/m*3 15.4 C 0 km/h
327 31-08-2020 03:10:00 15.3 C 11.23 g/m*3 15.3 C 0 km/h
328 31-08-2020 03:15:00 15.2 C 11.03 g/m*3 15.2 C 0 km/h
329 31-08-2020 03:20:00 15 C 10.9 g/m*3 15 C 0 km/h
330 31-08-2020 03:25:00 14.8 C 10.89 g/m*3 14.8 C 0 km/h
331 31-08-2020 03:30:00 14.5 C 10.7 g/m*3 14.5 C 0 km/h
332 31-08-2020 03:35:00 14.3 C 10.57 g/m*3 14.3 C 0 km/h
333 31-08-2020 03:40:00 14.2 C 10.62 g/m*3 14.2 C 0 km/h
334 31-08-2020 03:45:00 14 C 10.61 g/m*3 14 C 0 km/h
335 31-08-2020 03:50:00 13.9 C 10.55 g/m*3 13.9 C 0 km/h
336 31-08-2020 03:55:00 13.8 C 10.48 g/m*3 13.8 C 0 km/h
337 31-08-2020 04:00:00 13.8 C 10.6 g/m*3 13.8 C 0 km/h
338 31-08-2020 04:05:00 13.8 C 10.6 g/m*3 13.8 C 0 km/h
339 31-08-2020 04:10:00 13.8 C 10.72 g/m*3 13.8 C 0 km/h
340 31-08-2020 04:15:00 13.8 C 10.72 g/m*3 13.8 C 0 km/h
341 31-08-2020 04:20:00 13.8 C 10.72 g/m*3 13.8 C 0 km/h
342 31-08-2020 04:25:00 13.8 C 10.72 g/m*3 13.8 C 0 km/h
343 31-08-2020 04:30:00 13.8 C 10.72 g/m*3 13.8 C 0 km/h
344 31-08-2020 04:35:00 13.7 C 10.54 g/m*3 13.7 C 0 km/h
345 31-08-2020 04:40:00 13.7 C 10.54 g/m*3 13.7 C 0 km/h
346 31-08-2020 04:45:00 13.6 C 10.47 g/m*3 13.6 C 0 km/h
347 31-08-2020 04:50:00 13.6 C 10.59 g/m*3 13.6 C 0 km/h
348 31-08-2020 04:55:00 13.5 C 10.53 g/m*3 13.5 C 0 km/h
349 31-08-2020 05:00:00 13.4 C 10.46 g/m*3 13.4 C 0 km/h
350 31-08-2020 05:05:00 13.4 C 10.46 g/m*3 13.4 C 0 km/h
Sensor: Nr:Datum:Temp:Abs-Feuchte:Windchill:Wind:
Aussen-T/F 351 31-08-2020 05:10:00 13.3 C 10.4 g/m*3 13.3 C 0 km/h
352 31-08-2020 05:15:00 13.2 C 10.33 g/m*3 13.2 C 0 km/h
353 31-08-2020 05:20:00 13.2 C 10.33 g/m*3 13.2 C 0 km/h
354 31-08-2020 05:25:00 13.1 C 10.38 g/m*3 13.1 C 0 km/h
355 31-08-2020 05:30:00 13.2 C 10.45 g/m*3 13.2 C 0 km/h
356 31-08-2020 05:35:00 13.1 C 10.38 g/m*3 13.1 C 0 km/h
357 31-08-2020 05:40:00 13.1 C 10.38 g/m*3 13.1 C 0 km/h
358 31-08-2020 05:45:00 13.1 C 10.38 g/m*3 13.1 C 0 km/h
359 31-08-2020 05:50:00 12.9 C 10.26 g/m*3 12.9 C 0 km/h
360 31-08-2020 05:55:00 12.9 C 10.26 g/m*3 12.9 C 3.2 km/h
361 31-08-2020 06:00:00 12.9 C 10.37 g/m*3 12.9 C 3.2 km/h
362 31-08-2020 06:05:00 12.8 C 10.3 g/m*3 12.8 C 1.6 km/h
363 31-08-2020 06:10:00 12.8 C 10.3 g/m*3 12.8 C 0 km/h
364 31-08-2020 06:15:00 12.8 C 10.3 g/m*3 12.8 C 0 km/h
365 31-08-2020 06:20:00 12.7 C 10.24 g/m*3 12.7 C 0 km/h
366 31-08-2020 06:25:00 12.6 C 10.18 g/m*3 12.6 C 0 km/h
367 31-08-2020 06:30:00 12.6 C 10.18 g/m*3 12.6 C 0 km/h
368 31-08-2020 06:35:00 12.6 C 10.18 g/m*3 12.6 C 0 km/h
369 31-08-2020 06:40:00 12.6 C 10.29 g/m*3 12.6 C 0 km/h
370 31-08-2020 06:45:00 12.7 C 10.35 g/m*3 12.7 C 0 km/h
371 31-08-2020 06:50:00 12.7 C 10.35 g/m*3 12.7 C 0 km/h
372 31-08-2020 06:55:00 12.7 C 10.35 g/m*3 12.7 C 0 km/h
373 31-08-2020 07:00:00 12.8 C 10.42 g/m*3 12.8 C 0 km/h
374 31-08-2020 07:05:00 12.8 C 10.42 g/m*3 12.8 C 0 km/h
375 31-08-2020 07:10:00 12.9 C 10.48 g/m*3 12.9 C 0 km/h
Sensor: Nr:Datum:Temp:Abs-Feuchte:Windchill:Wind:
Aussen-T/F 376 31-08-2020 07:15:00 13 C 10.66 g/m*3 13 C 0 km/h
377 31-08-2020 07:20:00 13.1 C 10.73 g/m*3 13.1 C 0 km/h
378 31-08-2020 07:25:00 13.2 C 10.79 g/m*3 13.2 C 0 km/h
379 31-08-2020 07:30:00 13.3 C 10.74 g/m*3 13.3 C 0 km/h
380 31-08-2020 07:35:00 13.3 C 10.86 g/m*3 13.3 C 0 km/h
381 31-08-2020 07:40:00 13.4 C 10.81 g/m*3 13.4 C 0 km/h
382 31-08-2020 07:45:00 13.4 C 10.81 g/m*3 13.4 C 0 km/h
383 31-08-2020 07:50:00 13.5 C 10.88 g/m*3 13.5 C 0 km/h
384 31-08-2020 07:55:00 13.6 C 10.95 g/m*3 13.6 C 0 km/h
385 31-08-2020 08:00:00 13.7 C 11.01 g/m*3 13.7 C 0 km/h
386 31-08-2020 08:05:00 13.8 C 11.08 g/m*3 13.8 C 0 km/h
387 31-08-2020 08:10:00 13.8 C 11.08 g/m*3 13.8 C 0 km/h
388 31-08-2020 08:15:00 13.9 C 11.15 g/m*3 13.9 C 0 km/h
389 31-08-2020 08:20:00 14 C 11.22 g/m*3 14 C 0 km/h
390 31-08-2020 08:25:00 14.1 C 11.17 g/m*3 14.1 C 0 km/h
391 31-08-2020 08:30:00 14.3 C 11.3 g/m*3 14.3 C 0 km/h
392 31-08-2020 08:35:00 14.4 C 11.37 g/m*3 14.4 C 0 km/h
393 31-08-2020 08:40:00 14.5 C 11.44 g/m*3 14.5 C 0 km/h
394 31-08-2020 08:45:00 14.7 C 11.46 g/m*3 14.7 C 0 km/h
395 31-08-2020 08:50:00 14.8 C 11.4 g/m*3 14.8 C 0 km/h
396 31-08-2020 08:55:00 14.9 C 11.47 g/m*3 14.9 C 0 km/h
397 31-08-2020 09:00:00 15 C 11.54 g/m*3 15 C 0 km/h
398 31-08-2020 09:05:00 15.1 C 11.48 g/m*3 15.1 C 0 km/h
399 31-08-2020 09:10:00 15.2 C 11.55 g/m*3 15.2 C 0 km/h
400 31-08-2020 09:15:00 15.3 C 11.62 g/m*3 15.3 C 0 km/h
Sensor: Nr:Datum:Temp:Abs-Feuchte:Windchill:Wind:
Aussen-T/F 401 31-08-2020 09:20:00 15.4 C 11.69 g/m*3 15.4 C 0 km/h
402 31-08-2020 09:25:00 15.4 C 11.69 g/m*3 15.4 C 0 km/h
403 31-08-2020 09:30:00 15.6 C 11.84 g/m*3 15.6 C 0 km/h
404 31-08-2020 09:35:00 15.7 C 11.77 g/m*3 15.7 C 0 km/h
405 31-08-2020 09:40:00 15.8 C 11.85 g/m*3 15.8 C 1.6 km/h
406 31-08-2020 09:45:00 15.9 C 11.92 g/m*3 15.9 C 1.6 km/h
407 31-08-2020 09:50:00 16 C 11.99 g/m*3 16 C 0 km/h
408 31-08-2020 09:55:00 16.2 C 12 g/m*3 16.2 C 1.6 km/h
409 31-08-2020 10:00:00 16.2 C 12 g/m*3 16.2 C 3.2 km/h
410 31-08-2020 10:05:00 16.3 C 12.07 g/m*3 16.3 C 0 km/h
411 31-08-2020 10:10:00 16.4 C 12 g/m*3 16.4 C 0 km/h
412 31-08-2020 10:15:00 16.4 C 12 g/m*3 16.4 C 3.2 km/h
413 31-08-2020 10:20:00 16.5 C 12.08 g/m*3 16.5 C 0 km/h
414 31-08-2020 10:25:00 16.6 C 12.15 g/m*3 16.6 C 1.6 km/h
415 31-08-2020 10:30:00 16.6 C 12.01 g/m*3 16.6 C 9.7 km/h
416 31-08-2020 10:35:00 16.7 C 12.08 g/m*3 16.7 C 9.7 km/h
417 31-08-2020 10:40:00 16.8 C 12.01 g/m*3 16.8 C 6.4 km/h
418 31-08-2020 10:45:00 16.8 C 12.01 g/m*3 16.8 C 9.7 km/h
419 31-08-2020 10:50:00 16.9 C 12.08 g/m*3 16.9 C 6.4 km/h
420 31-08-2020 10:55:00 17 C 12.01 g/m*3 17 C 6.4 km/h
421 31-08-2020 11:00:00 17.1 C 12.08 g/m*3 17.1 C 6.4 km/h
422 31-08-2020 11:05:00 17.2 C 12.01 g/m*3 17.2 C 6.4 km/h
423 31-08-2020 11:10:00 17.3 C 12.08 g/m*3 17.3 C 4.8 km/h
424 31-08-2020 11:15:00 17.4 C 12 g/m*3 17.4 C 9.7 km/h
425 31-08-2020 11:20:00 17.4 C 12.15 g/m*3 17.4 C 6.4 km/h
Sensor: Nr:Datum:Temp:Abs-Feuchte:Windchill:Wind:
Aussen-T/F 426 31-08-2020 11:25:00 17.6 C 12 g/m*3 17.6 C 4.8 km/h
427 31-08-2020 11:30:00 17.7 C 12.07 g/m*3 17.7 C 9.7 km/h
428 31-08-2020 11:35:00 17.7 C 12.07 g/m*3 17.7 C 4.8 km/h
429 31-08-2020 11:40:00 17.9 C 12.06 g/m*3 17.9 C 6.4 km/h
430 31-08-2020 11:45:00 18.1 C 12.36 g/m*3 18.1 C 4.8 km/h
431 31-08-2020 11:50:00 18.4 C 12.58 g/m*3 18.4 C 3.2 km/h
432 31-08-2020 11:55:00 18.7 C 12.49 g/m*3 18.7 C 9.7 km/h
433 31-08-2020 12:00:00 18.8 C 12.56 g/m*3 18.8 C 4.8 km/h
434 31-08-2020 12:05:00 18.9 C 12.8 g/m*3 18.9 C 6.4 km/h
435 31-08-2020 12:10:00 18.9 C 12.64 g/m*3 18.9 C 6.4 km/h
436 31-08-2020 12:15:00 18.9 C 12.8 g/m*3 18.9 C 9.7 km/h
437 31-08-2020 12:20:00 18.8 C 12.56 g/m*3 18.8 C 8.1 km/h
438 31-08-2020 12:25:00 18.8 C 12.56 g/m*3 18.8 C 8.1 km/h
439 31-08-2020 12:30:00 18.8 C 12.56 g/m*3 18.8 C 4.8 km/h
440 31-08-2020 12:35:00 19 C 12.71 g/m*3 19 C 6.4 km/h
441 31-08-2020 12:40:00 19.2 C 12.7 g/m*3 19.2 C 8.1 km/h
442 31-08-2020 12:45:00 19.2 C 12.53 g/m*3 19.2 C 9.7 km/h
443 31-08-2020 12:50:00 19.1 C 12.46 g/m*3 19.1 C 4.8 km/h
444 31-08-2020 12:55:00 19.1 C 12.46 g/m*3 19.1 C 6.4 km/h
445 31-08-2020 13:00:00 19.1 C 12.62 g/m*3 19.1 C 6.4 km/h
446 31-08-2020 13:05:00 19.3 C 12.77 g/m*3 19.3 C 6.4 km/h
447 31-08-2020 13:10:00 19.4 C 12.68 g/m*3 19.4 C 4.8 km/h
448 31-08-2020 13:15:00 19.6 C 12.83 g/m*3 19.6 C 4.8 km/h
449 31-08-2020 13:20:00 19.7 C 12.91 g/m*3 19.7 C 6.4 km/h
450 31-08-2020 13:25:00 19.7 C 12.74 g/m*3 19.7 C 8.1 km/h
Sensor: Nr:Datum:Temp:Abs-Feuchte:Windchill:Wind:
Aussen-T/F 451 31-08-2020 13:30:00 19.7 C 12.57 g/m*3 19.7 C 11.3 km/h
452 31-08-2020 13:35:00 19.7 C 12.57 g/m*3 19.7 C 6.4 km/h
453 31-08-2020 13:40:00 19.6 C 12.66 g/m*3 19.6 C 6.4 km/h
454 31-08-2020 13:45:00 19.6 C 12.66 g/m*3 19.6 C 6.4 km/h
455 31-08-2020 13:50:00 19.6 C 12.66 g/m*3 19.6 C 8.1 km/h
456 31-08-2020 13:55:00 19.6 C 12.49 g/m*3 19.6 C 4.8 km/h
457 31-08-2020 14:00:00 19.6 C 12.66 g/m*3 19.6 C 4.8 km/h
458 31-08-2020 14:05:00 19.7 C 12.74 g/m*3 19.7 C 11.3 km/h
459 31-08-2020 14:10:00 19.7 C 12.74 g/m*3 19.7 C 11.3 km/h
460 31-08-2020 14:15:00 19.4 C 12.35 g/m*3 19.4 C 14.5 km/h
461 31-08-2020 14:20:00 19.1 C 12.62 g/m*3 19.1 C 14.5 km/h
462 31-08-2020 14:25:00 18.6 C 13.05 g/m*3 18.6 C 8.1 km/h
463 31-08-2020 14:30:00 18.2 C 13.06 g/m*3 18.2 C 4.8 km/h
464 31-08-2020 14:35:00 17.9 C 12.98 g/m*3 17.9 C 1.6 km/h
465 31-08-2020 14:40:00 17.6 C 13.05 g/m*3 17.6 C 6.4 km/h
466 31-08-2020 14:45:00 17.2 C 12.89 g/m*3 17.2 C 4.8 km/h
467 31-08-2020 14:50:00 16.9 C 12.8 g/m*3 16.9 C 4.8 km/h
468 31-08-2020 14:55:00 16.7 C 12.65 g/m*3 16.7 C 4.8 km/h
469 31-08-2020 15:00:00 16.6 C 12.71 g/m*3 16.6 C 3.2 km/h
470 31-08-2020 15:05:00 16.4 C 12.56 g/m*3 16.4 C 1.6 km/h
471 31-08-2020 15:10:00 16.3 C 12.62 g/m*3 16.3 C 3.2 km/h
472 31-08-2020 15:15:00 16.2 C 12.55 g/m*3 16.2 C 1.6 km/h
473 31-08-2020 15:20:00 16.2 C 12.55 g/m*3 16.2 C 1.6 km/h
474 31-08-2020 15:25:00 16.3 C 12.76 g/m*3 16.3 C 0 km/h
475 31-08-2020 15:30:00 16.3 C 12.76 g/m*3 16.3 C 0 km/h
Sensor: Nr:Datum:Temp:Abs-Feuchte:Windchill:Wind:
Aussen-T/F 476 31-08-2020 15:35:00 16.3 C 12.9 g/m*3 16.3 C 1.6 km/h
477 31-08-2020 15:40:00 16.4 C 12.98 g/m*3 16.4 C 0 km/h
478 31-08-2020 15:45:00 16.4 C 12.84 g/m*3 16.4 C 1.6 km/h
479 31-08-2020 15:50:00 16.3 C 12.76 g/m*3 16.3 C 0 km/h
480 31-08-2020 15:55:00 16.5 C 13.06 g/m*3 16.5 C 0 km/h
481 31-08-2020 16:00:00 16.6 C 13.14 g/m*3 16.6 C 0 km/h
482 31-08-2020 16:05:00 16.6 C 13.14 g/m*3 16.6 C 0 km/h
483 31-08-2020 16:10:00 16.5 C 12.92 g/m*3 16.5 C 0 km/h
484 31-08-2020 16:15:00 16.6 C 13.14 g/m*3 16.6 C 0 km/h
485 31-08-2020 16:20:00 16.8 C 13.3 g/m*3 16.8 C 0 km/h
486 31-08-2020 16:25:00 16.9 C 13.38 g/m*3 16.9 C 0 km/h
487 31-08-2020 16:30:00 16.9 C 13.23 g/m*3 16.9 C 0 km/h
488 31-08-2020 16:35:00 16.8 C 13.15 g/m*3 16.8 C 0 km/h
489 31-08-2020 16:40:00 16.8 C 13.15 g/m*3 16.8 C 0 km/h
490 31-08-2020 16:45:00 16.8 C 13.15 g/m*3 16.8 C 0 km/h
491 31-08-2020 16:50:00 16.8 C 13.15 g/m*3 16.8 C 0 km/h
492 31-08-2020 16:55:00 16.8 C 13.15 g/m*3 16.8 C 0 km/h
493 31-08-2020 17:00:00 16.8 C 13.15 g/m*3 16.8 C 0 km/h
494 31-08-2020 17:05:00 16.7 C 13.07 g/m*3 16.7 C 0 km/h
495 31-08-2020 17:10:00 16.6 C 13 g/m*3 16.6 C 0 km/h
496 31-08-2020 17:15:00 16.5 C 12.92 g/m*3 16.5 C 0 km/h
497 31-08-2020 17:20:00 16.4 C 12.84 g/m*3 16.4 C 0 km/h
498 31-08-2020 17:25:00 16.3 C 12.76 g/m*3 16.3 C 0 km/h
499 31-08-2020 17:30:00 16.3 C 12.9 g/m*3 16.3 C 0 km/h
500 31-08-2020 17:35:00 16.2 C 12.82 g/m*3 16.2 C 0 km/h
Sensor: Nr:Datum:Temp:Abs-Feuchte:Windchill:Wind:
Aussen-T/F 501 31-08-2020 17:40:00 16.3 C 12.9 g/m*3 16.3 C 0 km/h
502 31-08-2020 17:45:00 16.3 C 12.9 g/m*3 16.3 C 1.6 km/h
503 31-08-2020 17:50:00 16.2 C 12.82 g/m*3 16.2 C 3.2 km/h
504 31-08-2020 17:55:00 16.2 C 12.82 g/m*3 16.2 C 0 km/h
505 31-08-2020 18:00:00 16.2 C 12.82 g/m*3 16.2 C 0 km/h
506 31-08-2020 18:05:00 16.1 C 12.88 g/m*3 16.1 C 0 km/h
507 31-08-2020 18:10:00 16.1 C 12.75 g/m*3 16.1 C 1.6 km/h
508 31-08-2020 18:15:00 16 C 12.81 g/m*3 16 C 0 km/h
509 31-08-2020 18:20:00 16 C 12.81 g/m*3 16 C 0 km/h
510 31-08-2020 18:25:00 16 C 12.81 g/m*3 16 C 1.6 km/h
511 31-08-2020 18:30:00 16 C 12.81 g/m*3 16 C 1.6 km/h
512 31-08-2020 18:35:00 16 C 12.81 g/m*3 16 C 1.6 km/h
513 31-08-2020 18:40:00 16 C 12.81 g/m*3 16 C 0 km/h
514 31-08-2020 18:45:00 16 C 12.67 g/m*3 16 C 1.6 km/h
515 31-08-2020 18:50:00 15.9 C 12.59 g/m*3 15.9 C 0 km/h
516 31-08-2020 18:55:00 16 C 12.81 g/m*3 16 C 0 km/h
517 31-08-2020 19:00:00 16 C 12.81 g/m*3 16 C 1.6 km/h
518 31-08-2020 19:05:00 16 C 12.81 g/m*3 16 C 0 km/h
519 31-08-2020 19:10:00 16 C 12.81 g/m*3 16 C 1.6 km/h
520 31-08-2020 19:15:00 15.9 C 12.73 g/m*3 15.9 C 4.8 km/h
521 31-08-2020 19:20:00 15.8 C 12.52 g/m*3 15.8 C 4.8 km/h
522 31-08-2020 19:25:00 15.7 C 12.44 g/m*3 15.7 C 3.2 km/h
523 31-08-2020 19:30:00 15.5 C 12.29 g/m*3 15.5 C 3.2 km/h
524 31-08-2020 19:35:00 15.4 C 12.22 g/m*3 15.4 C 0 km/h
525 31-08-2020 19:40:00 15.3 C 12.14 g/m*3 15.3 C 3.2 km/h
Sensor: Nr:Datum:Temp:Abs-Feuchte:Windchill:Wind:
Aussen-T/F 526 31-08-2020 19:45:00 15.2 C 12.2 g/m*3 15.2 C 3.2 km/h
527 31-08-2020 19:50:00 15.2 C 12.2 g/m*3 15.2 C 1.6 km/h
528 31-08-2020 19:55:00 15.2 C 12.2 g/m*3 15.2 C 0 km/h
529 31-08-2020 20:00:00 15.2 C 12.2 g/m*3 15.2 C 1.6 km/h
530 31-08-2020 20:05:00 15.2 C 12.2 g/m*3 15.2 C 3.2 km/h
531 31-08-2020 20:10:00 15.1 C 12.13 g/m*3 15.1 C 3.2 km/h
532 31-08-2020 20:15:00 15.1 C 12.13 g/m*3 15.1 C 1.6 km/h
533 31-08-2020 20:20:00 14.9 C 11.98 g/m*3 14.9 C 3.2 km/h
534 31-08-2020 20:25:00 14.9 C 11.98 g/m*3 14.9 C 3.2 km/h
535 31-08-2020 20:30:00 14.8 C 11.91 g/m*3 14.8 C 4.8 km/h
536 31-08-2020 20:35:00 14.8 C 11.91 g/m*3 14.8 C 1.6 km/h
537 31-08-2020 20:40:00 14.8 C 11.91 g/m*3 14.8 C 1.6 km/h
538 31-08-2020 20:45:00 14.8 C 11.91 g/m*3 14.8 C 0 km/h
539 31-08-2020 20:50:00 14.7 C 11.83 g/m*3 14.7 C 1.6 km/h
540 31-08-2020 20:55:00 14.7 C 11.96 g/m*3 14.7 C 0 km/h
541 31-08-2020 21:00:00 14.7 C 11.96 g/m*3 14.7 C 0 km/h
542 31-08-2020 21:05:00 14.7 C 11.96 g/m*3 14.7 C 0 km/h
543 31-08-2020 21:10:00 14.7 C 11.96 g/m*3 14.7 C 1.6 km/h
544 31-08-2020 21:15:00 14.7 C 11.96 g/m*3 14.7 C 0 km/h
545 31-08-2020 21:20:00 14.6 C 11.89 g/m*3 14.6 C 0 km/h
546 31-08-2020 21:25:00 14.6 C 11.89 g/m*3 14.6 C 0 km/h
547 31-08-2020 21:30:00 14.6 C 11.89 g/m*3 14.6 C 1.6 km/h
548 31-08-2020 21:35:00 14.5 C 11.82 g/m*3 14.5 C 0 km/h
549 31-08-2020 21:40:00 14.5 C 11.82 g/m*3 14.5 C 0 km/h
550 31-08-2020 21:45:00 14.4 C 11.74 g/m*3 14.4 C 0 km/h
Sensor: Nr:Datum:Temp:Abs-Feuchte:Windchill:Wind:
Aussen-T/F 551 31-08-2020 21:50:00 14.4 C 11.74 g/m*3 14.4 C 1.6 km/h
552 31-08-2020 21:55:00 14.4 C 11.74 g/m*3 14.4 C 3.2 km/h
553 31-08-2020 22:00:00 14.4 C 11.74 g/m*3 14.4 C 3.2 km/h
554 31-08-2020 22:05:00 14.5 C 11.82 g/m*3 14.5 C 0 km/h
555 31-08-2020 22:10:00 14.5 C 11.82 g/m*3 14.5 C 0 km/h
556 31-08-2020 22:15:00 14.6 C 11.89 g/m*3 14.6 C 0 km/h
557 31-08-2020 22:20:00 14.6 C 11.89 g/m*3 14.6 C 0 km/h
558 31-08-2020 22:25:00 14.6 C 11.89 g/m*3 14.6 C 0 km/h
559 31-08-2020 22:30:00 14.6 C 11.89 g/m*3 14.6 C 0 km/h
560 31-08-2020 22:35:00 14.5 C 11.82 g/m*3 14.5 C 0 km/h
561 31-08-2020 22:40:00 14.4 C 11.74 g/m*3 14.4 C 0 km/h
562 31-08-2020 22:45:00 14.4 C 11.87 g/m*3 14.4 C 1.6 km/h
563 31-08-2020 22:50:00 14.4 C 11.87 g/m*3 14.4 C 0 km/h
564 31-08-2020 22:55:00 14.4 C 11.87 g/m*3 14.4 C 0 km/h
565 31-08-2020 23:00:00 14.4 C 11.87 g/m*3 14.4 C 0 km/h
566 31-08-2020 23:05:00 14.5 C 11.94 g/m*3 14.5 C 0 km/h
567 31-08-2020 23:10:00 14.6 C 12.01 g/m*3 14.6 C 1.6 km/h
568 31-08-2020 23:15:00 14.6 C 12.01 g/m*3 14.6 C 0 km/h
569 31-08-2020 23:20:00 14.6 C 12.01 g/m*3 14.6 C 0 km/h
570 31-08-2020 23:25:00 14.5 C 11.94 g/m*3 14.5 C 0 km/h
571 31-08-2020 23:30:00 14.5 C 11.94 g/m*3 14.5 C 0 km/h
572 31-08-2020 23:35:00 14.4 C 11.87 g/m*3 14.4 C 0 km/h
573 31-08-2020 23:40:00 14.4 C 11.87 g/m*3 14.4 C 1.6 km/h
574 31-08-2020 23:45:00 14.4 C 11.87 g/m*3 14.4 C 1.6 km/h
575 31-08-2020 23:50:00 14.3 C 11.79 g/m*3 14.3 C 1.6 km/h
Sensor: Nr:Datum:Temp:Abs-Feuchte:Windchill:Wind:
Aussen-T/F 576 31-08-2020 23:55:00 14.3 C 11.79 g/m*3 14.3 C 0 km/h
577 01-09-2020 00:00:00 14.3 C 11.79 g/m*3 14.3 C 0 km/h
578 01-09-2020 00:05:00 14.2 C 11.72 g/m*3 14.2 C 0 km/h
579 01-09-2020 00:10:00 14.2 C 11.72 g/m*3 14.2 C 0 km/h
580 01-09-2020 00:15:00 14.2 C 11.72 g/m*3 14.2 C 0 km/h
581 01-09-2020 00:20:00 14.2 C 11.72 g/m*3 14.2 C 1.6 km/h
582 01-09-2020 00:25:00 14.1 C 11.65 g/m*3 14.1 C 1.6 km/h
583 01-09-2020 00:30:00 14.1 C 11.65 g/m*3 14.1 C 0 km/h
584 01-09-2020 00:35:00 14.1 C 11.65 g/m*3 14.1 C 0 km/h
585 01-09-2020 00:40:00 14.1 C 11.65 g/m*3 14.1 C 0 km/h
586 01-09-2020 00:45:00 14.1 C 11.65 g/m*3 14.1 C 0 km/h
587 01-09-2020 00:50:00 14.1 C 11.65 g/m*3 14.1 C 0 km/h
588 01-09-2020 00:55:00 14.1 C 11.65 g/m*3 14.1 C 0 km/h
589 01-09-2020 01:00:00 14.1 C 11.65 g/m*3 14.1 C 0 km/h
590 01-09-2020 01:05:00 14.1 C 11.65 g/m*3 14.1 C 0 km/h
591 01-09-2020 01:10:00 14.1 C 11.65 g/m*3 14.1 C 0 km/h
592 01-09-2020 01:15:00 14.1 C 11.65 g/m*3 14.1 C 0 km/h
593 01-09-2020 01:20:00 14.1 C 11.65 g/m*3 14.1 C 0 km/h
594 01-09-2020 01:25:00 14.1 C 11.65 g/m*3 14.1 C 0 km/h
595 01-09-2020 01:30:00 14.1 C 11.65 g/m*3 14.1 C 0 km/h
596 01-09-2020 01:35:00 14.1 C 11.65 g/m*3 14.1 C 0 km/h
597 01-09-2020 01:40:00 14.1 C 11.65 g/m*3 14.1 C 0 km/h
598 01-09-2020 01:45:00 14 C 11.58 g/m*3 14 C 0 km/h
599 01-09-2020 01:50:00 14 C 11.58 g/m*3 14 C 0 km/h
600 01-09-2020 01:55:00 13.9 C 11.51 g/m*3 13.9 C 0 km/h
Sensor: Nr:Datum:Temp:Abs-Feuchte:Windchill:Wind:
Aussen-T/F 601 01-09-2020 02:00:00 13.9 C 11.51 g/m*3 13.9 C 0 km/h
602 01-09-2020 02:05:00 13.9 C 11.51 g/m*3 13.9 C 0 km/h
603 01-09-2020 02:10:00 13.9 C 11.51 g/m*3 13.9 C 0 km/h
604 01-09-2020 02:15:00 13.9 C 11.51 g/m*3 13.9 C 0 km/h
605 01-09-2020 02:20:00 13.8 C 11.44 g/m*3 13.8 C 0 km/h
606 01-09-2020 02:25:00 13.8 C 11.44 g/m*3 13.8 C 1.6 km/h
607 01-09-2020 02:30:00 13.7 C 11.37 g/m*3 13.7 C 3.2 km/h
608 01-09-2020 02:35:00 13.6 C 11.3 g/m*3 13.6 C 0 km/h
609 01-09-2020 02:40:00 13.6 C 11.3 g/m*3 13.6 C 0 km/h
610 01-09-2020 02:45:00 13.4 C 11.16 g/m*3 13.4 C 0 km/h
611 01-09-2020 02:50:00 13.3 C 11.09 g/m*3 13.3 C 1.6 km/h
612 01-09-2020 02:55:00 13.2 C 11.02 g/m*3 13.2 C 1.6 km/h
613 01-09-2020 03:00:00 13.1 C 10.95 g/m*3 13.1 C 1.6 km/h
614 01-09-2020 03:05:00 13 C 10.89 g/m*3 13 C 3.2 km/h
615 01-09-2020 03:10:00 13 C 10.89 g/m*3 13 C 0 km/h
616 01-09-2020 03:15:00 13.1 C 10.95 g/m*3 13.1 C 1.6 km/h
617 01-09-2020 03:20:00 13.1 C 10.95 g/m*3 13.1 C 1.6 km/h
618 01-09-2020 03:25:00 13.1 C 10.95 g/m*3 13.1 C 3.2 km/h
619 01-09-2020 03:30:00 13.2 C 11.02 g/m*3 13.2 C 4.8 km/h
620 01-09-2020 03:35:00 13.2 C 11.02 g/m*3 13.2 C 3.2 km/h
621 01-09-2020 03:40:00 13.2 C 11.02 g/m*3 13.2 C 1.6 km/h
622 01-09-2020 03:45:00 13.2 C 11.02 g/m*3 13.2 C 3.2 km/h
623 01-09-2020 03:50:00 13.2 C 11.02 g/m*3 13.2 C 3.2 km/h
624 01-09-2020 03:55:00 13.1 C 10.95 g/m*3 13.1 C 1.6 km/h
625 01-09-2020 04:00:00 13.1 C 10.95 g/m*3 13.1 C 1.6 km/h
Sensor: Nr:Datum:Temp:Abs-Feuchte:Windchill:Wind:
Aussen-T/F 626 01-09-2020 04:05:00 13.1 C 10.95 g/m*3 13.1 C 0 km/h
627 01-09-2020 04:10:00 13.1 C 10.95 g/m*3 13.1 C 0 km/h
628 01-09-2020 04:15:00 13.1 C 10.95 g/m*3 13.1 C 0 km/h
629 01-09-2020 04:20:00 13 C 10.89 g/m*3 13 C 0 km/h
630 01-09-2020 04:25:00 12.9 C 10.82 g/m*3 12.9 C 0 km/h
631 01-09-2020 04:30:00 12.9 C 10.82 g/m*3 12.9 C 0 km/h
632 01-09-2020 04:35:00 12.9 C 10.82 g/m*3 12.9 C 4.8 km/h
633 01-09-2020 04:40:00 12.8 C 10.75 g/m*3 12.8 C 4.8 km/h
634 01-09-2020 04:45:00 12.8 C 10.75 g/m*3 12.8 C 3.2 km/h
635 01-09-2020 04:50:00 12.8 C 10.75 g/m*3 12.8 C 0 km/h
636 01-09-2020 04:55:00 12.8 C 10.87 g/m*3 12.8 C 1.6 km/h
637 01-09-2020 05:00:00 12.8 C 10.87 g/m*3 12.8 C 1.6 km/h
638 01-09-2020 05:05:00 12.8 C 10.87 g/m*3 12.8 C 1.6 km/h
639 01-09-2020 05:10:00 12.7 C 10.8 g/m*3 12.7 C 3.2 km/h
640 01-09-2020 05:15:00 12.7 C 10.8 g/m*3 12.7 C 1.6 km/h
641 01-09-2020 05:20:00 12.7 C 10.69 g/m*3 12.7 C 4.8 km/h
642 01-09-2020 05:25:00 12.6 C 10.62 g/m*3 12.6 C 3.2 km/h
643 01-09-2020 05:30:00 12.6 C 10.62 g/m*3 12.6 C 3.2 km/h
644 01-09-2020 05:35:00 12.5 C 10.55 g/m*3 12.5 C 0 km/h
645 01-09-2020 05:40:00 12.4 C 10.49 g/m*3 12.4 C 1.6 km/h
646 01-09-2020 05:45:00 12.3 C 10.42 g/m*3 12.3 C 3.2 km/h
647 01-09-2020 05:50:00 12.3 C 10.42 g/m*3 12.3 C 3.2 km/h
648 01-09-2020 05:55:00 12.3 C 10.42 g/m*3 12.3 C 4.8 km/h
649 01-09-2020 06:00:00 12.3 C 10.42 g/m*3 12.3 C 1.6 km/h
650 01-09-2020 06:05:00 12.2 C 10.36 g/m*3 12.2 C 4.8 km/h
Sensor: Nr:Datum:Temp:Abs-Feuchte:Windchill:Wind:
Aussen-T/F 651 01-09-2020 06:10:00 12.2 C 10.36 g/m*3 12.2 C 4.8 km/h
652 01-09-2020 06:15:00 12.2 C 10.47 g/m*3 12.2 C 4.8 km/h
653 01-09-2020 06:20:00 12.1 C 10.4 g/m*3 12.1 C 4.8 km/h
654 01-09-2020 06:25:00 12.1 C 10.4 g/m*3 12.1 C 4.8 km/h
655 01-09-2020 06:30:00 12.1 C 10.4 g/m*3 12.1 C 0 km/h
656 01-09-2020 06:35:00 12.1 C 10.4 g/m*3 12.1 C 0 km/h
657 01-09-2020 06:40:00 12.1 C 10.4 g/m*3 12.1 C 0 km/h
658 01-09-2020 06:45:00 12.1 C 10.4 g/m*3 12.1 C 0 km/h
659 01-09-2020 06:50:00 12.1 C 10.4 g/m*3 12.1 C 0 km/h
660 01-09-2020 06:55:00 12.1 C 10.4 g/m*3 12.1 C 0 km/h
661 01-09-2020 07:00:00 12.2 C 10.47 g/m*3 12.2 C 0 km/h
662 01-09-2020 07:05:00 12.3 C 10.53 g/m*3 12.3 C 0 km/h
663 01-09-2020 07:10:00 12.4 C 10.6 g/m*3 12.4 C 0 km/h
664 01-09-2020 07:15:00 12.4 C 10.6 g/m*3 12.4 C 0 km/h
665 01-09-2020 07:20:00 12.4 C 10.6 g/m*3 12.4 C 0 km/h
666 01-09-2020 07:25:00 12.5 C 10.66 g/m*3 12.5 C 0 km/h
667 01-09-2020 07:30:00 12.5 C 10.66 g/m*3 12.5 C 0 km/h
668 01-09-2020 07:35:00 12.6 C 10.73 g/m*3 12.6 C 0 km/h
669 01-09-2020 07:40:00 12.6 C 10.73 g/m*3 12.6 C 0 km/h
670 01-09-2020 07:45:00 12.7 C 10.8 g/m*3 12.7 C 0 km/h
671 01-09-2020 07:50:00 12.7 C 10.8 g/m*3 12.7 C 0 km/h
672 01-09-2020 07:55:00 12.8 C 10.87 g/m*3 12.8 C 0 km/h
673 01-09-2020 08:00:00 12.9 C 10.93 g/m*3 12.9 C 0 km/h
674 01-09-2020 08:05:00 13 C 11 g/m*3 13 C 0 km/h
675 01-09-2020 08:10:00 13.1 C 11.07 g/m*3 13.1 C 0 km/h
Sensor: Nr:Datum:Temp:Abs-Feuchte:Windchill:Wind:
Aussen-T/F 676 01-09-2020 08:15:00 13.2 C 11.14 g/m*3 13.2 C 0 km/h
677 01-09-2020 08:20:00 13.3 C 11.21 g/m*3 13.3 C 0 km/h
678 01-09-2020 08:25:00 13.3 C 11.21 g/m*3 13.3 C 0 km/h
679 01-09-2020 08:30:00 13.5 C 11.35 g/m*3 13.5 C 0 km/h
680 01-09-2020 08:35:00 13.6 C 11.42 g/m*3 13.6 C 0 km/h
681 01-09-2020 08:40:00 13.7 C 11.49 g/m*3 13.7 C 0 km/h
682 01-09-2020 08:45:00 13.7 C 11.49 g/m*3 13.7 C 0 km/h
683 01-09-2020 08:50:00 13.8 C 11.56 g/m*3 13.8 C 0 km/h
684 01-09-2020 08:55:00 13.8 C 11.56 g/m*3 13.8 C 0 km/h
685 01-09-2020 09:00:00 13.7 C 11.49 g/m*3 13.7 C 0 km/h
686 01-09-2020 09:05:00 13.7 C 11.49 g/m*3 13.7 C 0 km/h
687 01-09-2020 09:10:00 13.7 C 11.49 g/m*3 13.7 C 0 km/h
688 01-09-2020 09:15:00 13.8 C 11.56 g/m*3 13.8 C 0 km/h
689 01-09-2020 09:20:00 13.8 C 11.56 g/m*3 13.8 C 0 km/h
690 01-09-2020 09:25:00 13.9 C 11.63 g/m*3 13.9 C 0 km/h
691 01-09-2020 09:30:00 13.9 C 11.63 g/m*3 13.9 C 0 km/h
692 01-09-2020 09:35:00 13.8 C 11.56 g/m*3 13.8 C 0 km/h
693 01-09-2020 09:40:00 13.9 C 11.63 g/m*3 13.9 C 0 km/h
694 01-09-2020 09:45:00 14 C 11.7 g/m*3 14 C 0 km/h
695 01-09-2020 09:50:00 14.1 C 11.77 g/m*3 14.1 C 0 km/h
696 01-09-2020 09:55:00 14.2 C 11.84 g/m*3 14.2 C 0 km/h
697 01-09-2020 10:00:00 14.3 C 11.92 g/m*3 14.3 C 0 km/h
698 01-09-2020 10:05:00 14.3 C 11.92 g/m*3 14.3 C 0 km/h
699 01-09-2020 10:10:00 14.3 C 11.92 g/m*3 14.3 C 0 km/h
700 01-09-2020 10:15:00 14.1 C 11.77 g/m*3 14.1 C 6.4 km/h
Sensor: Nr:Datum:Temp:Abs-Feuchte:Windchill:Wind:
Aussen-T/F 701 01-09-2020 10:20:00 14.1 C 11.77 g/m*3 14.1 C 1.6 km/h
702 01-09-2020 10:25:00 14.1 C 11.77 g/m*3 14.1 C 0 km/h
703 01-09-2020 10:30:00 14.2 C 11.84 g/m*3 14.2 C 0 km/h
704 01-09-2020 10:35:00 14.2 C 11.84 g/m*3 14.2 C 1.6 km/h
705 01-09-2020 10:40:00 14.3 C 11.92 g/m*3 14.3 C 3.2 km/h
706 01-09-2020 10:45:00 14.3 C 11.79 g/m*3 14.3 C 1.6 km/h
707 01-09-2020 10:50:00 14.4 C 11.87 g/m*3 14.4 C 1.6 km/h
708 01-09-2020 10:55:00 14.6 C 12.01 g/m*3 14.6 C 0 km/h
709 01-09-2020 11:00:00 14.8 C 12.16 g/m*3 14.8 C 0 km/h
710 01-09-2020 11:05:00 14.8 C 12.16 g/m*3 14.8 C 0 km/h
711 01-09-2020 11:10:00 14.9 C 12.24 g/m*3 14.9 C 3.2 km/h
712 01-09-2020 11:15:00 14.9 C 12.11 g/m*3 14.9 C 1.6 km/h
713 01-09-2020 11:20:00 15.1 C 12.13 g/m*3 15.1 C 0 km/h
714 01-09-2020 11:25:00 15.2 C 12.07 g/m*3 15.2 C 4.8 km/h
715 01-09-2020 11:30:00 15.3 C 12.14 g/m*3 15.3 C 3.2 km/h
716 01-09-2020 11:35:00 15.5 C 12.16 g/m*3 15.5 C 1.6 km/h
717 01-09-2020 11:40:00 15.7 C 12.18 g/m*3 15.7 C 4.8 km/h
718 01-09-2020 11:45:00 15.9 C 12.19 g/m*3 15.9 C 4.8 km/h
719 01-09-2020 11:50:00 16.1 C 12.2 g/m*3 16.1 C 1.6 km/h
720 01-09-2020 11:55:00 16.1 C 11.93 g/m*3 16.1 C 0 km/h
721 01-09-2020 12:00:00 16.2 C 12 g/m*3 16.2 C 0 km/h
722 01-09-2020 12:05:00 16.4 C 12.28 g/m*3 16.4 C 1.6 km/h
723 01-09-2020 12:10:00 16.6 C 12.57 g/m*3 16.6 C 3.2 km/h
724 01-09-2020 12:15:00 16.8 C 12.58 g/m*3 16.8 C 1.6 km/h
725 01-09-2020 12:20:00 16.9 C 12.8 g/m*3 16.9 C 0 km/h
Sensor: Nr:Datum:Temp:Abs-Feuchte:Windchill:Wind:
Aussen-T/F 726 01-09-2020 12:25:00 16.9 C 12.51 g/m*3 16.9 C 3.2 km/h
727 01-09-2020 12:30:00 17 C 12.3 g/m*3 17 C 3.2 km/h
728 01-09-2020 12:35:00 17.2 C 12.3 g/m*3 17.2 C 4.8 km/h
729 01-09-2020 12:40:00 17.3 C 12.23 g/m*3 17.3 C 1.6 km/h
730 01-09-2020 12:45:00 17.4 C 12.15 g/m*3 17.4 C 0 km/h
731 01-09-2020 12:50:00 17.6 C 12.3 g/m*3 17.6 C 0 km/h
732 01-09-2020 12:55:00 17.7 C 12.22 g/m*3 17.7 C 0 km/h
733 01-09-2020 13:00:00 17.8 C 11.99 g/m*3 17.8 C 4.8 km/h
734 01-09-2020 13:05:00 17.9 C 12.21 g/m*3 17.9 C 3.2 km/h
735 01-09-2020 13:10:00 18 C 12.13 g/m*3 18 C 3.2 km/h
736 01-09-2020 13:15:00 18.1 C 11.9 g/m*3 18.1 C 4.8 km/h
737 01-09-2020 13:20:00 18.2 C 11.81 g/m*3 18.2 C 9.7 km/h
738 01-09-2020 13:25:00 18.4 C 11.8 g/m*3 18.4 C 1.6 km/h
739 01-09-2020 13:30:00 18.6 C 11.62 g/m*3 18.6 C 11.3 km/h
740 01-09-2020 13:35:00 18.8 C 11.6 g/m*3 18.8 C 8.1 km/h
741 01-09-2020 13:40:00 18.9 C 11.18 g/m*3 18.9 C 9.7 km/h
742 01-09-2020 13:45:00 19.1 C 11.15 g/m*3 19.1 C 9.7 km/h
743 01-09-2020 13:50:00 19.2 C 10.55 g/m*3 19.2 C 8.1 km/h
744 01-09-2020 13:55:00 19.3 C 10.62 g/m*3 19.3 C 8.1 km/h
745 01-09-2020 14:00:00 19.3 C 10.78 g/m*3 19.3 C 11.3 km/h
746 01-09-2020 14:05:00 19.3 C 10.78 g/m*3 19.3 C 9.7 km/h
747 01-09-2020 14:10:00 19.4 C 10.68 g/m*3 19.4 C 8.1 km/h
748 01-09-2020 14:15:00 19.4 C 10.84 g/m*3 19.4 C 8.1 km/h
749 01-09-2020 14:20:00 19.3 C 10.78 g/m*3 19.3 C 8.1 km/h
750 01-09-2020 14:25:00 19.2 C 10.88 g/m*3 19.2 C 1.6 km/h
Sensor: Nr:Datum:Temp:Abs-Feuchte:Windchill:Wind:
Aussen-T/F 751 01-09-2020 14:30:00 19.3 C 11.11 g/m*3 19.3 C 6.4 km/h
752 01-09-2020 14:35:00 19.4 C 11.01 g/m*3 19.4 C 14.5 km/h
753 01-09-2020 14:40:00 19.6 C 10.64 g/m*3 19.6 C 11.3 km/h
754 01-09-2020 14:45:00 19.7 C 11.04 g/m*3 19.7 C 4.8 km/h
755 01-09-2020 14:50:00 19.8 C 10.59 g/m*3 19.8 C 8.1 km/h
756 01-09-2020 14:55:00 19.8 C 10.08 g/m*3 19.8 C 9.7 km/h
757 01-09-2020 15:00:00 19.7 C 10.02 g/m*3 19.7 C 1.6 km/h
758 01-09-2020 15:05:00 19.7 C 10.02 g/m*3 19.7 C 3.2 km/h
759 01-09-2020 15:10:00 19.8 C 9.91 g/m*3 19.8 C 8.1 km/h
760 01-09-2020 15:15:00 19.8 C 10.25 g/m*3 19.8 C 6.4 km/h
761 01-09-2020 15:20:00 19.8 C 10.08 g/m*3 19.8 C 8.1 km/h
762 01-09-2020 15:25:00 19.9 C 10.65 g/m*3 19.9 C 3.2 km/h
763 01-09-2020 15:30:00 19.9 C 10.48 g/m*3 19.9 C 4.8 km/h
764 01-09-2020 15:35:00 20.1 C 10.78 g/m*3 20.1 C 8.1 km/h
765 01-09-2020 15:40:00 20.3 C 10.9 g/m*3 20.3 C 0 km/h
766 01-09-2020 15:45:00 20.4 C 10.79 g/m*3 20.4 C 4.8 km/h
767 01-09-2020 15:50:00 20.3 C 10.73 g/m*3 20.3 C 1.6 km/h
768 01-09-2020 15:55:00 20.2 C 10.67 g/m*3 20.2 C 8.1 km/h
769 01-09-2020 16:00:00 19.9 C 11.34 g/m*3 19.9 C 3.2 km/h
770 01-09-2020 16:05:00 19.7 C 11.72 g/m*3 19.7 C 0 km/h
771 01-09-2020 16:10:00 19.5 C 11.41 g/m*3 19.5 C 9.7 km/h
772 01-09-2020 16:15:00 19.1 C 11.8 g/m*3 19.1 C 4.8 km/h
773 01-09-2020 16:20:00 18.8 C 11.92 g/m*3 18.8 C 3.2 km/h
774 01-09-2020 16:25:00 18.7 C 12.65 g/m*3 18.7 C 0 km/h
775 01-09-2020 16:30:00 18.6 C 13.05 g/m*3 18.6 C 0 km/h
Sensor: Nr:Datum:Temp:Abs-Feuchte:Windchill:Wind:
Aussen-T/F 776 01-09-2020 16:35:00 18.2 C 11.66 g/m*3 18.2 C 6.4 km/h
777 01-09-2020 16:40:00 17.9 C 11.3 g/m*3 17.9 C 8.1 km/h
778 01-09-2020 16:45:00 17.8 C 11.69 g/m*3 17.8 C 8.1 km/h
779 01-09-2020 16:50:00 17.6 C 11.4 g/m*3 17.6 C 12.9 km/h
780 01-09-2020 16:55:00 17.5 C 11.48 g/m*3 17.5 C 11.3 km/h
781 01-09-2020 17:00:00 17.4 C 11.41 g/m*3 17.4 C 9.7 km/h
782 01-09-2020 17:05:00 17.3 C 11.34 g/m*3 17.3 C 8.1 km/h
783 01-09-2020 17:10:00 17.3 C 11.34 g/m*3 17.3 C 11.3 km/h
784 01-09-2020 17:15:00 17.3 C 11.49 g/m*3 17.3 C 4.8 km/h
785 01-09-2020 17:20:00 17.2 C 11.42 g/m*3 17.2 C 8.1 km/h
786 01-09-2020 17:25:00 17.2 C 11.42 g/m*3 17.2 C 3.2 km/h
787 01-09-2020 17:30:00 17.2 C 11.72 g/m*3 17.2 C 1.6 km/h
788 01-09-2020 17:35:00 17.2 C 11.72 g/m*3 17.2 C 4.8 km/h
789 01-09-2020 17:40:00 17.1 C 11.79 g/m*3 17.1 C 0 km/h
790 01-09-2020 17:45:00 17.1 C 11.94 g/m*3 17.1 C 0 km/h
791 01-09-2020 17:50:00 17 C 11.87 g/m*3 17 C 0 km/h
792 01-09-2020 17:55:00 16.9 C 11.94 g/m*3 16.9 C 1.6 km/h
793 01-09-2020 18:00:00 16.9 C 12.08 g/m*3 16.9 C 0 km/h
794 01-09-2020 18:05:00 16.8 C 12.01 g/m*3 16.8 C 0 km/h
795 01-09-2020 18:10:00 16.7 C 11.8 g/m*3 16.7 C 0 km/h
796 01-09-2020 18:15:00 16.6 C 11.72 g/m*3 16.6 C 0 km/h
797 01-09-2020 18:20:00 16.4 C 11.86 g/m*3 16.4 C 0 km/h
798 01-09-2020 18:25:00 16.4 C 11.86 g/m*3 16.4 C 0 km/h
799 01-09-2020 18:30:00 16.3 C 11.79 g/m*3 16.3 C 0 km/h
800 01-09-2020 18:35:00 16.2 C 11.58 g/m*3 16.2 C 0 km/h
Sensor: Nr:Datum:Temp:Abs-Feuchte:Windchill:Wind:
Aussen-T/F 801 01-09-2020 18:40:00 16.2 C 11.72 g/m*3 16.2 C 1.6 km/h
802 01-09-2020 18:45:00 16.1 C 11.65 g/m*3 16.1 C 3.2 km/h
803 01-09-2020 18:50:00 16 C 11.58 g/m*3 16 C 3.2 km/h
804 01-09-2020 18:55:00 15.9 C 11.51 g/m*3 15.9 C 1.6 km/h
805 01-09-2020 19:00:00 15.9 C 11.51 g/m*3 15.9 C 1.6 km/h
806 01-09-2020 19:05:00 15.9 C 11.78 g/m*3 15.9 C 0 km/h
807 01-09-2020 19:10:00 16.1 C 11.93 g/m*3 16.1 C 1.6 km/h
808 01-09-2020 19:15:00 16.3 C 11.93 g/m*3 16.3 C 4.8 km/h
809 01-09-2020 19:20:00 16.5 C 12.08 g/m*3 16.5 C 3.2 km/h
810 01-09-2020 19:25:00 16.7 C 12.08 g/m*3 16.7 C 1.6 km/h
811 01-09-2020 19:30:00 16.8 C 12.15 g/m*3 16.8 C 1.6 km/h
812 01-09-2020 19:35:00 16.8 C 12.15 g/m*3 16.8 C 3.2 km/h
813 01-09-2020 19:40:00 16.8 C 12.15 g/m*3 16.8 C 0 km/h
814 01-09-2020 19:45:00 16.8 C 12.15 g/m*3 16.8 C 0 km/h
815 01-09-2020 19:50:00 16.8 C 12.15 g/m*3 16.8 C 0 km/h
816 01-09-2020 19:55:00 16.6 C 11.87 g/m*3 16.6 C 0 km/h
817 01-09-2020 20:00:00 16.4 C 11.72 g/m*3 16.4 C 1.6 km/h
818 01-09-2020 20:05:00 16.2 C 11.58 g/m*3 16.2 C 0 km/h
819 01-09-2020 20:10:00 15.9 C 11.38 g/m*3 15.9 C 3.2 km/h
820 01-09-2020 20:15:00 15.6 C 11.17 g/m*3 15.6 C 4.8 km/h
821 01-09-2020 20:20:00 15.4 C 11.17 g/m*3 15.4 C 3.2 km/h
822 01-09-2020 20:25:00 15.2 C 11.16 g/m*3 15.2 C 3.2 km/h
823 01-09-2020 20:30:00 15.1 C 11.09 g/m*3 15.1 C 3.2 km/h
824 01-09-2020 20:35:00 14.9 C 11.09 g/m*3 14.9 C 1.6 km/h
825 01-09-2020 20:40:00 14.8 C 11.02 g/m*3 14.8 C 3.2 km/h
Sensor: Nr:Datum:Temp:Abs-Feuchte:Windchill:Wind:
Aussen-T/F 826 01-09-2020 20:45:00 14.7 C 10.83 g/m*3 14.7 C 4.8 km/h
827 01-09-2020 20:50:00 14.6 C 10.89 g/m*3 14.6 C 0 km/h
828 01-09-2020 20:55:00 14.4 C 10.75 g/m*3 14.4 C 1.6 km/h
829 01-09-2020 21:00:00 14.3 C 10.81 g/m*3 14.3 C 4.8 km/h
830 01-09-2020 21:05:00 14.3 C 10.81 g/m*3 14.3 C 4.8 km/h
831 01-09-2020 21:10:00 14.2 C 10.75 g/m*3 14.2 C 1.6 km/h
832 01-09-2020 21:15:00 14.2 C 10.75 g/m*3 14.2 C 1.6 km/h
833 01-09-2020 21:20:00 14.2 C 10.87 g/m*3 14.2 C 3.2 km/h
834 01-09-2020 21:25:00 14.2 C 10.87 g/m*3 14.2 C 3.2 km/h
835 01-09-2020 21:30:00 14.1 C 10.8 g/m*3 14.1 C 0 km/h
836 01-09-2020 21:35:00 14.1 C 10.8 g/m*3 14.1 C 1.6 km/h
837 01-09-2020 21:40:00 14.1 C 10.8 g/m*3 14.1 C 3.2 km/h
838 01-09-2020 21:45:00 14 C 10.74 g/m*3 14 C 0 km/h
839 01-09-2020 21:50:00 14 C 10.74 g/m*3 14 C 0 km/h
840 01-09-2020 21:55:00 14.1 C 10.92 g/m*3 14.1 C 0 km/h
841 01-09-2020 22:00:00 14.1 C 10.92 g/m*3 14.1 C 0 km/h
842 01-09-2020 22:05:00 14.1 C 10.92 g/m*3 14.1 C 0 km/h
843 01-09-2020 22:10:00 13.9 C 10.79 g/m*3 13.9 C 0 km/h
844 01-09-2020 22:15:00 13.9 C 10.79 g/m*3 13.9 C 0 km/h
845 01-09-2020 22:20:00 13.8 C 10.72 g/m*3 13.8 C 0 km/h
846 01-09-2020 22:25:00 13.8 C 10.72 g/m*3 13.8 C 0 km/h
847 01-09-2020 22:30:00 13.7 C 10.66 g/m*3 13.7 C 0 km/h
848 01-09-2020 22:35:00 13.6 C 10.59 g/m*3 13.6 C 0 km/h
849 01-09-2020 22:40:00 13.5 C 10.53 g/m*3 13.5 C 0 km/h
850 01-09-2020 22:45:00 13.4 C 10.46 g/m*3 13.4 C 0 km/h
Sensor: Nr:Datum:Temp:Abs-Feuchte:Windchill:Wind:
Aussen-T/F 851 01-09-2020 22:50:00 13.3 C 10.51 g/m*3 13.3 C 1.6 km/h
852 01-09-2020 22:55:00 13.3 C 10.51 g/m*3 13.3 C 1.6 km/h
853 01-09-2020 23:00:00 13.3 C 10.51 g/m*3 13.3 C 0 km/h
854 01-09-2020 23:05:00 13.3 C 10.51 g/m*3 13.3 C 0 km/h
855 01-09-2020 23:10:00 13.3 C 10.51 g/m*3 13.3 C 0 km/h
856 01-09-2020 23:15:00 13.3 C 10.63 g/m*3 13.3 C 0 km/h
857 01-09-2020 23:20:00 13.3 C 10.63 g/m*3 13.3 C 0 km/h
858 01-09-2020 23:25:00 13.3 C 10.63 g/m*3 13.3 C 0 km/h
859 01-09-2020 23:30:00 13.3 C 10.63 g/m*3 13.3 C 0 km/h
860 01-09-2020 23:35:00 13.3 C 10.63 g/m*3 13.3 C 0 km/h
861 01-09-2020 23:40:00 13.3 C 10.63 g/m*3 13.3 C 0 km/h
862 01-09-2020 23:45:00 13.3 C 10.63 g/m*3 13.3 C 0 km/h
863 01-09-2020 23:50:00 13.3 C 10.63 g/m*3 13.3 C 0 km/h
864 01-09-2020 23:55:00 13.4 C 10.69 g/m*3 13.4 C 0 km/h
865 02-09-2020 00:00:00 13.4 C 10.69 g/m*3 13.4 C 0 km/h
866 02-09-2020 00:05:00 13.3 C 10.63 g/m*3 13.3 C 0 km/h
867 02-09-2020 00:10:00 13.3 C 10.63 g/m*3 13.3 C 0 km/h
868 02-09-2020 00:15:00 13.3 C 10.74 g/m*3 13.3 C 0 km/h
869 02-09-2020 00:20:00 13.3 C 10.74 g/m*3 13.3 C 0 km/h
870 02-09-2020 00:25:00 13.3 C 10.74 g/m*3 13.3 C 0 km/h
871 02-09-2020 00:30:00 13.3 C 10.74 g/m*3 13.3 C 0 km/h
872 02-09-2020 00:35:00 13.3 C 10.74 g/m*3 13.3 C 0 km/h
873 02-09-2020 00:40:00 13.3 C 10.74 g/m*3 13.3 C 0 km/h
874 02-09-2020 00:45:00 13.3 C 10.74 g/m*3 13.3 C 0 km/h
875 02-09-2020 00:50:00 13.3 C 10.74 g/m*3 13.3 C 0 km/h
Sensor: Nr:Datum:Temp:Abs-Feuchte:Windchill:Wind:
Aussen-T/F 876 02-09-2020 00:55:00 13.3 C 10.74 g/m*3 13.3 C 0 km/h
877 02-09-2020 01:00:00 13.2 C 10.68 g/m*3 13.2 C 0 km/h
878 02-09-2020 01:05:00 13.3 C 10.74 g/m*3 13.3 C 1.6 km/h
879 02-09-2020 01:10:00 13.3 C 10.74 g/m*3 13.3 C 0 km/h
880 02-09-2020 01:15:00 13.2 C 10.68 g/m*3 13.2 C 0 km/h
881 02-09-2020 01:20:00 13.2 C 10.68 g/m*3 13.2 C 0 km/h
882 02-09-2020 01:25:00 13.2 C 10.68 g/m*3 13.2 C 0 km/h
883 02-09-2020 01:30:00 13.2 C 10.68 g/m*3 13.2 C 0 km/h
884 02-09-2020 01:35:00 13.2 C 10.68 g/m*3 13.2 C 0 km/h
885 02-09-2020 01:40:00 13.2 C 10.68 g/m*3 13.2 C 0 km/h
886 02-09-2020 01:45:00 13.2 C 10.68 g/m*3 13.2 C 0 km/h
887 02-09-2020 01:50:00 13.1 C 10.61 g/m*3 13.1 C 0 km/h
888 02-09-2020 01:55:00 13.1 C 10.61 g/m*3 13.1 C 3.2 km/h
889 02-09-2020 02:00:00 13.1 C 10.61 g/m*3 13.1 C 0 km/h
890 02-09-2020 02:05:00 13.1 C 10.61 g/m*3 13.1 C 0 km/h
891 02-09-2020 02:10:00 13 C 10.55 g/m*3 13 C 0 km/h
892 02-09-2020 02:15:00 13 C 10.55 g/m*3 13 C 0 km/h
893 02-09-2020 02:20:00 12.9 C 10.48 g/m*3 12.9 C 0 km/h
894 02-09-2020 02:25:00 12.9 C 10.48 g/m*3 12.9 C 0 km/h
895 02-09-2020 02:30:00 12.9 C 10.48 g/m*3 12.9 C 0 km/h
896 02-09-2020 02:35:00 12.8 C 10.42 g/m*3 12.8 C 0 km/h
897 02-09-2020 02:40:00 12.8 C 10.42 g/m*3 12.8 C 0 km/h
898 02-09-2020 02:45:00 12.8 C 10.42 g/m*3 12.8 C 1.6 km/h
899 02-09-2020 02:50:00 12.8 C 10.53 g/m*3 12.8 C 0 km/h
900 02-09-2020 02:55:00 12.8 C 10.53 g/m*3 12.8 C 1.6 km/h
Sensor: Nr:Datum:Temp:Abs-Feuchte:Windchill:Wind:
Aussen-T/F 901 02-09-2020 03:00:00 12.8 C 10.53 g/m*3 12.8 C 0 km/h
902 02-09-2020 03:05:00 12.8 C 10.53 g/m*3 12.8 C 0 km/h
903 02-09-2020 03:10:00 12.8 C 10.53 g/m*3 12.8 C 1.6 km/h
904 02-09-2020 03:15:00 12.8 C 10.53 g/m*3 12.8 C 0 km/h
905 02-09-2020 03:20:00 12.8 C 10.53 g/m*3 12.8 C 0 km/h
906 02-09-2020 03:25:00 12.8 C 10.53 g/m*3 12.8 C 0 km/h
907 02-09-2020 03:30:00 12.8 C 10.53 g/m*3 12.8 C 0 km/h
908 02-09-2020 03:35:00 12.8 C 10.53 g/m*3 12.8 C 0 km/h
909 02-09-2020 03:40:00 12.8 C 10.53 g/m*3 12.8 C 1.6 km/h
910 02-09-2020 03:45:00 12.8 C 10.53 g/m*3 12.8 C 1.6 km/h
911 02-09-2020 03:50:00 12.8 C 10.53 g/m*3 12.8 C 0 km/h
912 02-09-2020 03:55:00 12.9 C 10.59 g/m*3 12.9 C 0 km/h
913 02-09-2020 04:00:00 12.9 C 10.59 g/m*3 12.9 C 0 km/h
914 02-09-2020 04:05:00 12.8 C 10.53 g/m*3 12.8 C 0 km/h
915 02-09-2020 04:10:00 12.8 C 10.53 g/m*3 12.8 C 0 km/h
916 02-09-2020 04:15:00 12.8 C 10.53 g/m*3 12.8 C 0 km/h
917 02-09-2020 04:20:00 12.7 C 10.46 g/m*3 12.7 C 0 km/h
918 02-09-2020 04:25:00 12.7 C 10.46 g/m*3 12.7 C 0 km/h
919 02-09-2020 04:30:00 12.7 C 10.46 g/m*3 12.7 C 0 km/h
920 02-09-2020 04:35:00 12.7 C 10.46 g/m*3 12.7 C 0 km/h
921 02-09-2020 04:40:00 12.6 C 10.4 g/m*3 12.6 C 0 km/h
922 02-09-2020 04:45:00 12.6 C 10.4 g/m*3 12.6 C 0 km/h
923 02-09-2020 04:50:00 12.6 C 10.4 g/m*3 12.6 C 0 km/h
924 02-09-2020 04:55:00 12.6 C 10.4 g/m*3 12.6 C 0 km/h
925 02-09-2020 05:00:00 12.6 C 10.4 g/m*3 12.6 C 0 km/h
Sensor: Nr:Datum:Temp:Abs-Feuchte:Windchill:Wind:
Aussen-T/F 926 02-09-2020 05:05:00 12.6 C 10.4 g/m*3 12.6 C 0 km/h
927 02-09-2020 05:10:00 12.5 C 10.33 g/m*3 12.5 C 0 km/h
928 02-09-2020 05:15:00 12.5 C 10.33 g/m*3 12.5 C 0 km/h
929 02-09-2020 05:20:00 12.5 C 10.33 g/m*3 12.5 C 0 km/h
930 02-09-2020 05:25:00 12.5 C 10.44 g/m*3 12.5 C 0 km/h
931 02-09-2020 05:30:00 12.5 C 10.44 g/m*3 12.5 C 0 km/h
932 02-09-2020 05:35:00 12.5 C 10.44 g/m*3 12.5 C 0 km/h
933 02-09-2020 05:40:00 12.5 C 10.44 g/m*3 12.5 C 0 km/h
934 02-09-2020 05:45:00 12.5 C 10.44 g/m*3 12.5 C 0 km/h
935 02-09-2020 05:50:00 12.5 C 10.44 g/m*3 12.5 C 0 km/h
936 02-09-2020 05:55:00 12.5 C 10.44 g/m*3 12.5 C 0 km/h
937 02-09-2020 06:00:00 12.5 C 10.44 g/m*3 12.5 C 1.6 km/h
938 02-09-2020 06:05:00 12.5 C 10.44 g/m*3 12.5 C 1.6 km/h
939 02-09-2020 06:10:00 12.4 C 10.38 g/m*3 12.4 C 0 km/h
940 02-09-2020 06:15:00 12.4 C 10.38 g/m*3 12.4 C 0 km/h
941 02-09-2020 06:20:00 12.4 C 10.38 g/m*3 12.4 C 0 km/h
942 02-09-2020 06:25:00 12.4 C 10.38 g/m*3 12.4 C 0 km/h
943 02-09-2020 06:30:00 12.3 C 10.32 g/m*3 12.3 C 0 km/h
944 02-09-2020 06:35:00 12.3 C 10.32 g/m*3 12.3 C 0 km/h
945 02-09-2020 06:40:00 12.2 C 10.25 g/m*3 12.2 C 0 km/h
946 02-09-2020 06:45:00 12.1 C 10.19 g/m*3 12.1 C 0 km/h
947 02-09-2020 06:50:00 12.1 C 10.19 g/m*3 12.1 C 0 km/h
948 02-09-2020 06:55:00 12 C 10.12 g/m*3 12 C 0 km/h
949 02-09-2020 07:00:00 11.9 C 10.06 g/m*3 11.9 C 0 km/h
950 02-09-2020 07:05:00 11.8 C 10 g/m*3 11.8 C 3.2 km/h
Sensor: Nr:Datum:Temp:Abs-Feuchte:Windchill:Wind:
Aussen-T/F 951 02-09-2020 07:10:00 11.7 C 9.94 g/m*3 11.7 C 3.2 km/h
952 02-09-2020 07:15:00 11.7 C 9.94 g/m*3 11.7 C 1.6 km/h
953 02-09-2020 07:20:00 11.7 C 9.94 g/m*3 11.7 C 0 km/h
954 02-09-2020 07:25:00 11.6 C 9.87 g/m*3 11.6 C 0 km/h
955 02-09-2020 07:30:00 11.6 C 9.87 g/m*3 11.6 C 0 km/h
956 02-09-2020 07:35:00 11.5 C 9.81 g/m*3 11.5 C 0 km/h
957 02-09-2020 07:40:00 11.4 C 9.75 g/m*3 11.4 C 0 km/h
958 02-09-2020 07:45:00 11.4 C 9.75 g/m*3 11.4 C 0 km/h
959 02-09-2020 07:50:00 11.4 C 9.75 g/m*3 11.4 C 3.2 km/h
960 02-09-2020 07:55:00 11.4 C 9.75 g/m*3 11.4 C 0 km/h
961 02-09-2020 08:00:00 11.4 C 9.75 g/m*3 11.4 C 3.2 km/h
962 02-09-2020 08:05:00 11.3 C 9.69 g/m*3 11.3 C 0 km/h
963 02-09-2020 08:10:00 11.4 C 9.75 g/m*3 11.4 C 0 km/h
964 02-09-2020 08:15:00 11.4 C 9.75 g/m*3 11.4 C 0 km/h
965 02-09-2020 08:20:00 11.4 C 9.75 g/m*3 11.4 C 0 km/h
966 02-09-2020 08:25:00 11.4 C 9.75 g/m*3 11.4 C 0 km/h
967 02-09-2020 08:30:00 11.4 C 9.75 g/m*3 11.4 C 0 km/h
968 02-09-2020 08:35:00 11.5 C 9.92 g/m*3 11.5 C 0 km/h
969 02-09-2020 08:40:00 11.6 C 9.98 g/m*3 11.6 C 0 km/h
970 02-09-2020 08:45:00 11.6 C 9.98 g/m*3 11.6 C 0 km/h
971 02-09-2020 08:50:00 11.7 C 10.04 g/m*3 11.7 C 0 km/h
972 02-09-2020 08:55:00 11.8 C 10.1 g/m*3 11.8 C 0 km/h
973 02-09-2020 09:00:00 12.1 C 10.29 g/m*3 12.1 C 0 km/h
974 02-09-2020 09:05:00 12.2 C 10.36 g/m*3 12.2 C 0 km/h
975 02-09-2020 09:10:00 12.3 C 10.42 g/m*3 12.3 C 0 km/h
Sensor: Nr:Datum:Temp:Abs-Feuchte:Windchill:Wind:
Aussen-T/F 976 02-09-2020 09:15:00 12.4 C 10.49 g/m*3 12.4 C 0 km/h
977 02-09-2020 09:20:00 12.6 C 10.62 g/m*3 12.6 C 0 km/h
978 02-09-2020 09:25:00 12.7 C 10.69 g/m*3 12.7 C 0 km/h
979 02-09-2020 09:30:00 12.9 C 10.82 g/m*3 12.9 C 0 km/h
980 02-09-2020 09:35:00 13.1 C 10.95 g/m*3 13.1 C 0 km/h
981 02-09-2020 09:40:00 13.2 C 10.91 g/m*3 13.2 C 0 km/h
982 02-09-2020 09:45:00 13.3 C 10.98 g/m*3 13.3 C 3.2 km/h
983 02-09-2020 09:50:00 13.5 C 10.88 g/m*3 13.5 C 0 km/h
984 02-09-2020 09:55:00 13.7 C 11.01 g/m*3 13.7 C 0 km/h
985 02-09-2020 10:00:00 13.9 C 11.03 g/m*3 13.9 C 0 km/h
986 02-09-2020 10:05:00 14.1 C 11.04 g/m*3 14.1 C 1.6 km/h
987 02-09-2020 10:10:00 14.2 C 10.87 g/m*3 14.2 C 1.6 km/h
988 02-09-2020 10:15:00 14.3 C 10.93 g/m*3 14.3 C 0 km/h
989 02-09-2020 10:20:00 14.4 C 11 g/m*3 14.4 C 0 km/h
990 02-09-2020 10:25:00 14.6 C 11.01 g/m*3 14.6 C 0 km/h
991 02-09-2020 10:30:00 14.7 C 11.08 g/m*3 14.7 C 1.6 km/h
992 02-09-2020 10:35:00 14.8 C 11.15 g/m*3 14.8 C 1.6 km/h
993 02-09-2020 10:40:00 14.9 C 10.96 g/m*3 14.9 C 0 km/h
994 02-09-2020 10:45:00 15.1 C 11.09 g/m*3 15.1 C 4.8 km/h
995 02-09-2020 10:50:00 15.2 C 11.03 g/m*3 15.2 C 1.6 km/h
996 02-09-2020 10:55:00 15.4 C 11.04 g/m*3 15.4 C 3.2 km/h
997 02-09-2020 11:00:00 15.6 C 11.04 g/m*3 15.6 C 3.2 km/h
998 02-09-2020 11:05:00 15.8 C 11.17 g/m*3 15.8 C 1.6 km/h
999 02-09-2020 11:10:00 15.9 C 11.1 g/m*3 15.9 C 3.2 km/h
1000 02-09-2020 11:15:00 16.1 C 11.24 g/m*3 16.1 C 0 km/h
Sensor: Nr:Datum:Temp:Abs-Feuchte:Windchill:Wind:
Aussen-T/F 1001 02-09-2020 11:20:00 16.3 C 11.24 g/m*3 16.3 C 3.2 km/h
1002 02-09-2020 11:25:00 16.4 C 11.31 g/m*3 16.4 C 1.6 km/h
1003 02-09-2020 11:30:00 16.5 C 10.95 g/m*3 16.5 C 3.2 km/h
1004 02-09-2020 11:35:00 16.6 C 11.16 g/m*3 16.6 C 0 km/h
1005 02-09-2020 11:40:00 16.7 C 11.23 g/m*3 16.7 C 0 km/h
1006 02-09-2020 11:45:00 16.8 C 11.01 g/m*3 16.8 C 0 km/h
1007 02-09-2020 11:50:00 16.8 C 10.72 g/m*3 16.8 C 3.2 km/h
1008 02-09-2020 11:55:00 16.9 C 10.79 g/m*3 16.9 C 0 km/h
1009 02-09-2020 12:00:00 17.1 C 10.92 g/m*3 17.1 C 6.4 km/h
1010 02-09-2020 12:05:00 17.2 C 10.54 g/m*3 17.2 C 3.2 km/h
1011 02-09-2020 12:10:00 17.3 C 11.34 g/m*3 17.3 C 0 km/h
1012 02-09-2020 12:15:00 17.3 C 11.64 g/m*3 17.3 C 0 km/h
1013 02-09-2020 12:20:00 17.3 C 11.79 g/m*3 17.3 C 0 km/h
1014 02-09-2020 12:25:00 17.2 C 11.86 g/m*3 17.2 C 0 km/h
1015 02-09-2020 12:30:00 17.1 C 11.65 g/m*3 17.1 C 0 km/h
1016 02-09-2020 12:35:00 17 C 11.87 g/m*3 17 C 0 km/h
1017 02-09-2020 12:40:00 16.9 C 11.08 g/m*3 16.9 C 0 km/h
1018 02-09-2020 12:45:00 17.1 C 11.35 g/m*3 17.1 C 0 km/h
1019 02-09-2020 12:50:00 17.3 C 11.64 g/m*3 17.3 C 0 km/h
1020 02-09-2020 12:55:00 17.5 C 10.88 g/m*3 17.5 C 6.4 km/h
1021 02-09-2020 13:00:00 17.9 C 10.23 g/m*3 17.9 C 4.8 km/h
1022 02-09-2020 13:05:00 18.2 C 10.41 g/m*3 18.2 C 3.2 km/h
1023 02-09-2020 13:10:00 18.4 C 10.22 g/m*3 18.4 C 4.8 km/h
1024 02-09-2020 13:15:00 18.7 C 10.57 g/m*3 18.7 C 3.2 km/h
1025 02-09-2020 13:20:00 18.8 C 10.15 g/m*3 18.8 C 8.1 km/h
Sensor: Nr:Datum:Temp:Abs-Feuchte:Windchill:Wind:
Aussen-T/F 1026 02-09-2020 13:25:00 18.8 C 9.99 g/m*3 18.8 C 8.1 km/h
1027 02-09-2020 13:30:00 18.9 C 10.04 g/m*3 18.9 C 4.8 km/h
1028 02-09-2020 13:35:00 18.9 C 10.21 g/m*3 18.9 C 6.4 km/h
1029 02-09-2020 13:40:00 18.9 C 11.18 g/m*3 18.9 C 1.6 km/h
1030 02-09-2020 13:45:00 19 C 11.9 g/m*3 19 C 1.6 km/h
1031 02-09-2020 13:50:00 18.9 C 11.5 g/m*3 18.9 C 0 km/h
1032 02-09-2020 13:55:00 18.8 C 10.15 g/m*3 18.8 C 0 km/h
1033 02-09-2020 14:00:00 18.9 C 10.04 g/m*3 18.9 C 4.8 km/h
1034 02-09-2020 14:05:00 19.2 C 9.89 g/m*3 19.2 C 6.4 km/h
1035 02-09-2020 14:10:00 19.3 C 9.45 g/m*3 19.3 C 3.2 km/h
1036 02-09-2020 14:15:00 19.4 C 9.68 g/m*3 19.4 C 0 km/h
1037 02-09-2020 14:20:00 19.6 C 9.96 g/m*3 19.6 C 4.8 km/h
1038 02-09-2020 14:25:00 19.7 C 9.51 g/m*3 19.7 C 6.4 km/h
1039 02-09-2020 14:30:00 19.9 C 9.62 g/m*3 19.9 C 8.1 km/h
1040 02-09-2020 14:35:00 20 C 9.33 g/m*3 20 C 4.8 km/h
1041 02-09-2020 14:40:00 20.1 C 9.56 g/m*3 20.1 C 1.6 km/h
1042 02-09-2020 14:45:00 20.3 C 9.32 g/m*3 20.3 C 8.1 km/h
1043 02-09-2020 14:50:00 20.6 C 9.49 g/m*3 20.6 C 11.3 km/h
1044 02-09-2020 14:55:00 20.9 C 9.83 g/m*3 20.9 C 9.7 km/h
1045 02-09-2020 15:00:00 21 C 9.34 g/m*3 21 C 8.1 km/h
1046 02-09-2020 15:05:00 20.9 C 9.47 g/m*3 20.9 C 4.8 km/h
1047 02-09-2020 15:10:00 20.9 C 9.47 g/m*3 20.9 C 6.4 km/h
1048 02-09-2020 15:15:00 20.9 C 9.47 g/m*3 20.9 C 9.7 km/h
1049 02-09-2020 15:20:00 21 C 9.89 g/m*3 21 C 6.4 km/h
1050 02-09-2020 15:25:00 21 C 9.71 g/m*3 21 C 1.6 km/h
Sensor: Nr:Datum:Temp:Abs-Feuchte:Windchill:Wind:
Aussen-T/F 1051 02-09-2020 15:30:00 21 C 9.53 g/m*3 21 C 6.4 km/h
1052 02-09-2020 15:35:00 21 C 9.16 g/m*3 21 C 4.8 km/h
1053 02-09-2020 15:40:00 21.2 C 9.27 g/m*3 21.2 C 9.7 km/h
1054 02-09-2020 15:45:00 21.3 C 9.13 g/m*3 21.3 C 8.1 km/h
1055 02-09-2020 15:50:00 21.4 C 9.19 g/m*3 21.4 C 4.8 km/h
1056 02-09-2020 15:55:00 21.6 C 9.67 g/m*3 21.6 C 6.4 km/h
1057 02-09-2020 16:00:00 21.6 C 8.91 g/m*3 21.6 C 11.3 km/h
1058 02-09-2020 16:05:00 21.7 C 9.16 g/m*3 21.7 C 8.1 km/h
1059 02-09-2020 16:10:00 21.7 C 8.77 g/m*3 21.7 C 14.5 km/h
1060 02-09-2020 16:15:00 21.7 C 8.77 g/m*3 21.7 C 8.1 km/h
1061 02-09-2020 16:20:00 21.8 C 9.21 g/m*3 21.8 C 0 km/h
1062 02-09-2020 16:25:00 21.9 C 9.07 g/m*3 21.9 C 3.2 km/h
1063 02-09-2020 16:30:00 21.9 C 10.42 g/m*3 21.9 C 0 km/h
1064 02-09-2020 16:35:00 21.9 C 9.65 g/m*3 21.9 C 0 km/h
1065 02-09-2020 16:40:00 21.9 C 9.65 g/m*3 21.9 C 0 km/h
1066 02-09-2020 16:45:00 22.3 C 9.87 g/m*3 22.3 C 3.2 km/h
1067 02-09-2020 16:50:00 22.7 C 10.3 g/m*3 22.7 C 0 km/h
1068 02-09-2020 16:55:00 23.2 C 9.36 g/m*3 23.2 C 1.6 km/h
1069 02-09-2020 17:00:00 23.4 C 10.51 g/m*3 23.4 C 0 km/h
1070 02-09-2020 17:05:00 23.3 C 11.71 g/m*3 23.3 C 0 km/h
1071 02-09-2020 17:10:00 23.2 C 11.85 g/m*3 23.2 C 0 km/h
1072 02-09-2020 17:15:00 23.4 C 10.3 g/m*3 23.4 C 0 km/h
1073 02-09-2020 17:20:00 23.7 C 8.98 g/m*3 23.7 C 4.8 km/h
1074 02-09-2020 17:25:00 23.8 C 8.6 g/m*3 23.8 C 1.6 km/h
1075 02-09-2020 17:30:00 23.8 C 9.03 g/m*3 23.8 C 9.7 km/h
Sensor: Nr:Datum:Temp:Abs-Feuchte:Windchill:Wind:
Aussen-T/F 1076 02-09-2020 17:35:00 23.4 C 9.04 g/m*3 23.4 C 11.3 km/h
1077 02-09-2020 17:40:00 22.8 C 8.94 g/m*3 22.8 C 9.7 km/h
1078 02-09-2020 17:45:00 22.3 C 9.28 g/m*3 22.3 C 3.2 km/h
1079 02-09-2020 17:50:00 21.9 C 9.65 g/m*3 21.9 C 4.8 km/h
1080 02-09-2020 17:55:00 21.6 C 10.81 g/m*3 21.6 C 1.6 km/h
1081 02-09-2020 18:00:00 21.2 C 10.75 g/m*3 21.2 C 3.2 km/h
1082 02-09-2020 18:05:00 20.7 C 10.98 g/m*3 20.7 C 1.6 km/h
1083 02-09-2020 18:10:00 20.2 C 11.02 g/m*3 20.2 C 0 km/h
1084 02-09-2020 18:15:00 19.9 C 11.17 g/m*3 19.9 C 0 km/h
1085 02-09-2020 18:20:00 19.7 C 11.21 g/m*3 19.7 C 4.8 km/h
1086 02-09-2020 18:25:00 19.6 C 11.48 g/m*3 19.6 C 0 km/h
1087 02-09-2020 18:30:00 19.6 C 11.65 g/m*3 19.6 C 0 km/h
1088 02-09-2020 18:35:00 19.7 C 11.38 g/m*3 19.7 C 0 km/h
1089 02-09-2020 18:40:00 19.8 C 11.61 g/m*3 19.8 C 0 km/h
1090 02-09-2020 18:45:00 19.9 C 11.51 g/m*3 19.9 C 0 km/h
1091 02-09-2020 18:50:00 19.8 C 11.44 g/m*3 19.8 C 0 km/h
1092 02-09-2020 18:55:00 19.7 C 11.38 g/m*3 19.7 C 0 km/h
1093 02-09-2020 19:00:00 19.4 C 11.35 g/m*3 19.4 C 0 km/h
1094 02-09-2020 19:05:00 19.2 C 9.73 g/m*3 19.2 C 0 km/h
1095 02-09-2020 19:10:00 19.3 C 11.28 g/m*3 19.3 C 1.6 km/h
1096 02-09-2020 19:15:00 19.2 C 11.21 g/m*3 19.2 C 3.2 km/h
1097 02-09-2020 19:20:00 19.1 C 10.98 g/m*3 19.1 C 4.8 km/h
1098 02-09-2020 19:25:00 18.8 C 10.79 g/m*3 18.8 C 4.8 km/h
1099 02-09-2020 19:30:00 18.6 C 10.66 g/m*3 18.6 C 0 km/h
1100 02-09-2020 19:35:00 18.3 C 10.48 g/m*3 18.3 C 0 km/h
Sensor: Nr:Datum:Temp:Abs-Feuchte:Windchill:Wind:
Aussen-T/F 1101 02-09-2020 19:40:00 18.1 C 10.66 g/m*3 18.1 C 6.4 km/h
1102 02-09-2020 19:45:00 17.8 C 10.32 g/m*3 17.8 C 8.1 km/h
1103 02-09-2020 19:50:00 17.6 C 10.2 g/m*3 17.6 C 8.1 km/h
1104 02-09-2020 19:55:00 17.3 C 10.02 g/m*3 17.3 C 8.1 km/h
1105 02-09-2020 20:00:00 17.1 C 9.9 g/m*3 17.1 C 8.1 km/h
1106 02-09-2020 20:05:00 16.9 C 9.64 g/m*3 16.9 C 8.1 km/h
1107 02-09-2020 20:10:00 16.7 C 9.66 g/m*3 16.7 C 8.1 km/h
1108 02-09-2020 20:15:00 16.5 C 9.69 g/m*3 16.5 C 8.1 km/h
1109 02-09-2020 20:20:00 16.3 C 9.43 g/m*3 16.3 C 8.1 km/h
1110 02-09-2020 20:25:00 16.2 C 9.38 g/m*3 16.2 C 8.1 km/h
1111 02-09-2020 20:30:00 16.1 C 9.46 g/m*3 16.1 C 6.4 km/h
1112 02-09-2020 20:35:00 16.1 C 9.46 g/m*3 16.1 C 8.1 km/h
1113 02-09-2020 20:40:00 15.9 C 9.34 g/m*3 15.9 C 6.4 km/h
1114 02-09-2020 20:45:00 15.8 C 9.56 g/m*3 15.8 C 6.4 km/h
1115 02-09-2020 20:50:00 15.7 C 9.5 g/m*3 15.7 C 6.4 km/h
1116 02-09-2020 20:55:00 15.7 C 9.77 g/m*3 15.7 C 6.4 km/h
1117 02-09-2020 21:00:00 15.5 C 9.52 g/m*3 15.5 C 0 km/h
1118 02-09-2020 21:05:00 15.4 C 9.46 g/m*3 15.4 C 0 km/h
1119 02-09-2020 21:10:00 15.3 C 9.66 g/m*3 15.3 C 0 km/h
1120 02-09-2020 21:15:00 15.2 C 9.73 g/m*3 15.2 C 0 km/h
1121 02-09-2020 21:20:00 15.1 C 9.8 g/m*3 15.1 C 0 km/h
1122 02-09-2020 21:25:00 14.8 C 9.63 g/m*3 14.8 C 0 km/h
1123 02-09-2020 21:30:00 14.7 C 9.69 g/m*3 14.7 C 0 km/h
1124 02-09-2020 21:35:00 14.5 C 9.58 g/m*3 14.5 C 0 km/h
1125 02-09-2020 21:40:00 14.4 C 9.77 g/m*3 14.4 C 0 km/h
Sensor: Nr:Datum:Temp:Abs-Feuchte:Windchill:Wind:
Aussen-T/F 1126 02-09-2020 21:45:00 14.3 C 9.71 g/m*3 14.3 C 0 km/h
1127 02-09-2020 21:50:00 14.2 C 9.89 g/m*3 14.2 C 0 km/h
1128 02-09-2020 21:55:00 14.2 C 9.89 g/m*3 14.2 C 0 km/h
1129 02-09-2020 22:00:00 14.2 C 9.89 g/m*3 14.2 C 0 km/h
1130 02-09-2020 22:05:00 14.1 C 9.95 g/m*3 14.1 C 0 km/h
1131 02-09-2020 22:10:00 14.1 C 9.95 g/m*3 14.1 C 0 km/h
1132 02-09-2020 22:15:00 14.2 C 10.14 g/m*3 14.2 C 0 km/h
1133 02-09-2020 22:20:00 14.2 C 10.01 g/m*3 14.2 C 0 km/h
1134 02-09-2020 22:25:00 14.2 C 10.01 g/m*3 14.2 C 0 km/h
1135 02-09-2020 22:30:00 14.2 C 10.14 g/m*3 14.2 C 0 km/h
1136 02-09-2020 22:35:00 14.2 C 10.14 g/m*3 14.2 C 0 km/h
1137 02-09-2020 22:40:00 14.2 C 10.14 g/m*3 14.2 C 0 km/h
1138 02-09-2020 22:45:00 14.2 C 10.14 g/m*3 14.2 C 0 km/h
1139 02-09-2020 22:50:00 14.1 C 9.95 g/m*3 14.1 C 0 km/h
1140 02-09-2020 22:55:00 14.1 C 10.07 g/m*3 14.1 C 0 km/h
1141 02-09-2020 23:00:00 14 C 10.01 g/m*3 14 C 0 km/h
1142 02-09-2020 23:05:00 13.9 C 9.95 g/m*3 13.9 C 0 km/h
1143 02-09-2020 23:10:00 13.9 C 9.95 g/m*3 13.9 C 0 km/h
1144 02-09-2020 23:15:00 13.8 C 9.89 g/m*3 13.8 C 0 km/h
1145 02-09-2020 23:20:00 13.7 C 9.71 g/m*3 13.7 C 0 km/h
1146 02-09-2020 23:25:00 13.6 C 9.77 g/m*3 13.6 C 0 km/h
1147 02-09-2020 23:30:00 13.5 C 9.59 g/m*3 13.5 C 0 km/h
1148 02-09-2020 23:35:00 13.3 C 9.47 g/m*3 13.3 C 0 km/h
1149 02-09-2020 23:40:00 13.2 C 9.53 g/m*3 13.2 C 0 km/h
1150 02-09-2020 23:45:00 13.2 C 9.53 g/m*3 13.2 C 0 km/h
Sensor: Nr:Datum:Temp:Abs-Feuchte:Windchill:Wind:
Aussen-T/F 1151 02-09-2020 23:50:00 13 C 9.3 g/m*3 13 C 0 km/h
1152 02-09-2020 23:55:00 12.9 C 9.35 g/m*3 12.9 C 0 km/h
1153 03-09-2020 00:00:00 12.8 C 9.41 g/m*3 12.8 C 0 km/h
1154 03-09-2020 00:05:00 12.8 C 9.41 g/m*3 12.8 C 0 km/h
1155 03-09-2020 00:10:00 12.7 C 9.35 g/m*3 12.7 C 0 km/h
1156 03-09-2020 00:15:00 12.6 C 9.29 g/m*3 12.6 C 0 km/h
1157 03-09-2020 00:20:00 12.4 C 9.29 g/m*3 12.4 C 0 km/h
1158 03-09-2020 00:25:00 12.4 C 9.29 g/m*3 12.4 C 0 km/h
1159 03-09-2020 00:30:00 12.3 C 9.23 g/m*3 12.3 C 0 km/h
1160 03-09-2020 00:35:00 12.2 C 9.17 g/m*3 12.2 C 0 km/h
1161 03-09-2020 00:40:00 12.1 C 9.22 g/m*3 12.1 C 0 km/h
1162 03-09-2020 00:45:00 11.9 C 9.11 g/m*3 11.9 C 0 km/h
1163 03-09-2020 00:50:00 11.9 C 9.11 g/m*3 11.9 C 0 km/h
1164 03-09-2020 00:55:00 11.8 C 9.05 g/m*3 11.8 C 0 km/h
1165 03-09-2020 01:00:00 11.8 C 9.16 g/m*3 11.8 C 0 km/h
1166 03-09-2020 01:05:00 11.7 C 9.1 g/m*3 11.7 C 0 km/h
1167 03-09-2020 01:10:00 11.6 C 9.04 g/m*3 11.6 C 0 km/h
1168 03-09-2020 01:15:00 11.6 C 9.04 g/m*3 11.6 C 0 km/h
1169 03-09-2020 01:20:00 11.5 C 8.99 g/m*3 11.5 C 0 km/h
1170 03-09-2020 01:25:00 11.4 C 9.03 g/m*3 11.4 C 0 km/h
1171 03-09-2020 01:30:00 11.3 C 8.98 g/m*3 11.3 C 0 km/h
1172 03-09-2020 01:35:00 11.3 C 8.98 g/m*3 11.3 C 0 km/h
1173 03-09-2020 01:40:00 11.2 C 8.92 g/m*3 11.2 C 0 km/h
1174 03-09-2020 01:45:00 11.2 C 8.92 g/m*3 11.2 C 0 km/h
1175 03-09-2020 01:50:00 11.1 C 8.96 g/m*3 11.1 C 0 km/h
Sensor: Nr:Datum:Temp:Abs-Feuchte:Windchill:Wind:
Aussen-T/F 1176 03-09-2020 01:55:00 10.9 C 8.85 g/m*3 10.9 C 0 km/h
1177 03-09-2020 02:00:00 10.8 C 8.8 g/m*3 10.8 C 0 km/h
1178 03-09-2020 02:05:00 10.8 C 8.8 g/m*3 10.8 C 0 km/h
1179 03-09-2020 02:10:00 10.7 C 8.74 g/m*3 10.7 C 0 km/h
1180 03-09-2020 02:15:00 10.7 C 8.74 g/m*3 10.7 C 0 km/h
1181 03-09-2020 02:20:00 10.6 C 8.78 g/m*3 10.6 C 0 km/h
1182 03-09-2020 02:25:00 10.6 C 8.78 g/m*3 10.6 C 0 km/h
1183 03-09-2020 02:30:00 10.5 C 8.73 g/m*3 10.5 C 0 km/h
1184 03-09-2020 02:35:00 10.4 C 8.67 g/m*3 10.4 C 0 km/h
1185 03-09-2020 02:40:00 10.4 C 8.67 g/m*3 10.4 C 0 km/h
1186 03-09-2020 02:45:00 10.4 C 8.77 g/m*3 10.4 C 0 km/h
1187 03-09-2020 02:50:00 10.4 C 8.77 g/m*3 10.4 C 0 km/h
1188 03-09-2020 02:55:00 10.4 C 8.77 g/m*3 10.4 C 0 km/h
1189 03-09-2020 03:00:00 10.4 C 8.77 g/m*3 10.4 C 0 km/h
1190 03-09-2020 03:05:00 10.4 C 8.77 g/m*3 10.4 C 0 km/h
1191 03-09-2020 03:10:00 10.4 C 8.77 g/m*3 10.4 C 0 km/h
1192 03-09-2020 03:15:00 10.3 C 8.71 g/m*3 10.3 C 0 km/h
1193 03-09-2020 03:20:00 10.3 C 8.71 g/m*3 10.3 C 0 km/h
1194 03-09-2020 03:25:00 10.3 C 8.81 g/m*3 10.3 C 0 km/h
1195 03-09-2020 03:30:00 10.2 C 8.76 g/m*3 10.2 C 0 km/h
1196 03-09-2020 03:35:00 10.2 C 8.76 g/m*3 10.2 C 0 km/h
1197 03-09-2020 03:40:00 10.2 C 8.76 g/m*3 10.2 C 0 km/h
1198 03-09-2020 03:45:00 10.2 C 8.76 g/m*3 10.2 C 0 km/h
1199 03-09-2020 03:50:00 10.2 C 8.76 g/m*3 10.2 C 0 km/h
1200 03-09-2020 03:55:00 10.2 C 8.76 g/m*3 10.2 C 0 km/h
Sensor: Nr:Datum:Temp:Abs-Feuchte:Windchill:Wind:
Aussen-T/F 1201 03-09-2020 04:00:00 10.1 C 8.7 g/m*3 10.1 C 0 km/h
1202 03-09-2020 04:05:00 10.1 C 8.7 g/m*3 10.1 C 0 km/h
1203 03-09-2020 04:10:00 10.1 C 8.7 g/m*3 10.1 C 0 km/h
1204 03-09-2020 04:15:00 10 C 8.64 g/m*3 10 C 0 km/h
1205 03-09-2020 04:20:00 10 C 8.64 g/m*3 10 C 0 km/h
1206 03-09-2020 04:25:00 10.1 C 8.79 g/m*3 10.1 C 0 km/h
1207 03-09-2020 04:30:00 10.1 C 8.79 g/m*3 10.1 C 0 km/h
1208 03-09-2020 04:35:00 10.1 C 8.79 g/m*3 10.1 C 0 km/h
1209 03-09-2020 04:40:00 10.1 C 8.79 g/m*3 10.1 C 0 km/h
1210 03-09-2020 04:45:00 10.1 C 8.79 g/m*3 10.1 C 0 km/h
1211 03-09-2020 04:50:00 10 C 8.74 g/m*3 10 C 0 km/h
1212 03-09-2020 04:55:00 9.9 C 8.68 g/m*3 9.9 C 0 km/h
1213 03-09-2020 05:00:00 9.9 C 8.68 g/m*3 9.9 C 0 km/h
1214 03-09-2020 05:05:00 9.9 C 8.68 g/m*3 9.9 C 0 km/h
1215 03-09-2020 05:10:00 9.8 C 8.63 g/m*3 9.8 C 0 km/h
1216 03-09-2020 05:15:00 9.8 C 8.63 g/m*3 9.8 C 0 km/h
1217 03-09-2020 05:20:00 9.7 C 8.57 g/m*3 9.7 C 0 km/h
1218 03-09-2020 05:25:00 9.7 C 8.57 g/m*3 9.7 C 0 km/h
1219 03-09-2020 05:30:00 9.7 C 8.57 g/m*3 9.7 C 0 km/h
1220 03-09-2020 05:35:00 9.8 C 8.72 g/m*3 9.8 C 0 km/h
1221 03-09-2020 05:40:00 9.8 C 8.72 g/m*3 9.8 C 0 km/h
1222 03-09-2020 05:45:00 9.9 C 8.78 g/m*3 9.9 C 1.6 km/h
1223 03-09-2020 05:50:00 10 C 8.83 g/m*3 10 C 1.6 km/h
1224 03-09-2020 05:55:00 10.1 C 8.89 g/m*3 10.1 C 0 km/h
1225 03-09-2020 06:00:00 10.1 C 8.89 g/m*3 10.1 C 0 km/h
Sensor: Nr:Datum:Temp:Abs-Feuchte:Windchill:Wind:
Aussen-T/F 1226 03-09-2020 06:05:00 10.1 C 8.89 g/m*3 10.1 C 0 km/h
1227 03-09-2020 06:10:00 10.1 C 8.89 g/m*3 10.1 C 0 km/h
1228 03-09-2020 06:15:00 10.1 C 8.89 g/m*3 10.1 C 0 km/h
1229 03-09-2020 06:20:00 10.1 C 8.89 g/m*3 10.1 C 0 km/h
1230 03-09-2020 06:25:00 10.1 C 8.89 g/m*3 10.1 C 1.6 km/h
1231 03-09-2020 06:30:00 10.2 C 8.95 g/m*3 10.2 C 0 km/h
1232 03-09-2020 06:35:00 10.2 C 8.95 g/m*3 10.2 C 0 km/h
1233 03-09-2020 06:40:00 10.2 C 8.95 g/m*3 10.2 C 0 km/h
1234 03-09-2020 06:45:00 10.2 C 8.95 g/m*3 10.2 C 0 km/h
1235 03-09-2020 06:50:00 10.2 C 8.95 g/m*3 10.2 C 0 km/h
1236 03-09-2020 06:55:00 10.1 C 8.89 g/m*3 10.1 C 0 km/h
1237 03-09-2020 07:00:00 10.2 C 8.95 g/m*3 10.2 C 1.6 km/h
1238 03-09-2020 07:05:00 10.2 C 8.95 g/m*3 10.2 C 0 km/h
1239 03-09-2020 07:10:00 10.2 C 8.95 g/m*3 10.2 C 0 km/h
1240 03-09-2020 07:15:00 10.3 C 9 g/m*3 10.3 C 0 km/h
1241 03-09-2020 07:20:00 10.3 C 9 g/m*3 10.3 C 0 km/h
1242 03-09-2020 07:25:00 10.3 C 9 g/m*3 10.3 C 0 km/h
1243 03-09-2020 07:30:00 10.4 C 9.06 g/m*3 10.4 C 0 km/h
1244 03-09-2020 07:35:00 10.4 C 9.06 g/m*3 10.4 C 0 km/h
1245 03-09-2020 07:40:00 10.4 C 9.06 g/m*3 10.4 C 0 km/h
1246 03-09-2020 07:45:00 10.5 C 9.12 g/m*3 10.5 C 0 km/h
1247 03-09-2020 07:50:00 10.5 C 9.12 g/m*3 10.5 C 0 km/h
1248 03-09-2020 07:55:00 10.6 C 9.17 g/m*3 10.6 C 0 km/h
1249 03-09-2020 08:00:00 10.7 C 9.23 g/m*3 10.7 C 0 km/h
1250 03-09-2020 08:05:00 10.7 C 9.23 g/m*3 10.7 C 0 km/h
Sensor: Nr:Datum:Temp:Abs-Feuchte:Windchill:Wind:
Aussen-T/F 1251 03-09-2020 08:10:00 10.8 C 9.29 g/m*3 10.8 C 0 km/h
1252 03-09-2020 08:15:00 10.9 C 9.35 g/m*3 10.9 C 0 km/h
1253 03-09-2020 08:20:00 11.1 C 9.47 g/m*3 11.1 C 0 km/h
1254 03-09-2020 08:25:00 11.2 C 9.53 g/m*3 11.2 C 1.6 km/h
1255 03-09-2020 08:30:00 11.3 C 9.49 g/m*3 11.3 C 0 km/h
1256 03-09-2020 08:35:00 11.4 C 9.55 g/m*3 11.4 C 0 km/h
1257 03-09-2020 08:40:00 11.6 C 9.67 g/m*3 11.6 C 0 km/h
1258 03-09-2020 08:45:00 11.7 C 9.62 g/m*3 11.7 C 1.6 km/h
1259 03-09-2020 08:50:00 11.8 C 9.58 g/m*3 11.8 C 4.8 km/h
1260 03-09-2020 08:55:00 11.9 C 9.64 g/m*3 11.9 C 1.6 km/h
1261 03-09-2020 09:00:00 12 C 9.59 g/m*3 12 C 3.2 km/h
1262 03-09-2020 09:05:00 12.1 C 9.65 g/m*3 12.1 C 1.6 km/h
1263 03-09-2020 09:10:00 12.2 C 9.71 g/m*3 12.2 C 0 km/h
1264 03-09-2020 09:15:00 12.3 C 9.66 g/m*3 12.3 C 1.6 km/h
1265 03-09-2020 09:20:00 12.5 C 9.78 g/m*3 12.5 C 1.6 km/h
1266 03-09-2020 09:25:00 12.7 C 9.91 g/m*3 12.7 C 0 km/h
1267 03-09-2020 09:30:00 12.9 C 10.03 g/m*3 12.9 C 1.6 km/h
1268 03-09-2020 09:35:00 13 C 9.98 g/m*3 13 C 1.6 km/h
1269 03-09-2020 09:40:00 13.2 C 10.1 g/m*3 13.2 C 3.2 km/h
1270 03-09-2020 09:45:00 13.3 C 10.17 g/m*3 13.3 C 1.6 km/h
1271 03-09-2020 09:50:00 13.4 C 10.11 g/m*3 13.4 C 0 km/h
1272 03-09-2020 09:55:00 13.6 C 10.24 g/m*3 13.6 C 0 km/h
1273 03-09-2020 10:00:00 13.7 C 10.18 g/m*3 13.7 C 1.6 km/h
1274 03-09-2020 10:05:00 13.8 C 10.13 g/m*3 13.8 C 3.2 km/h
1275 03-09-2020 10:10:00 13.9 C 10.31 g/m*3 13.9 C 0 km/h
Sensor: Nr:Datum:Temp:Abs-Feuchte:Windchill:Wind:
Aussen-T/F 1276 03-09-2020 10:15:00 14.1 C 10.32 g/m*3 14.1 C 1.6 km/h
1277 03-09-2020 10:20:00 14.2 C 10.26 g/m*3 14.2 C 0 km/h
1278 03-09-2020 10:25:00 14.4 C 10.38 g/m*3 14.4 C 0 km/h
1279 03-09-2020 10:30:00 14.7 C 10.58 g/m*3 14.7 C 0 km/h
1280 03-09-2020 10:35:00 14.9 C 10.58 g/m*3 14.9 C 0 km/h
1281 03-09-2020 10:40:00 15.1 C 10.71 g/m*3 15.1 C 0 km/h
1282 03-09-2020 10:45:00 15.3 C 10.71 g/m*3 15.3 C 0 km/h
1283 03-09-2020 10:50:00 15.5 C 10.84 g/m*3 15.5 C 0 km/h
1284 03-09-2020 10:55:00 15.7 C 10.97 g/m*3 15.7 C 0 km/h
1285 03-09-2020 11:00:00 16 C 11.04 g/m*3 16 C 0 km/h
1286 03-09-2020 11:05:00 16.3 C 11.1 g/m*3 16.3 C 1.6 km/h
1287 03-09-2020 11:10:00 16.7 C 11.08 g/m*3 16.7 C 4.8 km/h
1288 03-09-2020 11:15:00 17.1 C 11.21 g/m*3 17.1 C 4.8 km/h
1289 03-09-2020 11:20:00 17.4 C 11.12 g/m*3 17.4 C 9.7 km/h
1290 03-09-2020 11:25:00 17.7 C 11.16 g/m*3 17.7 C 11.3 km/h
1291 03-09-2020 11:30:00 18 C 11.06 g/m*3 18 C 9.7 km/h
1292 03-09-2020 11:35:00 18.2 C 11.19 g/m*3 18.2 C 8.1 km/h
1293 03-09-2020 11:40:00 18.4 C 11.17 g/m*3 18.4 C 8.1 km/h
1294 03-09-2020 11:45:00 18.5 C 10.92 g/m*3 18.5 C 8.1 km/h
1295 03-09-2020 11:50:00 18.6 C 11.14 g/m*3 18.6 C 6.4 km/h
1296 03-09-2020 11:55:00 18.7 C 11.21 g/m*3 18.7 C 9.7 km/h
1297 03-09-2020 12:00:00 18.8 C 11.11 g/m*3 18.8 C 8.1 km/h
1298 03-09-2020 12:05:00 18.8 C 10.95 g/m*3 18.8 C 6.4 km/h
1299 03-09-2020 12:10:00 19.1 C 11.31 g/m*3 19.1 C 4.8 km/h
1300 03-09-2020 12:15:00 19.2 C 11.21 g/m*3 19.2 C 4.8 km/h
Sensor: Nr:Datum:Temp:Abs-Feuchte:Windchill:Wind:
Aussen-T/F 1301 03-09-2020 12:20:00 19.2 C 11.21 g/m*3 19.2 C 11.3 km/h
1302 03-09-2020 12:25:00 19.3 C 11.11 g/m*3 19.3 C 8.1 km/h
1303 03-09-2020 12:30:00 19.4 C 11.01 g/m*3 19.4 C 11.3 km/h
1304 03-09-2020 12:35:00 19.5 C 11.08 g/m*3 19.5 C 8.1 km/h
1305 03-09-2020 12:40:00 19.6 C 11.14 g/m*3 19.6 C 9.7 km/h
1306 03-09-2020 12:45:00 19.7 C 11.04 g/m*3 19.7 C 8.1 km/h
1307 03-09-2020 12:50:00 19.7 C 11.21 g/m*3 19.7 C 9.7 km/h
1308 03-09-2020 12:55:00 19.7 C 11.04 g/m*3 19.7 C 11.3 km/h
1309 03-09-2020 13:00:00 19.7 C 10.87 g/m*3 19.7 C 11.3 km/h
1310 03-09-2020 13:05:00 19.6 C 11.14 g/m*3 19.6 C 9.7 km/h
1311 03-09-2020 13:10:00 19.5 C 11.08 g/m*3 19.5 C 8.1 km/h
1312 03-09-2020 13:15:00 19.5 C 11.08 g/m*3 19.5 C 9.7 km/h
1313 03-09-2020 13:20:00 19.3 C 10.95 g/m*3 19.3 C 11.3 km/h
1314 03-09-2020 13:25:00 19.3 C 11.11 g/m*3 19.3 C 9.7 km/h
1315 03-09-2020 13:30:00 19.1 C 11.31 g/m*3 19.1 C 6.4 km/h
1316 03-09-2020 13:35:00 18.9 C 11.83 g/m*3 18.9 C 3.2 km/h
1317 03-09-2020 13:40:00 18.8 C 12.24 g/m*3 18.8 C 8.1 km/h
1318 03-09-2020 13:45:00 18.6 C 12.26 g/m*3 18.6 C 4.8 km/h
1319 03-09-2020 13:50:00 18.4 C 12.43 g/m*3 18.4 C 1.6 km/h
1320 03-09-2020 13:55:00 18.3 C 12.35 g/m*3 18.3 C 4.8 km/h
1321 03-09-2020 14:00:00 18.1 C 12.21 g/m*3 18.1 C 8.1 km/h
1322 03-09-2020 14:05:00 17.9 C 11.91 g/m*3 17.9 C 6.4 km/h
1323 03-09-2020 14:10:00 17.8 C 11.99 g/m*3 17.8 C 8.1 km/h
1324 03-09-2020 14:15:00 17.7 C 11.77 g/m*3 17.7 C 6.4 km/h
1325 03-09-2020 14:20:00 17.6 C 11.85 g/m*3 17.6 C 8.1 km/h
Sensor: Nr:Datum:Temp:Abs-Feuchte:Windchill:Wind:
Aussen-T/F 1326 03-09-2020 14:25:00 17.6 C 11.85 g/m*3 17.6 C 8.1 km/h
1327 03-09-2020 14:30:00 17.5 C 11.63 g/m*3 17.5 C 3.2 km/h
1328 03-09-2020 14:35:00 17.6 C 11.85 g/m*3 17.6 C 0 km/h
1329 03-09-2020 14:40:00 17.7 C 11.92 g/m*3 17.7 C 0 km/h
1330 03-09-2020 14:45:00 17.7 C 11.92 g/m*3 17.7 C 0 km/h
1331 03-09-2020 14:50:00 17.8 C 11.84 g/m*3 17.8 C 3.2 km/h
1332 03-09-2020 14:55:00 17.8 C 11.99 g/m*3 17.8 C 0 km/h
1333 03-09-2020 15:00:00 17.9 C 12.06 g/m*3 17.9 C 1.6 km/h
1334 03-09-2020 15:05:00 17.9 C 12.06 g/m*3 17.9 C 4.8 km/h
1335 03-09-2020 15:10:00 17.9 C 12.21 g/m*3 17.9 C 1.6 km/h
1336 03-09-2020 15:15:00 18.1 C 12.67 g/m*3 18.1 C 0 km/h
1337 03-09-2020 15:20:00 18.1 C 12.67 g/m*3 18.1 C 0 km/h
1338 03-09-2020 15:25:00 18.2 C 12.75 g/m*3 18.2 C 3.2 km/h
1339 03-09-2020 15:30:00 18.1 C 12.21 g/m*3 18.1 C 1.6 km/h
1340 03-09-2020 15:35:00 18.1 C 12.36 g/m*3 18.1 C 3.2 km/h
1341 03-09-2020 15:40:00 18.1 C 12.21 g/m*3 18.1 C 1.6 km/h
1342 03-09-2020 15:45:00 18.1 C 12.05 g/m*3 18.1 C 12.9 km/h
1343 03-09-2020 15:50:00 17.9 C 12.21 g/m*3 17.9 C 16.1 km/h
1344 03-09-2020 15:55:00 17.5 C 12.23 g/m*3 17.5 C 16.1 km/h
1345 03-09-2020 16:00:00 17.2 C 12.3 g/m*3 17.2 C 6.4 km/h
1346 03-09-2020 16:05:00 16.7 C 12.08 g/m*3 16.7 C 9.7 km/h
1347 03-09-2020 16:10:00 16.4 C 12.14 g/m*3 16.4 C 6.4 km/h
1348 03-09-2020 16:15:00 16.2 C 12.27 g/m*3 16.2 C 4.8 km/h
1349 03-09-2020 16:20:00 16.1 C 12.2 g/m*3 16.1 C 1.6 km/h
1350 03-09-2020 16:25:00 16.1 C 12.34 g/m*3 16.1 C 0 km/h
Sensor: Nr:Datum:Temp:Abs-Feuchte:Windchill:Wind:
Aussen-T/F 1351 03-09-2020 16:30:00 16.1 C 12.47 g/m*3 16.1 C 1.6 km/h
1352 03-09-2020 16:35:00 16.1 C 12.47 g/m*3 16.1 C 1.6 km/h
1353 03-09-2020 16:40:00 16 C 12.4 g/m*3 16 C 4.8 km/h
1354 03-09-2020 16:45:00 15.8 C 12.25 g/m*3 15.8 C 1.6 km/h
1355 03-09-2020 16:50:00 15.8 C 12.38 g/m*3 15.8 C 3.2 km/h
1356 03-09-2020 16:55:00 15.9 C 12.46 g/m*3 15.9 C 0 km/h
1357 03-09-2020 17:00:00 15.9 C 12.59 g/m*3 15.9 C 0 km/h
1358 03-09-2020 17:05:00 15.9 C 12.59 g/m*3 15.9 C 1.6 km/h
1359 03-09-2020 17:10:00 15.9 C 12.46 g/m*3 15.9 C 0 km/h
1360 03-09-2020 17:15:00 15.9 C 12.46 g/m*3 15.9 C 3.2 km/h
1361 03-09-2020 17:20:00 15.8 C 12.38 g/m*3 15.8 C 0 km/h
1362 03-09-2020 17:25:00 15.8 C 12.38 g/m*3 15.8 C 0 km/h
1363 03-09-2020 17:30:00 15.8 C 12.52 g/m*3 15.8 C 1.6 km/h
1364 03-09-2020 17:35:00 15.8 C 12.52 g/m*3 15.8 C 0 km/h
1365 03-09-2020 17:40:00 15.9 C 12.59 g/m*3 15.9 C 0 km/h
1366 03-09-2020 17:45:00 15.8 C 12.52 g/m*3 15.8 C 3.2 km/h
1367 03-09-2020 17:50:00 15.9 C 12.59 g/m*3 15.9 C 3.2 km/h
1368 03-09-2020 17:55:00 15.9 C 12.59 g/m*3 15.9 C 1.6 km/h
1369 03-09-2020 18:00:00 15.9 C 12.59 g/m*3 15.9 C 1.6 km/h
1370 03-09-2020 18:05:00 15.9 C 12.59 g/m*3 15.9 C 0 km/h
1371 03-09-2020 18:10:00 15.9 C 12.59 g/m*3 15.9 C 0 km/h
1372 03-09-2020 18:15:00 15.9 C 12.59 g/m*3 15.9 C 0 km/h
1373 03-09-2020 18:20:00 16.1 C 12.88 g/m*3 16.1 C 0 km/h
1374 03-09-2020 18:25:00 16.2 C 12.96 g/m*3 16.2 C 1.6 km/h
1375 03-09-2020 18:30:00 16.3 C 13.04 g/m*3 16.3 C 1.6 km/h
Sensor: Nr:Datum:Temp:Abs-Feuchte:Windchill:Wind:
Aussen-T/F 1376 03-09-2020 18:35:00 16.3 C 13.04 g/m*3 16.3 C 0 km/h
1377 03-09-2020 18:40:00 16.3 C 13.04 g/m*3 16.3 C 3.2 km/h
1378 03-09-2020 18:45:00 16.2 C 12.82 g/m*3 16.2 C 3.2 km/h
1379 03-09-2020 18:50:00 16.2 C 12.82 g/m*3 16.2 C 1.6 km/h
1380 03-09-2020 18:55:00 16.2 C 12.82 g/m*3 16.2 C 3.2 km/h
1381 03-09-2020 19:00:00 16.1 C 12.75 g/m*3 16.1 C 3.2 km/h
1382 03-09-2020 19:05:00 16.1 C 12.75 g/m*3 16.1 C 0 km/h
1383 03-09-2020 19:10:00 16.1 C 12.88 g/m*3 16.1 C 0 km/h
1384 03-09-2020 19:15:00 16.1 C 12.88 g/m*3 16.1 C 1.6 km/h
1385 03-09-2020 19:20:00 16.1 C 12.88 g/m*3 16.1 C 3.2 km/h
1386 03-09-2020 19:25:00 16 C 12.81 g/m*3 16 C 3.2 km/h
1387 03-09-2020 19:30:00 15.9 C 12.73 g/m*3 15.9 C 3.2 km/h
1388 03-09-2020 19:35:00 15.9 C 12.73 g/m*3 15.9 C 3.2 km/h
1389 03-09-2020 19:40:00 15.8 C 12.65 g/m*3 15.8 C 3.2 km/h
1390 03-09-2020 19:45:00 15.8 C 12.65 g/m*3 15.8 C 3.2 km/h
1391 03-09-2020 19:50:00 15.8 C 12.65 g/m*3 15.8 C 3.2 km/h
1392 03-09-2020 19:55:00 15.7 C 12.58 g/m*3 15.7 C 3.2 km/h
1393 03-09-2020 20:00:00 15.7 C 12.58 g/m*3 15.7 C 1.6 km/h
1394 03-09-2020 20:05:00 15.7 C 12.58 g/m*3 15.7 C 3.2 km/h
1395 03-09-2020 20:10:00 15.6 C 12.5 g/m*3 15.6 C 0 km/h
1396 03-09-2020 20:15:00 15.6 C 12.5 g/m*3 15.6 C 3.2 km/h
1397 03-09-2020 20:20:00 15.6 C 12.5 g/m*3 15.6 C 4.8 km/h
1398 03-09-2020 20:25:00 15.6 C 12.5 g/m*3 15.6 C 0 km/h
1399 03-09-2020 20:30:00 15.5 C 12.43 g/m*3 15.5 C 0 km/h
1400 03-09-2020 20:35:00 15.4 C 12.35 g/m*3 15.4 C 0 km/h
Sensor: Nr:Datum:Temp:Abs-Feuchte:Windchill:Wind:
Aussen-T/F 1401 03-09-2020 20:40:00 15.4 C 12.35 g/m*3 15.4 C 1.6 km/h
1402 03-09-2020 20:45:00 15.3 C 12.28 g/m*3 15.3 C 0 km/h
1403 03-09-2020 20:50:00 15.3 C 12.28 g/m*3 15.3 C 1.6 km/h
1404 03-09-2020 20:55:00 15.3 C 12.28 g/m*3 15.3 C 4.8 km/h
1405 03-09-2020 21:00:00 15.3 C 12.28 g/m*3 15.3 C 4.8 km/h
1406 03-09-2020 21:05:00 15.3 C 12.28 g/m*3 15.3 C 4.8 km/h
1407 03-09-2020 21:10:00 15.2 C 12.2 g/m*3 15.2 C 3.2 km/h
1408 03-09-2020 21:15:00 15.2 C 12.2 g/m*3 15.2 C 3.2 km/h
1409 03-09-2020 21:20:00 15.2 C 12.2 g/m*3 15.2 C 1.6 km/h
1410 03-09-2020 21:25:00 15.3 C 12.41 g/m*3 15.3 C 0 km/h
1411 03-09-2020 21:30:00 15.3 C 12.41 g/m*3 15.3 C 1.6 km/h
1412 03-09-2020 21:35:00 15.3 C 12.41 g/m*3 15.3 C 0 km/h
1413 03-09-2020 21:40:00 15.3 C 12.41 g/m*3 15.3 C 3.2 km/h
1414 03-09-2020 21:45:00 15.3 C 12.41 g/m*3 15.3 C 1.6 km/h
1415 03-09-2020 21:50:00 15.3 C 12.41 g/m*3 15.3 C 0 km/h
1416 03-09-2020 21:55:00 15.4 C 12.48 g/m*3 15.4 C 0 km/h
1417 03-09-2020 22:00:00 15.4 C 12.48 g/m*3 15.4 C 0 km/h
1418 03-09-2020 22:05:00 15.5 C 12.56 g/m*3 15.5 C 1.6 km/h
1419 03-09-2020 22:10:00 15.6 C 12.5 g/m*3 15.6 C 1.6 km/h
1420 03-09-2020 22:15:00 15.6 C 12.5 g/m*3 15.6 C 0 km/h
1421 03-09-2020 22:20:00 15.6 C 12.63 g/m*3 15.6 C 0 km/h
1422 03-09-2020 22:25:00 15.7 C 12.71 g/m*3 15.7 C 0 km/h
1423 03-09-2020 22:30:00 15.7 C 12.58 g/m*3 15.7 C 1.6 km/h
1424 03-09-2020 22:35:00 15.7 C 12.58 g/m*3 15.7 C 1.6 km/h
1425 03-09-2020 22:40:00 15.7 C 12.58 g/m*3 15.7 C 0 km/h
Sensor: Nr:Datum:Temp:Abs-Feuchte:Windchill:Wind:
Aussen-T/F 1426 03-09-2020 22:45:00 15.7 C 12.58 g/m*3 15.7 C 1.6 km/h
1427 03-09-2020 22:50:00 15.7 C 12.58 g/m*3 15.7 C 0 km/h
1428 03-09-2020 22:55:00 15.7 C 12.58 g/m*3 15.7 C 0 km/h
1429 03-09-2020 23:00:00 15.7 C 12.58 g/m*3 15.7 C 0 km/h
1430 03-09-2020 23:05:00 15.7 C 12.58 g/m*3 15.7 C 0 km/h
1431 03-09-2020 23:10:00 15.7 C 12.58 g/m*3 15.7 C 0 km/h
1432 03-09-2020 23:15:00 15.7 C 12.58 g/m*3 15.7 C 0 km/h
1433 03-09-2020 23:20:00 15.7 C 12.58 g/m*3 15.7 C 0 km/h
1434 03-09-2020 23:25:00 15.7 C 12.58 g/m*3 15.7 C 0 km/h
1435 03-09-2020 23:30:00 15.7 C 12.58 g/m*3 15.7 C 0 km/h
1436 03-09-2020 23:35:00 15.8 C 12.65 g/m*3 15.8 C 0 km/h
1437 03-09-2020 23:40:00 15.8 C 12.65 g/m*3 15.8 C 1.6 km/h
1438 03-09-2020 23:45:00 15.8 C 12.65 g/m*3 15.8 C 0 km/h
1439 03-09-2020 23:50:00 15.9 C 12.73 g/m*3 15.9 C 0 km/h
1440 03-09-2020 23:55:00 15.9 C 12.73 g/m*3 15.9 C 0 km/h
1441 04-09-2020 00:00:00 15.8 C 12.65 g/m*3 15.8 C 0 km/h
1442 04-09-2020 00:05:00 15.8 C 12.65 g/m*3 15.8 C 0 km/h
1443 04-09-2020 00:10:00 15.8 C 12.65 g/m*3 15.8 C 0 km/h
1444 04-09-2020 00:15:00 15.8 C 12.65 g/m*3 15.8 C 0 km/h
1445 04-09-2020 00:20:00 15.8 C 12.65 g/m*3 15.8 C 0 km/h
1446 04-09-2020 00:25:00 15.8 C 12.65 g/m*3 15.8 C 0 km/h
1447 04-09-2020 00:30:00 15.8 C 12.65 g/m*3 15.8 C 0 km/h
1448 04-09-2020 00:35:00 15.8 C 12.65 g/m*3 15.8 C 0 km/h
1449 04-09-2020 00:40:00 15.8 C 12.65 g/m*3 15.8 C 0 km/h
1450 04-09-2020 00:45:00 15.9 C 12.73 g/m*3 15.9 C 0 km/h
Sensor: Nr:Datum:Temp:Abs-Feuchte:Windchill:Wind:
Aussen-T/F 1451 04-09-2020 00:50:00 15.9 C 12.73 g/m*3 15.9 C 0 km/h
1452 04-09-2020 00:55:00 15.9 C 12.73 g/m*3 15.9 C 0 km/h
1453 04-09-2020 01:00:00 15.9 C 12.73 g/m*3 15.9 C 0 km/h
1454 04-09-2020 01:05:00 15.8 C 12.65 g/m*3 15.8 C 0 km/h
1455 04-09-2020 01:10:00 15.8 C 12.65 g/m*3 15.8 C 0 km/h
1456 04-09-2020 01:15:00 15.8 C 12.65 g/m*3 15.8 C 0 km/h
1457 04-09-2020 01:20:00 15.8 C 12.65 g/m*3 15.8 C 0 km/h
1458 04-09-2020 01:25:00 15.7 C 12.58 g/m*3 15.7 C 0 km/h
1459 04-09-2020 01:30:00 15.7 C 12.58 g/m*3 15.7 C 0 km/h
1460 04-09-2020 01:35:00 15.7 C 12.58 g/m*3 15.7 C 1.6 km/h
1461 04-09-2020 01:40:00 15.8 C 12.65 g/m*3 15.8 C 1.6 km/h
1462 04-09-2020 01:45:00 15.8 C 12.65 g/m*3 15.8 C 0 km/h
1463 04-09-2020 01:50:00 15.8 C 12.65 g/m*3 15.8 C 1.6 km/h
1464 04-09-2020 01:55:00 15.8 C 12.65 g/m*3 15.8 C 0 km/h
1465 04-09-2020 02:00:00 15.8 C 12.52 g/m*3 15.8 C 3.2 km/h
1466 04-09-2020 02:05:00 15.7 C 12.44 g/m*3 15.7 C 1.6 km/h
1467 04-09-2020 02:10:00 15.7 C 12.44 g/m*3 15.7 C 1.6 km/h
1468 04-09-2020 02:15:00 15.7 C 12.44 g/m*3 15.7 C 0 km/h
1469 04-09-2020 02:20:00 15.7 C 12.44 g/m*3 15.7 C 0 km/h
1470 04-09-2020 02:25:00 15.7 C 12.44 g/m*3 15.7 C 1.6 km/h
1471 04-09-2020 02:30:00 15.8 C 12.52 g/m*3 15.8 C 1.6 km/h
1472 04-09-2020 02:35:00 15.8 C 12.52 g/m*3 15.8 C 1.6 km/h
1473 04-09-2020 02:40:00 15.9 C 12.59 g/m*3 15.9 C 1.6 km/h
1474 04-09-2020 02:45:00 16 C 12.67 g/m*3 16 C 0 km/h
1475 04-09-2020 02:50:00 16.1 C 12.61 g/m*3 16.1 C 0 km/h
Sensor: Nr:Datum:Temp:Abs-Feuchte:Windchill:Wind:
Aussen-T/F 1476 04-09-2020 02:55:00 16.2 C 12.82 g/m*3 16.2 C 0 km/h
1477 04-09-2020 03:00:00 16.3 C 12.9 g/m*3 16.3 C 0 km/h
1478 04-09-2020 03:05:00 16.4 C 12.98 g/m*3 16.4 C 1.6 km/h
1479 04-09-2020 03:10:00 16.4 C 12.84 g/m*3 16.4 C 3.2 km/h
1480 04-09-2020 03:15:00 16.4 C 12.84 g/m*3 16.4 C 4.8 km/h
1481 04-09-2020 03:20:00 16.4 C 12.84 g/m*3 16.4 C 0 km/h
1482 04-09-2020 03:25:00 16.4 C 12.84 g/m*3 16.4 C 0 km/h
1483 04-09-2020 03:30:00 16.4 C 12.7 g/m*3 16.4 C 0 km/h
1484 04-09-2020 03:35:00 16.5 C 12.78 g/m*3 16.5 C 0 km/h
1485 04-09-2020 03:40:00 16.6 C 12.86 g/m*3 16.6 C 0 km/h
1486 04-09-2020 03:45:00 16.6 C 12.86 g/m*3 16.6 C 0 km/h
1487 04-09-2020 03:50:00 16.6 C 12.86 g/m*3 16.6 C 0 km/h
1488 04-09-2020 03:55:00 16.6 C 12.86 g/m*3 16.6 C 0 km/h
1489 04-09-2020 04:00:00 16.6 C 12.86 g/m*3 16.6 C 0 km/h
1490 04-09-2020 04:05:00 16.6 C 12.71 g/m*3 16.6 C 0 km/h
1491 04-09-2020 04:10:00 16.6 C 12.71 g/m*3 16.6 C 0 km/h
1492 04-09-2020 04:15:00 16.6 C 12.71 g/m*3 16.6 C 0 km/h
1493 04-09-2020 04:20:00 16.7 C 12.79 g/m*3 16.7 C 0 km/h
1494 04-09-2020 04:25:00 16.8 C 13.01 g/m*3 16.8 C 0 km/h
1495 04-09-2020 04:30:00 16.8 C 12.87 g/m*3 16.8 C 0 km/h
1496 04-09-2020 04:35:00 16.8 C 12.87 g/m*3 16.8 C 0 km/h
1497 04-09-2020 04:40:00 16.8 C 12.87 g/m*3 16.8 C 0 km/h
1498 04-09-2020 04:45:00 16.7 C 12.79 g/m*3 16.7 C 0 km/h
1499 04-09-2020 04:50:00 16.7 C 12.79 g/m*3 16.7 C 0 km/h
1500 04-09-2020 04:55:00 16.7 C 12.79 g/m*3 16.7 C 0 km/h
Sensor: Nr:Datum:Temp:Abs-Feuchte:Windchill:Wind:
Aussen-T/F 1501 04-09-2020 05:00:00 16.7 C 12.79 g/m*3 16.7 C 0 km/h
1502 04-09-2020 05:05:00 16.7 C 12.79 g/m*3 16.7 C 0 km/h
1503 04-09-2020 05:10:00 16.7 C 12.79 g/m*3 16.7 C 0 km/h
1504 04-09-2020 05:15:00 16.7 C 12.79 g/m*3 16.7 C 0 km/h
1505 04-09-2020 05:20:00 16.7 C 12.79 g/m*3 16.7 C 0 km/h
1506 04-09-2020 05:25:00 16.7 C 12.79 g/m*3 16.7 C 0 km/h
1507 04-09-2020 05:30:00 16.7 C 12.79 g/m*3 16.7 C 0 km/h
1508 04-09-2020 05:35:00 16.7 C 12.93 g/m*3 16.7 C 0 km/h
1509 04-09-2020 05:40:00 16.7 C 12.93 g/m*3 16.7 C 0 km/h
1510 04-09-2020 05:45:00 16.7 C 12.93 g/m*3 16.7 C 0 km/h
1511 04-09-2020 05:50:00 16.7 C 12.93 g/m*3 16.7 C 0 km/h
1512 04-09-2020 05:55:00 16.7 C 12.93 g/m*3 16.7 C 0 km/h
1513 04-09-2020 06:00:00 16.6 C 12.86 g/m*3 16.6 C 0 km/h
1514 04-09-2020 06:05:00 16.6 C 12.71 g/m*3 16.6 C 0 km/h
1515 04-09-2020 06:10:00 16.6 C 12.71 g/m*3 16.6 C 4.8 km/h
1516 04-09-2020 06:15:00 16.5 C 12.64 g/m*3 16.5 C 4.8 km/h
1517 04-09-2020 06:20:00 16.5 C 12.64 g/m*3 16.5 C 3.2 km/h
1518 04-09-2020 06:25:00 16.5 C 12.64 g/m*3 16.5 C 0 km/h
1519 04-09-2020 06:30:00 16.6 C 12.71 g/m*3 16.6 C 0 km/h
1520 04-09-2020 06:35:00 16.6 C 12.71 g/m*3 16.6 C 3.2 km/h
1521 04-09-2020 06:40:00 16.6 C 12.57 g/m*3 16.6 C 1.6 km/h
1522 04-09-2020 06:45:00 16.6 C 12.71 g/m*3 16.6 C 0 km/h
1523 04-09-2020 06:50:00 16.6 C 12.71 g/m*3 16.6 C 0 km/h
1524 04-09-2020 06:55:00 16.7 C 12.79 g/m*3 16.7 C 3.2 km/h
1525 04-09-2020 07:00:00 16.7 C 12.65 g/m*3 16.7 C 3.2 km/h
Sensor: Nr:Datum:Temp:Abs-Feuchte:Windchill:Wind:
Aussen-T/F 1526 04-09-2020 07:05:00 16.7 C 12.65 g/m*3 16.7 C 3.2 km/h
1527 04-09-2020 07:10:00 16.7 C 12.65 g/m*3 16.7 C 0 km/h
1528 04-09-2020 07:15:00 16.7 C 12.65 g/m*3 16.7 C 0 km/h
1529 04-09-2020 07:20:00 16.8 C 12.72 g/m*3 16.8 C 0 km/h
1530 04-09-2020 07:25:00 16.8 C 12.72 g/m*3 16.8 C 0 km/h
1531 04-09-2020 07:30:00 16.8 C 12.72 g/m*3 16.8 C 3.2 km/h
1532 04-09-2020 07:35:00 16.8 C 12.72 g/m*3 16.8 C 0 km/h
1533 04-09-2020 07:40:00 16.8 C 12.58 g/m*3 16.8 C 0 km/h
1534 04-09-2020 07:45:00 16.8 C 12.72 g/m*3 16.8 C 0 km/h
1535 04-09-2020 07:50:00 16.9 C 12.8 g/m*3 16.9 C 0 km/h
1536 04-09-2020 07:55:00 16.9 C 12.8 g/m*3 16.9 C 0 km/h
1537 04-09-2020 08:00:00 17 C 13.02 g/m*3 17 C 0 km/h
1538 04-09-2020 08:05:00 17 C 13.02 g/m*3 17 C 0 km/h
1539 04-09-2020 08:10:00 17.1 C 12.96 g/m*3 17.1 C 0 km/h
1540 04-09-2020 08:15:00 17.1 C 12.96 g/m*3 17.1 C 3.2 km/h
1541 04-09-2020 08:20:00 17.1 C 12.96 g/m*3 17.1 C 1.6 km/h
1542 04-09-2020 08:25:00 17.1 C 12.96 g/m*3 17.1 C 0 km/h
1543 04-09-2020 08:30:00 17.2 C 13.03 g/m*3 17.2 C 0 km/h
1544 04-09-2020 08:35:00 17.2 C 13.03 g/m*3 17.2 C 0 km/h
1545 04-09-2020 08:40:00 17.2 C 12.89 g/m*3 17.2 C 0 km/h
1546 04-09-2020 08:45:00 17.3 C 12.96 g/m*3 17.3 C 0 km/h
1547 04-09-2020 08:50:00 17.4 C 13.19 g/m*3 17.4 C 0 km/h
1548 04-09-2020 08:55:00 17.4 C 13.04 g/m*3 17.4 C 0 km/h
1549 04-09-2020 09:00:00 17.6 C 13.2 g/m*3 17.6 C 0 km/h
1550 04-09-2020 09:05:00 17.7 C 13.28 g/m*3 17.7 C 0 km/h
Sensor: Nr:Datum:Temp:Abs-Feuchte:Windchill:Wind:
Aussen-T/F 1551 04-09-2020 09:10:00 17.9 C 12.98 g/m*3 17.9 C 4.8 km/h
1552 04-09-2020 09:15:00 18.1 C 13.29 g/m*3 18.1 C 1.6 km/h
1553 04-09-2020 09:20:00 18.3 C 13.45 g/m*3 18.3 C 1.6 km/h
1554 04-09-2020 09:25:00 18.4 C 13.37 g/m*3 18.4 C 1.6 km/h
1555 04-09-2020 09:30:00 18.6 C 13.53 g/m*3 18.6 C 1.6 km/h
1556 04-09-2020 09:35:00 18.6 C 13.53 g/m*3 18.6 C 0 km/h
1557 04-09-2020 09:40:00 18.7 C 13.61 g/m*3 18.7 C 0 km/h
1558 04-09-2020 09:45:00 18.7 C 13.61 g/m*3 18.7 C 1.6 km/h
1559 04-09-2020 09:50:00 18.8 C 13.53 g/m*3 18.8 C 1.6 km/h
1560 04-09-2020 09:55:00 18.8 C 13.53 g/m*3 18.8 C 0 km/h
1561 04-09-2020 10:00:00 18.9 C 13.61 g/m*3 18.9 C 0 km/h
1562 04-09-2020 10:05:00 18.9 C 13.61 g/m*3 18.9 C 0 km/h
1563 04-09-2020 10:10:00 18.9 C 13.28 g/m*3 18.9 C 0 km/h
1564 04-09-2020 10:15:00 19.1 C 13.61 g/m*3 19.1 C 0 km/h
1565 04-09-2020 10:20:00 19.1 C 13.61 g/m*3 19.1 C 0 km/h
1566 04-09-2020 10:25:00 19.2 C 13.52 g/m*3 19.2 C 0 km/h
1567 04-09-2020 10:30:00 19.3 C 13.77 g/m*3 19.3 C 0 km/h
1568 04-09-2020 10:35:00 19.4 C 13.85 g/m*3 19.4 C 0 km/h
1569 04-09-2020 10:40:00 19.4 C 13.68 g/m*3 19.4 C 0 km/h
1570 04-09-2020 10:45:00 19.6 C 13.84 g/m*3 19.6 C 0 km/h
1571 04-09-2020 10:50:00 19.6 C 13.84 g/m*3 19.6 C 0 km/h
1572 04-09-2020 10:55:00 19.7 C 13.92 g/m*3 19.7 C 1.6 km/h
1573 04-09-2020 11:00:00 19.7 C 13.58 g/m*3 19.7 C 4.8 km/h
1574 04-09-2020 11:05:00 19.7 C 13.75 g/m*3 19.7 C 1.6 km/h
1575 04-09-2020 11:10:00 19.8 C 13.66 g/m*3 19.8 C 1.6 km/h
Sensor: Nr:Datum:Temp:Abs-Feuchte:Windchill:Wind:
Aussen-T/F 1576 04-09-2020 11:15:00 19.9 C 13.92 g/m*3 19.9 C 0 km/h
1577 04-09-2020 11:20:00 20.1 C 13.91 g/m*3 20.1 C 0 km/h
1578 04-09-2020 11:25:00 20.3 C 14.07 g/m*3 20.3 C 0 km/h
1579 04-09-2020 11:30:00 20.4 C 13.8 g/m*3 20.4 C 3.2 km/h
1580 04-09-2020 11:35:00 20.6 C 13.78 g/m*3 20.6 C 0 km/h
1581 04-09-2020 11:40:00 20.7 C 14.04 g/m*3 20.7 C 0 km/h
1582 04-09-2020 11:45:00 20.9 C 13.66 g/m*3 20.9 C 4.8 km/h
1583 04-09-2020 11:50:00 21.1 C 13.45 g/m*3 21.1 C 3.2 km/h
1584 04-09-2020 11:55:00 21.3 C 13.98 g/m*3 21.3 C 3.2 km/h
1585 04-09-2020 12:00:00 21.5 C 13.77 g/m*3 21.5 C 4.8 km/h
1586 04-09-2020 12:05:00 21.7 C 13.54 g/m*3 21.7 C 12.9 km/h
1587 04-09-2020 12:10:00 21.9 C 13.89 g/m*3 21.9 C 12.9 km/h
1588 04-09-2020 12:15:00 22.1 C 13.86 g/m*3 22.1 C 9.7 km/h
1589 04-09-2020 12:20:00 22.3 C 14.02 g/m*3 22.3 C 11.3 km/h
1590 04-09-2020 12:25:00 22.4 C 14.1 g/m*3 22.4 C 9.7 km/h
1591 04-09-2020 12:30:00 22.6 C 13.86 g/m*3 22.6 C 9.7 km/h
1592 04-09-2020 12:35:00 22.8 C 14.02 g/m*3 22.8 C 11.3 km/h
1593 04-09-2020 12:40:00 22.9 C 14.51 g/m*3 22.9 C 11.3 km/h
1594 04-09-2020 12:45:00 22.9 C 14.31 g/m*3 22.9 C 9.7 km/h
1595 04-09-2020 12:50:00 23.1 C 14.47 g/m*3 23.1 C 9.7 km/h
1596 04-09-2020 12:55:00 23.2 C 14.34 g/m*3 23.2 C 12.9 km/h
1597 04-09-2020 13:00:00 23.3 C 14.64 g/m*3 23.3 C 11.3 km/h
1598 04-09-2020 13:05:00 23.6 C 14.68 g/m*3 23.6 C 14.5 km/h
1599 04-09-2020 13:10:00 23.8 C 14.41 g/m*3 23.8 C 16.1 km/h
1600 04-09-2020 13:15:00 23.9 C 14.49 g/m*3 23.9 C 12.9 km/h
Sensor: Nr:Datum:Temp:Abs-Feuchte:Windchill:Wind:
Aussen-T/F 1601 04-09-2020 13:20:00 24.2 C 14.52 g/m*3 24.2 C 12.9 km/h
1602 04-09-2020 13:25:00 24.4 C 14.47 g/m*3 24.4 C 12.9 km/h
1603 04-09-2020 13:30:00 24.7 C 14.49 g/m*3 24.7 C 19.3 km/h
1604 04-09-2020 13:35:00 24.8 C 14.57 g/m*3 24.8 C 19.3 km/h
1605 04-09-2020 13:40:00 25.1 C 14.35 g/m*3 25.1 C 14.5 km/h
1606 04-09-2020 13:45:00 25.3 C 14.98 g/m*3 25.3 C 11.3 km/h
1607 04-09-2020 13:50:00 25.4 C 14.83 g/m*3 25.4 C 11.3 km/h
1608 04-09-2020 13:55:00 25.5 C 14.91 g/m*3 25.5 C 14.5 km/h
1609 04-09-2020 14:00:00 25.6 C 14.52 g/m*3 25.6 C 12.9 km/h
1610 04-09-2020 14:05:00 25.7 C 14.6 g/m*3 25.7 C 14.5 km/h
1611 04-09-2020 14:10:00 25.6 C 14.76 g/m*3 25.6 C 11.3 km/h
1612 04-09-2020 14:15:00 25.6 C 14.52 g/m*3 25.6 C 12.9 km/h
1613 04-09-2020 14:20:00 25.5 C 14.44 g/m*3 25.5 C 12.9 km/h
1614 04-09-2020 14:25:00 25.5 C 14.68 g/m*3 25.5 C 12.9 km/h
1615 04-09-2020 14:30:00 25.6 C 14.76 g/m*3 25.6 C 6.4 km/h
1616 04-09-2020 14:35:00 25.7 C 14.6 g/m*3 25.7 C 9.7 km/h
1617 04-09-2020 14:40:00 25.7 C 14.36 g/m*3 25.7 C 9.7 km/h
1618 04-09-2020 14:45:00 25.8 C 14.93 g/m*3 25.8 C 4.8 km/h
1619 04-09-2020 14:50:00 25.9 C 15.49 g/m*3 25.9 C 3.2 km/h
1620 04-09-2020 14:55:00 25.9 C 14.28 g/m*3 25.9 C 11.3 km/h
1621 04-09-2020 15:00:00 25.7 C 14.6 g/m*3 25.7 C 4.8 km/h
1622 04-09-2020 15:05:00 25.7 C 14.6 g/m*3 25.7 C 9.7 km/h
1623 04-09-2020 15:10:00 25.6 C 14.52 g/m*3 25.6 C 3.2 km/h
1624 04-09-2020 15:15:00 25.6 C 14.52 g/m*3 25.6 C 6.4 km/h
1625 04-09-2020 15:20:00 25.6 C 14.52 g/m*3 25.6 C 4.8 km/h
Sensor: Nr:Datum:Temp:Abs-Feuchte:Windchill:Wind:
Aussen-T/F 1626 04-09-2020 15:25:00 25.6 C 14.52 g/m*3 25.6 C 6.4 km/h
1627 04-09-2020 15:30:00 25.7 C 14.6 g/m*3 25.7 C 6.4 km/h
1628 04-09-2020 15:35:00 25.8 C 14.93 g/m*3 25.8 C 3.2 km/h
1629 04-09-2020 15:40:00 25.8 C 14.69 g/m*3 25.8 C 6.4 km/h
1630 04-09-2020 15:45:00 25.8 C 14.93 g/m*3 25.8 C 0 km/h
1631 04-09-2020 15:50:00 25.8 C 14.69 g/m*3 25.8 C 3.2 km/h
1632 04-09-2020 15:55:00 25.9 C 14.53 g/m*3 25.9 C 4.8 km/h
1633 04-09-2020 16:00:00 25.9 C 14.53 g/m*3 25.9 C 3.2 km/h
1634 04-09-2020 16:05:00 26 C 14.61 g/m*3 26 C 6.4 km/h
1635 04-09-2020 16:10:00 26.1 C 14.44 g/m*3 26.1 C 3.2 km/h
1636 04-09-2020 16:15:00 26.2 C 14.52 g/m*3 26.2 C 3.2 km/h
1637 04-09-2020 16:20:00 26.3 C 14.85 g/m*3 26.3 C 3.2 km/h
1638 04-09-2020 16:25:00 26.2 C 14.28 g/m*3 26.2 C 4.8 km/h
1639 04-09-2020 16:30:00 26.2 C 14.52 g/m*3 26.2 C 1.6 km/h
1640 04-09-2020 16:35:00 26.3 C 14.61 g/m*3 26.3 C 3.2 km/h
1641 04-09-2020 16:40:00 26.4 C 14.44 g/m*3 26.4 C 3.2 km/h
1642 04-09-2020 16:45:00 26.5 C 14.77 g/m*3 26.5 C 0 km/h
1643 04-09-2020 16:50:00 26.9 C 15.36 g/m*3 26.9 C 0 km/h
1644 04-09-2020 16:55:00 27.1 C 14.49 g/m*3 27.1 C 3.2 km/h
1645 04-09-2020 17:00:00 27.3 C 14.91 g/m*3 27.3 C 0 km/h
1646 04-09-2020 17:05:00 27.6 C 14.63 g/m*3 27.6 C 1.6 km/h
1647 04-09-2020 17:10:00 28.1 C 15.04 g/m*3 28.1 C 4.8 km/h
1648 04-09-2020 17:15:00 28.4 C 14.73 g/m*3 28.4 C 6.4 km/h
1649 04-09-2020 17:20:00 28.8 C 14.77 g/m*3 28.8 C 6.4 km/h
1650 04-09-2020 17:25:00 28.8 C 14.77 g/m*3 28.8 C 8.1 km/h
Sensor: Nr:Datum:Temp:Abs-Feuchte:Windchill:Wind:
Aussen-T/F 1651 04-09-2020 17:30:00 28.7 C 15.26 g/m*3 28.7 C 0 km/h
1652 04-09-2020 17:35:00 28.6 C 16.02 g/m*3 28.6 C 1.6 km/h
1653 04-09-2020 17:40:00 28.3 C 16.59 g/m*3 28.3 C 0 km/h
1654 04-09-2020 17:45:00 28.1 C 15.59 g/m*3 28.1 C 0 km/h
1655 04-09-2020 17:50:00 27.8 C 16.41 g/m*3 27.8 C 0 km/h
1656 04-09-2020 17:55:00 27.4 C 15.79 g/m*3 27.4 C 0 km/h
1657 04-09-2020 18:00:00 27.1 C 16.04 g/m*3 27.1 C 0 km/h
1658 04-09-2020 18:05:00 26.7 C 15.44 g/m*3 26.7 C 9.7 km/h
1659 04-09-2020 18:10:00 26.2 C 15.51 g/m*3 26.2 C 8.1 km/h
1660 04-09-2020 18:15:00 25.8 C 15.41 g/m*3 25.8 C 9.7 km/h
1661 04-09-2020 18:20:00 25.4 C 15.54 g/m*3 25.4 C 9.7 km/h
1662 04-09-2020 18:25:00 25.4 C 15.77 g/m*3 25.4 C 8.1 km/h
1663 04-09-2020 18:30:00 25.4 C 16.01 g/m*3 25.4 C 6.4 km/h
1664 04-09-2020 18:35:00 25.4 C 16.01 g/m*3 25.4 C 11.3 km/h
1665 04-09-2020 18:40:00 25.2 C 15.83 g/m*3 25.2 C 6.4 km/h
1666 04-09-2020 18:45:00 24.9 C 15.79 g/m*3 24.9 C 8.1 km/h
1667 04-09-2020 18:50:00 24.6 C 15.75 g/m*3 24.6 C 8.1 km/h
1668 04-09-2020 18:55:00 24.4 C 16.02 g/m*3 24.4 C 8.1 km/h
1669 04-09-2020 19:00:00 24.2 C 15.84 g/m*3 24.2 C 6.4 km/h
1670 04-09-2020 19:05:00 24 C 15.88 g/m*3 24 C 3.2 km/h
1671 04-09-2020 19:10:00 23.9 C 15.79 g/m*3 23.9 C 3.2 km/h
1672 04-09-2020 19:15:00 23.8 C 15.92 g/m*3 23.8 C 3.2 km/h
1673 04-09-2020 19:20:00 23.6 C 15.95 g/m*3 23.6 C 4.8 km/h
1674 04-09-2020 19:25:00 23.4 C 15.77 g/m*3 23.4 C 4.8 km/h
1675 04-09-2020 19:30:00 23.3 C 15.68 g/m*3 23.3 C 1.6 km/h
Sensor: Nr:Datum:Temp:Abs-Feuchte:Windchill:Wind:
Aussen-T/F 1676 04-09-2020 19:35:00 23.2 C 15.8 g/m*3 23.2 C 4.8 km/h
1677 04-09-2020 19:40:00 23.1 C 15.71 g/m*3 23.1 C 4.8 km/h
1678 04-09-2020 19:45:00 22.9 C 15.74 g/m*3 22.9 C 6.4 km/h
1679 04-09-2020 19:50:00 22.8 C 15.85 g/m*3 22.8 C 4.8 km/h
1680 04-09-2020 19:55:00 22.7 C 15.96 g/m*3 22.7 C 4.8 km/h
1681 04-09-2020 20:00:00 22.5 C 15.78 g/m*3 22.5 C 4.8 km/h
1682 04-09-2020 20:05:00 22.3 C 15.8 g/m*3 22.3 C 8.1 km/h
1683 04-09-2020 20:10:00 22.2 C 15.71 g/m*3 22.2 C 0 km/h
1684 04-09-2020 20:15:00 22 C 15.53 g/m*3 22 C 0 km/h
1685 04-09-2020 20:20:00 21.7 C 15.45 g/m*3 21.7 C 0 km/h
1686 04-09-2020 20:25:00 21.4 C 15.37 g/m*3 21.4 C 0 km/h
1687 04-09-2020 20:30:00 21.2 C 15.2 g/m*3 21.2 C 0 km/h
1688 04-09-2020 20:35:00 20.9 C 15.12 g/m*3 20.9 C 0 km/h
1689 04-09-2020 20:40:00 20.7 C 15.12 g/m*3 20.7 C 0 km/h
1690 04-09-2020 20:45:00 20.4 C 15.04 g/m*3 20.4 C 0 km/h
1691 04-09-2020 20:50:00 20.3 C 15.3 g/m*3 20.3 C 4.8 km/h
1692 04-09-2020 20:55:00 20.3 C 15.3 g/m*3 20.3 C 0 km/h
1693 04-09-2020 21:00:00 20.2 C 15.21 g/m*3 20.2 C 1.6 km/h
1694 04-09-2020 21:05:00 20.1 C 15.3 g/m*3 20.1 C 4.8 km/h
1695 04-09-2020 21:10:00 20.1 C 15.3 g/m*3 20.1 C 3.2 km/h
1696 04-09-2020 21:15:00 20.1 C 15.3 g/m*3 20.1 C 3.2 km/h
1697 04-09-2020 21:20:00 20.1 C 15.12 g/m*3 20.1 C 3.2 km/h
1698 04-09-2020 21:25:00 20.1 C 15.12 g/m*3 20.1 C 3.2 km/h
1699 04-09-2020 21:30:00 20.1 C 15.12 g/m*3 20.1 C 1.6 km/h
1700 04-09-2020 21:35:00 20.1 C 15.12 g/m*3 20.1 C 1.6 km/h
Sensor: Nr:Datum:Temp:Abs-Feuchte:Windchill:Wind:
Aussen-T/F 1701 04-09-2020 21:40:00 20.1 C 15.12 g/m*3 20.1 C 1.6 km/h
1702 04-09-2020 21:45:00 20 C 15.04 g/m*3 20 C 1.6 km/h
1703 04-09-2020 21:50:00 20 C 15.04 g/m*3 20 C 0 km/h
1704 04-09-2020 21:55:00 19.9 C 14.95 g/m*3 19.9 C 0 km/h
1705 04-09-2020 22:00:00 19.9 C 14.95 g/m*3 19.9 C 0 km/h
1706 04-09-2020 22:05:00 19.9 C 14.95 g/m*3 19.9 C 1.6 km/h
1707 04-09-2020 22:10:00 19.8 C 14.86 g/m*3 19.8 C 1.6 km/h
1708 04-09-2020 22:15:00 19.8 C 14.86 g/m*3 19.8 C 1.6 km/h
1709 04-09-2020 22:20:00 19.8 C 14.86 g/m*3 19.8 C 1.6 km/h
1710 04-09-2020 22:25:00 19.7 C 14.77 g/m*3 19.7 C 0 km/h
1711 04-09-2020 22:30:00 19.6 C 14.69 g/m*3 19.6 C 0 km/h
1712 04-09-2020 22:35:00 19.4 C 14.35 g/m*3 19.4 C 0 km/h
1713 04-09-2020 22:40:00 19.2 C 14.35 g/m*3 19.2 C 0 km/h
1714 04-09-2020 22:45:00 19.1 C 14.26 g/m*3 19.1 C 0 km/h
1715 04-09-2020 22:50:00 19 C 14.34 g/m*3 19 C 0 km/h
1716 04-09-2020 22:55:00 18.9 C 14.42 g/m*3 18.9 C 0 km/h
1717 04-09-2020 23:00:00 18.9 C 14.42 g/m*3 18.9 C 0 km/h
1718 04-09-2020 23:05:00 18.8 C 14.33 g/m*3 18.8 C 0 km/h
1719 04-09-2020 23:10:00 18.8 C 14.49 g/m*3 18.8 C 0 km/h
1720 04-09-2020 23:15:00 18.8 C 14.49 g/m*3 18.8 C 0 km/h
1721 04-09-2020 23:20:00 18.8 C 14.49 g/m*3 18.8 C 0 km/h
1722 04-09-2020 23:25:00 18.8 C 14.49 g/m*3 18.8 C 0 km/h
1723 04-09-2020 23:30:00 18.7 C 14.41 g/m*3 18.7 C 0 km/h
1724 04-09-2020 23:35:00 18.7 C 14.57 g/m*3 18.7 C 0 km/h
1725 04-09-2020 23:40:00 18.7 C 14.57 g/m*3 18.7 C 0 km/h
Sensor: Nr:Datum:Temp:Abs-Feuchte:Windchill:Wind:
Aussen-T/F 1726 04-09-2020 23:45:00 18.6 C 14.48 g/m*3 18.6 C 0 km/h
1727 04-09-2020 23:50:00 18.6 C 14.48 g/m*3 18.6 C 0 km/h
1728 04-09-2020 23:55:00 18.5 C 14.4 g/m*3 18.5 C 0 km/h
1729 05-09-2020 00:00:00 18.4 C 14.16 g/m*3 18.4 C 0 km/h
1730 05-09-2020 00:05:00 18.3 C 14.23 g/m*3 18.3 C 1.6 km/h
1731 05-09-2020 00:10:00 18.2 C 13.99 g/m*3 18.2 C 4.8 km/h
1732 05-09-2020 00:15:00 18.1 C 14.06 g/m*3 18.1 C 0 km/h
1733 05-09-2020 00:20:00 17.9 C 13.89 g/m*3 17.9 C 3.2 km/h
1734 05-09-2020 00:25:00 17.8 C 13.81 g/m*3 17.8 C 4.8 km/h
1735 05-09-2020 00:30:00 17.7 C 13.73 g/m*3 17.7 C 3.2 km/h
1736 05-09-2020 00:35:00 17.6 C 13.65 g/m*3 17.6 C 3.2 km/h
1737 05-09-2020 00:40:00 17.6 C 13.8 g/m*3 17.6 C 3.2 km/h
1738 05-09-2020 00:45:00 17.4 C 13.49 g/m*3 17.4 C 0 km/h
1739 05-09-2020 00:50:00 17.3 C 13.41 g/m*3 17.3 C 0 km/h
1740 05-09-2020 00:55:00 17.2 C 13.47 g/m*3 17.2 C 0 km/h
1741 05-09-2020 01:00:00 17.2 C 13.47 g/m*3 17.2 C 0 km/h
1742 05-09-2020 01:05:00 17.1 C 13.39 g/m*3 17.1 C 0 km/h
1743 05-09-2020 01:10:00 16.9 C 13.23 g/m*3 16.9 C 0 km/h
1744 05-09-2020 01:15:00 16.8 C 13.15 g/m*3 16.8 C 0 km/h
1745 05-09-2020 01:20:00 16.8 C 13.15 g/m*3 16.8 C 0 km/h
1746 05-09-2020 01:25:00 16.7 C 13.07 g/m*3 16.7 C 0 km/h
1747 05-09-2020 01:30:00 16.6 C 13 g/m*3 16.6 C 0 km/h
1748 05-09-2020 01:35:00 16.4 C 12.84 g/m*3 16.4 C 0 km/h
1749 05-09-2020 01:40:00 16.3 C 12.9 g/m*3 16.3 C 0 km/h
1750 05-09-2020 01:45:00 16.3 C 12.9 g/m*3 16.3 C 0 km/h
Sensor: Nr:Datum:Temp:Abs-Feuchte:Windchill:Wind:
Aussen-T/F 1751 05-09-2020 01:50:00 16.2 C 12.82 g/m*3 16.2 C 0 km/h
1752 05-09-2020 01:55:00 16.1 C 12.75 g/m*3 16.1 C 0 km/h
1753 05-09-2020 02:00:00 16 C 12.67 g/m*3 16 C 0 km/h
1754 05-09-2020 02:05:00 15.9 C 12.59 g/m*3 15.9 C 0 km/h
1755 05-09-2020 02:10:00 15.9 C 12.59 g/m*3 15.9 C 0 km/h
1756 05-09-2020 02:15:00 15.8 C 12.65 g/m*3 15.8 C 0 km/h
1757 05-09-2020 02:20:00 15.8 C 12.65 g/m*3 15.8 C 0 km/h
1758 05-09-2020 02:25:00 15.8 C 12.65 g/m*3 15.8 C 0 km/h
1759 05-09-2020 02:30:00 15.8 C 12.65 g/m*3 15.8 C 0 km/h
1760 05-09-2020 02:35:00 15.9 C 12.73 g/m*3 15.9 C 0 km/h
1761 05-09-2020 02:40:00 15.9 C 12.73 g/m*3 15.9 C 0 km/h
1762 05-09-2020 02:45:00 15.9 C 12.73 g/m*3 15.9 C 0 km/h
1763 05-09-2020 02:50:00 15.9 C 12.73 g/m*3 15.9 C 0 km/h
1764 05-09-2020 02:55:00 15.9 C 12.73 g/m*3 15.9 C 0 km/h
1765 05-09-2020 03:00:00 15.9 C 12.87 g/m*3 15.9 C 0 km/h
1766 05-09-2020 03:05:00 15.9 C 12.87 g/m*3 15.9 C 0 km/h
1767 05-09-2020 03:10:00 15.9 C 12.87 g/m*3 15.9 C 0 km/h
1768 05-09-2020 03:15:00 16 C 12.94 g/m*3 16 C 0 km/h
1769 05-09-2020 03:20:00 16 C 12.94 g/m*3 16 C 0 km/h
1770 05-09-2020 03:25:00 16 C 12.94 g/m*3 16 C 0 km/h
1771 05-09-2020 03:30:00 16 C 12.94 g/m*3 16 C 0 km/h
1772 05-09-2020 03:35:00 16.1 C 13.02 g/m*3 16.1 C 0 km/h
1773 05-09-2020 03:40:00 16.1 C 13.02 g/m*3 16.1 C 0 km/h
1774 05-09-2020 03:45:00 16.2 C 13.1 g/m*3 16.2 C 0 km/h
1775 05-09-2020 03:50:00 16.2 C 13.1 g/m*3 16.2 C 0 km/h
Sensor: Nr:Datum:Temp:Abs-Feuchte:Windchill:Wind:
Aussen-T/F 1776 05-09-2020 03:55:00 16.2 C 13.1 g/m*3 16.2 C 0 km/h
1777 05-09-2020 04:00:00 16.3 C 13.18 g/m*3 16.3 C 0 km/h
1778 05-09-2020 04:05:00 16.3 C 13.18 g/m*3 16.3 C 0 km/h
1779 05-09-2020 04:10:00 16.3 C 13.32 g/m*3 16.3 C 0 km/h
1780 05-09-2020 04:15:00 16.4 C 13.4 g/m*3 16.4 C 0 km/h
1781 05-09-2020 04:20:00 16.5 C 13.48 g/m*3 16.5 C 0 km/h
1782 05-09-2020 04:25:00 16.6 C 13.56 g/m*3 16.6 C 4.8 km/h
1783 05-09-2020 04:30:00 16.6 C 13.56 g/m*3 16.6 C 0 km/h
1784 05-09-2020 04:35:00 16.6 C 13.56 g/m*3 16.6 C 0 km/h
1785 05-09-2020 04:40:00 16.6 C 13.56 g/m*3 16.6 C 0 km/h
1786 05-09-2020 04:45:00 16.6 C 13.56 g/m*3 16.6 C 0 km/h
1787 05-09-2020 04:50:00 16.6 C 13.56 g/m*3 16.6 C 0 km/h
1788 05-09-2020 04:55:00 16.7 C 13.64 g/m*3 16.7 C 0 km/h
1789 05-09-2020 05:00:00 16.7 C 13.64 g/m*3 16.7 C 0 km/h
1790 05-09-2020 05:05:00 16.7 C 13.64 g/m*3 16.7 C 0 km/h
1791 05-09-2020 05:10:00 16.7 C 13.64 g/m*3 16.7 C 0 km/h
1792 05-09-2020 05:15:00 16.7 C 13.64 g/m*3 16.7 C 0 km/h
1793 05-09-2020 05:20:00 16.7 C 13.64 g/m*3 16.7 C 0 km/h
1794 05-09-2020 05:25:00 16.7 C 13.64 g/m*3 16.7 C 0 km/h
1795 05-09-2020 05:30:00 16.7 C 13.64 g/m*3 16.7 C 0 km/h
1796 05-09-2020 05:35:00 16.7 C 13.5 g/m*3 16.7 C 0 km/h
1797 05-09-2020 05:40:00 16.7 C 13.5 g/m*3 16.7 C 0 km/h
1798 05-09-2020 05:45:00 16.7 C 13.5 g/m*3 16.7 C 0 km/h
1799 05-09-2020 05:50:00 16.7 C 13.5 g/m*3 16.7 C 0 km/h
1800 05-09-2020 05:55:00 16.7 C 13.5 g/m*3 16.7 C 0 km/h
Sensor: Nr:Datum:Temp:Abs-Feuchte:Windchill:Wind:
Aussen-T/F 1801 05-09-2020 06:00:00 16.7 C 13.5 g/m*3 16.7 C 0 km/h
1802 05-09-2020 06:05:00 16.7 C 13.5 g/m*3 16.7 C 0 km/h
1803 05-09-2020 06:10:00 16.7 C 13.5 g/m*3 16.7 C 0 km/h
1804 05-09-2020 06:15:00 16.7 C 13.5 g/m*3 16.7 C 8.1 km/h
1805 05-09-2020 06:20:00 16.6 C 13.42 g/m*3 16.6 C 4.8 km/h
1806 05-09-2020 06:25:00 16.4 C 13.12 g/m*3 16.4 C 9.7 km/h
1807 05-09-2020 06:30:00 16 C 12.4 g/m*3 16 C 12.9 km/h
1808 05-09-2020 06:35:00 15.9 C 12.05 g/m*3 15.9 C 4.8 km/h
1809 05-09-2020 06:40:00 15.8 C 11.85 g/m*3 15.8 C 8.1 km/h
1810 05-09-2020 06:45:00 15.8 C 11.58 g/m*3 15.8 C 12.9 km/h
1811 05-09-2020 06:50:00 15.9 C 11.65 g/m*3 15.9 C 6.4 km/h
1812 05-09-2020 06:55:00 15.9 C 11.51 g/m*3 15.9 C 4.8 km/h
1813 05-09-2020 07:00:00 15.9 C 11.51 g/m*3 15.9 C 3.2 km/h
1814 05-09-2020 07:05:00 15.9 C 11.51 g/m*3 15.9 C 3.2 km/h
1815 05-09-2020 07:10:00 15.9 C 11.38 g/m*3 15.9 C 1.6 km/h
1816 05-09-2020 07:15:00 15.9 C 11.38 g/m*3 15.9 C 6.4 km/h
1817 05-09-2020 07:20:00 15.9 C 11.51 g/m*3 15.9 C 4.8 km/h
1818 05-09-2020 07:25:00 15.9 C 11.38 g/m*3 15.9 C 1.6 km/h
1819 05-09-2020 07:30:00 15.8 C 11.44 g/m*3 15.8 C 3.2 km/h
1820 05-09-2020 07:35:00 15.8 C 11.44 g/m*3 15.8 C 1.6 km/h
1821 05-09-2020 07:40:00 15.8 C 11.44 g/m*3 15.8 C 6.4 km/h
1822 05-09-2020 07:45:00 15.7 C 11.37 g/m*3 15.7 C 6.4 km/h
1823 05-09-2020 07:50:00 15.7 C 11.37 g/m*3 15.7 C 8.1 km/h
1824 05-09-2020 07:55:00 15.6 C 11.3 g/m*3 15.6 C 1.6 km/h
1825 05-09-2020 08:00:00 15.6 C 11.3 g/m*3 15.6 C 4.8 km/h
Sensor: Nr:Datum:Temp:Abs-Feuchte:Windchill:Wind:
Aussen-T/F 1826 05-09-2020 08:05:00 15.6 C 11.3 g/m*3 15.6 C 6.4 km/h
1827 05-09-2020 08:10:00 15.6 C 11.3 g/m*3 15.6 C 3.2 km/h
1828 05-09-2020 08:15:00 15.6 C 11.3 g/m*3 15.6 C 1.6 km/h
1829 05-09-2020 08:20:00 15.5 C 11.24 g/m*3 15.5 C 4.8 km/h
1830 05-09-2020 08:25:00 15.5 C 11.24 g/m*3 15.5 C 1.6 km/h
1831 05-09-2020 08:30:00 15.5 C 11.37 g/m*3 15.5 C 0 km/h
1832 05-09-2020 08:35:00 15.5 C 11.37 g/m*3 15.5 C 0 km/h
1833 05-09-2020 08:40:00 15.4 C 11.3 g/m*3 15.4 C 3.2 km/h
1834 05-09-2020 08:45:00 15.4 C 11.3 g/m*3 15.4 C 0 km/h
1835 05-09-2020 08:50:00 15.4 C 11.3 g/m*3 15.4 C 0 km/h
1836 05-09-2020 08:55:00 15.5 C 11.37 g/m*3 15.5 C 1.6 km/h
1837 05-09-2020 09:00:00 15.6 C 11.44 g/m*3 15.6 C 1.6 km/h
1838 05-09-2020 09:05:00 15.6 C 11.44 g/m*3 15.6 C 1.6 km/h
1839 05-09-2020 09:10:00 15.7 C 11.37 g/m*3 15.7 C 3.2 km/h
1840 05-09-2020 09:15:00 15.8 C 11.44 g/m*3 15.8 C 3.2 km/h
1841 05-09-2020 09:20:00 15.9 C 11.38 g/m*3 15.9 C 3.2 km/h
1842 05-09-2020 09:25:00 15.9 C 11.24 g/m*3 15.9 C 4.8 km/h
1843 05-09-2020 09:30:00 15.9 C 11.38 g/m*3 15.9 C 1.6 km/h
1844 05-09-2020 09:35:00 15.9 C 11.24 g/m*3 15.9 C 0 km/h
1845 05-09-2020 09:40:00 15.9 C 11.24 g/m*3 15.9 C 1.6 km/h
1846 05-09-2020 09:45:00 16 C 11.44 g/m*3 16 C 6.4 km/h
1847 05-09-2020 09:50:00 16.1 C 11.24 g/m*3 16.1 C 4.8 km/h
1848 05-09-2020 09:55:00 16.2 C 11.31 g/m*3 16.2 C 9.7 km/h
1849 05-09-2020 10:00:00 16.2 C 11.31 g/m*3 16.2 C 4.8 km/h
1850 05-09-2020 10:05:00 16.2 C 11.17 g/m*3 16.2 C 6.4 km/h
Sensor: Nr:Datum:Temp:Abs-Feuchte:Windchill:Wind:
Aussen-T/F 1851 05-09-2020 10:10:00 16.2 C 11.17 g/m*3 16.2 C 1.6 km/h
1852 05-09-2020 10:15:00 16.3 C 11.24 g/m*3 16.3 C 3.2 km/h
1853 05-09-2020 10:20:00 16.3 C 11.24 g/m*3 16.3 C 1.6 km/h
1854 05-09-2020 10:25:00 16.4 C 11.31 g/m*3 16.4 C 9.7 km/h
1855 05-09-2020 10:30:00 16.6 C 11.3 g/m*3 16.6 C 9.7 km/h
1856 05-09-2020 10:35:00 16.8 C 11.44 g/m*3 16.8 C 6.4 km/h
1857 05-09-2020 10:40:00 17.1 C 11.79 g/m*3 17.1 C 6.4 km/h
1858 05-09-2020 10:45:00 17.2 C 11.86 g/m*3 17.2 C 11.3 km/h
1859 05-09-2020 10:50:00 17.2 C 11.72 g/m*3 17.2 C 9.7 km/h
1860 05-09-2020 10:55:00 17.2 C 11.57 g/m*3 17.2 C 11.3 km/h
1861 05-09-2020 11:00:00 17.2 C 11.72 g/m*3 17.2 C 9.7 km/h
1862 05-09-2020 11:05:00 17.3 C 11.64 g/m*3 17.3 C 4.8 km/h
1863 05-09-2020 11:10:00 17.4 C 11.56 g/m*3 17.4 C 9.7 km/h
1864 05-09-2020 11:15:00 17.5 C 11.63 g/m*3 17.5 C 8.1 km/h
1865 05-09-2020 11:20:00 17.6 C 11.4 g/m*3 17.6 C 12.9 km/h
1866 05-09-2020 11:25:00 17.8 C 11.54 g/m*3 17.8 C 8.1 km/h
1867 05-09-2020 11:30:00 17.9 C 11.76 g/m*3 17.9 C 0 km/h
1868 05-09-2020 11:35:00 18.2 C 11.66 g/m*3 18.2 C 8.1 km/h
1869 05-09-2020 11:40:00 18.2 C 11.5 g/m*3 18.2 C 6.4 km/h
1870 05-09-2020 11:45:00 18.2 C 11.5 g/m*3 18.2 C 6.4 km/h
1871 05-09-2020 11:50:00 18.1 C 11.43 g/m*3 18.1 C 8.1 km/h
1872 05-09-2020 11:55:00 18.1 C 11.43 g/m*3 18.1 C 12.9 km/h
1873 05-09-2020 12:00:00 18.1 C 11.59 g/m*3 18.1 C 4.8 km/h
1874 05-09-2020 12:05:00 18.1 C 11.43 g/m*3 18.1 C 14.5 km/h
1875 05-09-2020 12:10:00 18.2 C 11.5 g/m*3 18.2 C 11.3 km/h
Sensor: Nr:Datum:Temp:Abs-Feuchte:Windchill:Wind:
Aussen-T/F 1876 05-09-2020 12:15:00 18.3 C 11.41 g/m*3 18.3 C 9.7 km/h
1877 05-09-2020 12:20:00 18.3 C 11.41 g/m*3 18.3 C 11.3 km/h
1878 05-09-2020 12:25:00 18.3 C 11.26 g/m*3 18.3 C 11.3 km/h
1879 05-09-2020 12:30:00 18.4 C 11.48 g/m*3 18.4 C 9.7 km/h
1880 05-09-2020 12:35:00 18.5 C 11.39 g/m*3 18.5 C 6.4 km/h
1881 05-09-2020 12:40:00 18.6 C 11.14 g/m*3 18.6 C 12.9 km/h
1882 05-09-2020 12:45:00 18.6 C 11.14 g/m*3 18.6 C 17.7 km/h
1883 05-09-2020 12:50:00 18.5 C 11.23 g/m*3 18.5 C 11.3 km/h
1884 05-09-2020 12:55:00 18.5 C 11.39 g/m*3 18.5 C 12.9 km/h
1885 05-09-2020 13:00:00 18.6 C 11.3 g/m*3 18.6 C 11.3 km/h
1886 05-09-2020 13:05:00 18.6 C 11.3 g/m*3 18.6 C 12.9 km/h
1887 05-09-2020 13:10:00 18.6 C 11.3 g/m*3 18.6 C 8.1 km/h
1888 05-09-2020 13:15:00 18.6 C 11.3 g/m*3 18.6 C 8.1 km/h
1889 05-09-2020 13:20:00 18.6 C 11.3 g/m*3 18.6 C 17.7 km/h
1890 05-09-2020 13:25:00 18.6 C 11.3 g/m*3 18.6 C 14.5 km/h
1891 05-09-2020 13:30:00 18.7 C 11.53 g/m*3 18.7 C 9.7 km/h
1892 05-09-2020 13:35:00 18.7 C 11.21 g/m*3 18.7 C 12.9 km/h
1893 05-09-2020 13:40:00 18.7 C 11.37 g/m*3 18.7 C 11.3 km/h
1894 05-09-2020 13:45:00 18.6 C 11.3 g/m*3 18.6 C 11.3 km/h
1895 05-09-2020 13:50:00 18.7 C 11.37 g/m*3 18.7 C 8.1 km/h
1896 05-09-2020 13:55:00 18.7 C 11.21 g/m*3 18.7 C 6.4 km/h
1897 05-09-2020 14:00:00 18.8 C 10.95 g/m*3 18.8 C 12.9 km/h
1898 05-09-2020 14:05:00 18.8 C 10.95 g/m*3 18.8 C 14.5 km/h
1899 05-09-2020 14:10:00 18.8 C 11.11 g/m*3 18.8 C 6.4 km/h
1900 05-09-2020 14:15:00 18.9 C 11.18 g/m*3 18.9 C 14.5 km/h
Sensor: Nr:Datum:Temp:Abs-Feuchte:Windchill:Wind:
Aussen-T/F 1901 05-09-2020 14:20:00 19 C 11.24 g/m*3 19 C 12.9 km/h
1902 05-09-2020 14:25:00 19.1 C 11.15 g/m*3 19.1 C 12.9 km/h
1903 05-09-2020 14:30:00 19.2 C 11.21 g/m*3 19.2 C 11.3 km/h
1904 05-09-2020 14:35:00 19.1 C 11.15 g/m*3 19.1 C 12.9 km/h
1905 05-09-2020 14:40:00 18.9 C 11.18 g/m*3 18.9 C 12.9 km/h
1906 05-09-2020 14:45:00 18.7 C 11.37 g/m*3 18.7 C 17.7 km/h
1907 05-09-2020 14:50:00 18.4 C 11.32 g/m*3 18.4 C 12.9 km/h
1908 05-09-2020 14:55:00 18.2 C 11.19 g/m*3 18.2 C 12.9 km/h
1909 05-09-2020 15:00:00 18 C 11.21 g/m*3 18 C 16.1 km/h
1910 05-09-2020 15:05:00 17.8 C 11.23 g/m*3 17.8 C 8.1 km/h
1911 05-09-2020 15:10:00 17.7 C 11.32 g/m*3 17.7 C 14.5 km/h
1912 05-09-2020 15:15:00 17.6 C 11.1 g/m*3 17.6 C 9.7 km/h
1913 05-09-2020 15:20:00 17.6 C 11.1 g/m*3 17.6 C 8.1 km/h
1914 05-09-2020 15:25:00 17.5 C 11.03 g/m*3 17.5 C 8.1 km/h
1915 05-09-2020 15:30:00 17.4 C 10.97 g/m*3 17.4 C 11.3 km/h
1916 05-09-2020 15:35:00 17.5 C 11.03 g/m*3 17.5 C 11.3 km/h
1917 05-09-2020 15:40:00 17.7 C 11.01 g/m*3 17.7 C 11.3 km/h
1918 05-09-2020 15:45:00 18 C 11.21 g/m*3 18 C 9.7 km/h
1919 05-09-2020 15:50:00 18.2 C 10.88 g/m*3 18.2 C 16.1 km/h
1920 05-09-2020 15:55:00 18.2 C 10.72 g/m*3 18.2 C 11.3 km/h
1921 05-09-2020 16:00:00 18.2 C 10.88 g/m*3 18.2 C 11.3 km/h
1922 05-09-2020 16:05:00 18.2 C 10.72 g/m*3 18.2 C 11.3 km/h
1923 05-09-2020 16:10:00 18.2 C 10.57 g/m*3 18.2 C 9.7 km/h
1924 05-09-2020 16:15:00 18.3 C 10.63 g/m*3 18.3 C 11.3 km/h
1925 05-09-2020 16:20:00 18.5 C 10.76 g/m*3 18.5 C 8.1 km/h
Sensor: Nr:Datum:Temp:Abs-Feuchte:Windchill:Wind:
Aussen-T/F 1926 05-09-2020 16:25:00 18.7 C 10.73 g/m*3 18.7 C 11.3 km/h
1927 05-09-2020 16:30:00 18.8 C 10.63 g/m*3 18.8 C 8.1 km/h
1928 05-09-2020 16:35:00 18.9 C 10.85 g/m*3 18.9 C 11.3 km/h
1929 05-09-2020 16:40:00 19.1 C 10.66 g/m*3 19.1 C 6.4 km/h
1930 05-09-2020 16:45:00 19.1 C 10.66 g/m*3 19.1 C 8.1 km/h
1931 05-09-2020 16:50:00 19.1 C 10.49 g/m*3 19.1 C 9.7 km/h
1932 05-09-2020 16:55:00 19.1 C 10.49 g/m*3 19.1 C 9.7 km/h
1933 05-09-2020 17:00:00 19 C 10.27 g/m*3 19 C 9.7 km/h
1934 05-09-2020 17:05:00 19 C 10.43 g/m*3 19 C 8.1 km/h
1935 05-09-2020 17:10:00 19.2 C 10.39 g/m*3 19.2 C 9.7 km/h
1936 05-09-2020 17:15:00 19.3 C 10.12 g/m*3 19.3 C 11.3 km/h
1937 05-09-2020 17:20:00 19.4 C 10.34 g/m*3 19.4 C 9.7 km/h
1938 05-09-2020 17:25:00 19.5 C 10.07 g/m*3 19.5 C 8.1 km/h
1939 05-09-2020 17:30:00 19.6 C 9.96 g/m*3 19.6 C 9.7 km/h
1940 05-09-2020 17:35:00 19.6 C 9.96 g/m*3 19.6 C 11.3 km/h
1941 05-09-2020 17:40:00 19.6 C 9.79 g/m*3 19.6 C 9.7 km/h
1942 05-09-2020 17:45:00 19.7 C 9.68 g/m*3 19.7 C 11.3 km/h
1943 05-09-2020 17:50:00 19.7 C 9.68 g/m*3 19.7 C 6.4 km/h
1944 05-09-2020 17:55:00 19.7 C 9.85 g/m*3 19.7 C 8.1 km/h
1945 05-09-2020 18:00:00 19.7 C 9.51 g/m*3 19.7 C 12.9 km/h
1946 05-09-2020 18:05:00 19.6 C 9.28 g/m*3 19.6 C 9.7 km/h
1947 05-09-2020 18:10:00 19.5 C 9.57 g/m*3 19.5 C 4.8 km/h
1948 05-09-2020 18:15:00 19.5 C 9.57 g/m*3 19.5 C 6.4 km/h
1949 05-09-2020 18:20:00 19.8 C 9.22 g/m*3 19.8 C 8.1 km/h
1950 05-09-2020 18:25:00 20.3 C 9.15 g/m*3 20.3 C 6.4 km/h
Sensor: Nr:Datum:Temp:Abs-Feuchte:Windchill:Wind:
Aussen-T/F 1951 05-09-2020 18:30:00 20.7 C 9.36 g/m*3 20.7 C 6.4 km/h
1952 05-09-2020 18:35:00 20.7 C 8.82 g/m*3 20.7 C 11.3 km/h
1953 05-09-2020 18:40:00 20.8 C 8.51 g/m*3 20.8 C 9.7 km/h
1954 05-09-2020 18:45:00 20.8 C 8.33 g/m*3 20.8 C 12.9 km/h
1955 05-09-2020 18:50:00 20.7 C 9 g/m*3 20.7 C 1.6 km/h
1956 05-09-2020 18:55:00 20.3 C 8.44 g/m*3 20.3 C 4.8 km/h
1957 05-09-2020 19:00:00 19.9 C 8.59 g/m*3 19.9 C 3.2 km/h
1958 05-09-2020 19:05:00 19.6 C 8.44 g/m*3 19.6 C 8.1 km/h
1959 05-09-2020 19:10:00 19.5 C 9.57 g/m*3 19.5 C 4.8 km/h
1960 05-09-2020 19:15:00 19.4 C 10.01 g/m*3 19.4 C 0 km/h
1961 05-09-2020 19:20:00 19.1 C 9.34 g/m*3 19.1 C 0 km/h
1962 05-09-2020 19:25:00 18.8 C 9.18 g/m*3 18.8 C 0 km/h
1963 05-09-2020 19:30:00 18.6 C 9.23 g/m*3 18.6 C 0 km/h
1964 05-09-2020 19:35:00 18.3 C 9.69 g/m*3 18.3 C 0 km/h
1965 05-09-2020 19:40:00 18 C 9.68 g/m*3 18 C 3.2 km/h
1966 05-09-2020 19:45:00 17.6 C 9.15 g/m*3 17.6 C 1.6 km/h
1967 05-09-2020 19:50:00 17.3 C 8.69 g/m*3 17.3 C 0 km/h
1968 05-09-2020 19:55:00 17.1 C 9.03 g/m*3 17.1 C 0 km/h
1969 05-09-2020 20:00:00 16.8 C 9.29 g/m*3 16.8 C 0 km/h
1970 05-09-2020 20:05:00 16.7 C 8.81 g/m*3 16.7 C 6.4 km/h
1971 05-09-2020 20:10:00 16.7 C 8.81 g/m*3 16.7 C 8.1 km/h
1972 05-09-2020 20:15:00 16.7 C 8.95 g/m*3 16.7 C 4.8 km/h
1973 05-09-2020 20:20:00 16.7 C 8.95 g/m*3 16.7 C 0 km/h
1974 05-09-2020 20:25:00 16.7 C 9.38 g/m*3 16.7 C 0 km/h
1975 05-09-2020 20:30:00 16.6 C 9.18 g/m*3 16.6 C 6.4 km/h
Sensor: Nr:Datum:Temp:Abs-Feuchte:Windchill:Wind:
Aussen-T/F 1976 05-09-2020 20:35:00 16.5 C 9.27 g/m*3 16.5 C 4.8 km/h
1977 05-09-2020 20:40:00 16.3 C 9.3 g/m*3 16.3 C 3.2 km/h
1978 05-09-2020 20:45:00 16.1 C 9.46 g/m*3 16.1 C 4.8 km/h
1979 05-09-2020 20:50:00 15.7 C 9.37 g/m*3 15.7 C 4.8 km/h
1980 05-09-2020 20:55:00 15.4 C 9.46 g/m*3 15.4 C 0 km/h
1981 05-09-2020 21:00:00 15.1 C 9.42 g/m*3 15.1 C 6.4 km/h
1982 05-09-2020 21:05:00 14.9 C 9.43 g/m*3 14.9 C 4.8 km/h
1983 05-09-2020 21:10:00 14.7 C 9.44 g/m*3 14.7 C 0 km/h
1984 05-09-2020 21:15:00 14.5 C 9.33 g/m*3 14.5 C 0 km/h
1985 05-09-2020 21:20:00 14.4 C 9.39 g/m*3 14.4 C 3.2 km/h
1986 05-09-2020 21:25:00 14.3 C 9.46 g/m*3 14.3 C 3.2 km/h
1987 05-09-2020 21:30:00 14.2 C 9.28 g/m*3 14.2 C 3.2 km/h
1988 05-09-2020 21:35:00 14.2 C 9.28 g/m*3 14.2 C 0 km/h
1989 05-09-2020 21:40:00 14.2 C 9.4 g/m*3 14.2 C 4.8 km/h
1990 05-09-2020 21:45:00 14.1 C 9.22 g/m*3 14.1 C 1.6 km/h
1991 05-09-2020 21:50:00 13.9 C 9.23 g/m*3 13.9 C 4.8 km/h
1992 05-09-2020 21:55:00 13.8 C 9.29 g/m*3 13.8 C 4.8 km/h
1993 05-09-2020 22:00:00 13.8 C 9.29 g/m*3 13.8 C 3.2 km/h
1994 05-09-2020 22:05:00 13.7 C 9.12 g/m*3 13.7 C 6.4 km/h
1995 05-09-2020 22:10:00 13.7 C 9.24 g/m*3 13.7 C 4.8 km/h
1996 05-09-2020 22:15:00 13.7 C 9.24 g/m*3 13.7 C 4.8 km/h
1997 05-09-2020 22:20:00 13.7 C 9.24 g/m*3 13.7 C 4.8 km/h
1998 05-09-2020 22:25:00 13.7 C 9.24 g/m*3 13.7 C 4.8 km/h
1999 05-09-2020 22:30:00 13.6 C 9.18 g/m*3 13.6 C 4.8 km/h
2000 05-09-2020 22:35:00 13.7 C 9.24 g/m*3 13.7 C 6.4 km/h
Sensor: Nr:Datum:Temp:Abs-Feuchte:Windchill:Wind:
Aussen-T/F 2001 05-09-2020 22:40:00 13.8 C 9.29 g/m*3 13.8 C 3.2 km/h
2002 05-09-2020 22:45:00 13.8 C 9.41 g/m*3 13.8 C 0 km/h
2003 05-09-2020 22:50:00 13.8 C 9.41 g/m*3 13.8 C 0 km/h
2004 05-09-2020 22:55:00 13.7 C 9.35 g/m*3 13.7 C 0 km/h
2005 05-09-2020 23:00:00 13.6 C 9.3 g/m*3 13.6 C 0 km/h
2006 05-09-2020 23:05:00 13.4 C 9.18 g/m*3 13.4 C 4.8 km/h
2007 05-09-2020 23:10:00 13.3 C 9.24 g/m*3 13.3 C 4.8 km/h
2008 05-09-2020 23:15:00 13.2 C 9.19 g/m*3 13.2 C 3.2 km/h
2009 05-09-2020 23:20:00 13.1 C 9.24 g/m*3 13.1 C 6.4 km/h
2010 05-09-2020 23:25:00 13.1 C 9.24 g/m*3 13.1 C 4.8 km/h
2011 05-09-2020 23:30:00 13.1 C 9.36 g/m*3 13.1 C 6.4 km/h
2012 05-09-2020 23:35:00 12.9 C 9.24 g/m*3 12.9 C 4.8 km/h
2013 05-09-2020 23:40:00 12.9 C 9.24 g/m*3 12.9 C 4.8 km/h
2014 05-09-2020 23:45:00 12.8 C 9.07 g/m*3 12.8 C 4.8 km/h
2015 05-09-2020 23:50:00 12.8 C 9.18 g/m*3 12.8 C 4.8 km/h
2016 05-09-2020 23:55:00 12.8 C 9.18 g/m*3 12.8 C 4.8 km/h
2017 06-09-2020 00:00:00 12.8 C 9.18 g/m*3 12.8 C 3.2 km/h
2018 06-09-2020 00:05:00 12.8 C 9.18 g/m*3 12.8 C 3.2 km/h
2019 06-09-2020 00:10:00 12.7 C 9.24 g/m*3 12.7 C 3.2 km/h
2020 06-09-2020 00:15:00 12.7 C 9.24 g/m*3 12.7 C 4.8 km/h
2021 06-09-2020 00:20:00 12.7 C 9.24 g/m*3 12.7 C 4.8 km/h
2022 06-09-2020 00:25:00 12.6 C 9.18 g/m*3 12.6 C 3.2 km/h
2023 06-09-2020 00:30:00 12.6 C 9.18 g/m*3 12.6 C 0 km/h
2024 06-09-2020 00:35:00 12.5 C 9.13 g/m*3 12.5 C 3.2 km/h
2025 06-09-2020 00:40:00 12.4 C 9.18 g/m*3 12.4 C 1.6 km/h
Sensor: Nr:Datum:Temp:Abs-Feuchte:Windchill:Wind:
Aussen-T/F 2026 06-09-2020 00:45:00 12.3 C 9.12 g/m*3 12.3 C 4.8 km/h
2027 06-09-2020 00:50:00 12.3 C 9.23 g/m*3 12.3 C 1.6 km/h
2028 06-09-2020 00:55:00 12.2 C 9.17 g/m*3 12.2 C 0 km/h
2029 06-09-2020 01:00:00 12.2 C 9.17 g/m*3 12.2 C 0 km/h
2030 06-09-2020 01:05:00 12.1 C 9.22 g/m*3 12.1 C 0 km/h
2031 06-09-2020 01:10:00 11.9 C 9.11 g/m*3 11.9 C 0 km/h
2032 06-09-2020 01:15:00 11.9 C 9.11 g/m*3 11.9 C 0 km/h
2033 06-09-2020 01:20:00 11.8 C 9.16 g/m*3 11.8 C 0 km/h
2034 06-09-2020 01:25:00 11.8 C 9.16 g/m*3 11.8 C 0 km/h
2035 06-09-2020 01:30:00 11.8 C 9.16 g/m*3 11.8 C 0 km/h
2036 06-09-2020 01:35:00 11.7 C 9.1 g/m*3 11.7 C 0 km/h
2037 06-09-2020 01:40:00 11.6 C 9.04 g/m*3 11.6 C 0 km/h
2038 06-09-2020 01:45:00 11.4 C 8.93 g/m*3 11.4 C 0 km/h
2039 06-09-2020 01:50:00 11.3 C 8.87 g/m*3 11.3 C 0 km/h
2040 06-09-2020 01:55:00 11.2 C 8.92 g/m*3 11.2 C 0 km/h
2041 06-09-2020 02:00:00 11.1 C 8.76 g/m*3 11.1 C 0 km/h
2042 06-09-2020 02:05:00 10.9 C 8.75 g/m*3 10.9 C 0 km/h
2043 06-09-2020 02:10:00 10.8 C 8.7 g/m*3 10.8 C 0 km/h
2044 06-09-2020 02:15:00 10.7 C 8.64 g/m*3 10.7 C 1.6 km/h
2045 06-09-2020 02:20:00 10.6 C 8.69 g/m*3 10.6 C 0 km/h
2046 06-09-2020 02:25:00 10.5 C 8.63 g/m*3 10.5 C 0 km/h
2047 06-09-2020 02:30:00 10.4 C 8.58 g/m*3 10.4 C 0 km/h
2048 06-09-2020 02:35:00 10.4 C 8.58 g/m*3 10.4 C 0 km/h
2049 06-09-2020 02:40:00 10.3 C 8.52 g/m*3 10.3 C 0 km/h
2050 06-09-2020 02:45:00 10.2 C 8.47 g/m*3 10.2 C 0 km/h
Sensor: Nr:Datum:Temp:Abs-Feuchte:Windchill:Wind:
Aussen-T/F 2051 06-09-2020 02:50:00 10.2 C 8.56 g/m*3 10.2 C 0 km/h
2052 06-09-2020 02:55:00 10.1 C 8.51 g/m*3 10.1 C 0 km/h
2053 06-09-2020 03:00:00 10 C 8.46 g/m*3 10 C 0 km/h
2054 06-09-2020 03:05:00 9.9 C 8.4 g/m*3 9.9 C 0 km/h
2055 06-09-2020 03:10:00 9.9 C 8.4 g/m*3 9.9 C 0 km/h
2056 06-09-2020 03:15:00 9.8 C 8.35 g/m*3 9.8 C 1.6 km/h
2057 06-09-2020 03:20:00 9.7 C 8.3 g/m*3 9.7 C 0 km/h
2058 06-09-2020 03:25:00 9.7 C 8.39 g/m*3 9.7 C 0 km/h
2059 06-09-2020 03:30:00 9.6 C 8.34 g/m*3 9.6 C 0 km/h
2060 06-09-2020 03:35:00 9.6 C 8.34 g/m*3 9.6 C 0 km/h
2061 06-09-2020 03:40:00 9.5 C 8.28 g/m*3 9.5 C 0 km/h
2062 06-09-2020 03:45:00 9.4 C 8.23 g/m*3 9.4 C 1.6 km/h
2063 06-09-2020 03:50:00 9.4 C 8.32 g/m*3 9.4 C 0 km/h
2064 06-09-2020 03:55:00 9.3 C 8.27 g/m*3 9.3 C 0 km/h
2065 06-09-2020 04:00:00 9.3 C 8.27 g/m*3 9.3 C 0 km/h
2066 06-09-2020 04:05:00 9.3 C 8.36 g/m*3 9.3 C 0 km/h
2067 06-09-2020 04:10:00 9.3 C 8.27 g/m*3 9.3 C 0 km/h
2068 06-09-2020 04:15:00 9.3 C 8.27 g/m*3 9.3 C 0 km/h
2069 06-09-2020 04:20:00 9.2 C 8.22 g/m*3 9.2 C 0 km/h
2070 06-09-2020 04:25:00 9.1 C 8.16 g/m*3 9.1 C 0 km/h
2071 06-09-2020 04:30:00 9.1 C 8.16 g/m*3 9.1 C 0 km/h
2072 06-09-2020 04:35:00 8.9 C 8.06 g/m*3 8.9 C 0 km/h
2073 06-09-2020 04:40:00 8.9 C 8.06 g/m*3 8.9 C 0 km/h
2074 06-09-2020 04:45:00 8.8 C 8.01 g/m*3 8.8 C 1.6 km/h
2075 06-09-2020 04:50:00 8.8 C 8.09 g/m*3 8.8 C 0 km/h
Sensor: Nr:Datum:Temp:Abs-Feuchte:Windchill:Wind:
Aussen-T/F 2076 06-09-2020 04:55:00 8.8 C 8.09 g/m*3 8.8 C 0 km/h
2077 06-09-2020 05:00:00 8.7 C 8.04 g/m*3 8.7 C 1.6 km/h
2078 06-09-2020 05:05:00 8.7 C 8.04 g/m*3 8.7 C 0 km/h
2079 06-09-2020 05:10:00 8.7 C 8.04 g/m*3 8.7 C 0 km/h
2080 06-09-2020 05:15:00 8.7 C 8.04 g/m*3 8.7 C 0 km/h
2081 06-09-2020 05:20:00 8.6 C 7.99 g/m*3 8.6 C 1.6 km/h
2082 06-09-2020 05:25:00 8.6 C 7.99 g/m*3 8.6 C 1.6 km/h
2083 06-09-2020 05:30:00 8.6 C 8.08 g/m*3 8.6 C 0 km/h
2084 06-09-2020 05:35:00 8.7 C 8.13 g/m*3 8.7 C 0 km/h
2085 06-09-2020 05:40:00 8.6 C 8.08 g/m*3 8.6 C 0 km/h
2086 06-09-2020 05:45:00 8.6 C 7.99 g/m*3 8.6 C 0 km/h
2087 06-09-2020 05:50:00 8.4 C 7.97 g/m*3 8.4 C 0 km/h
2088 06-09-2020 05:55:00 8.4 C 7.97 g/m*3 8.4 C 0 km/h
2089 06-09-2020 06:00:00 8.3 C 7.84 g/m*3 8.3 C 0 km/h
2090 06-09-2020 06:05:00 8.3 C 7.84 g/m*3 8.3 C 0 km/h
2091 06-09-2020 06:10:00 8.2 C 7.87 g/m*3 8.2 C 0 km/h
2092 06-09-2020 06:15:00 8.2 C 7.87 g/m*3 8.2 C 0 km/h
2093 06-09-2020 06:20:00 8.1 C 7.82 g/m*3 8.1 C 0 km/h
2094 06-09-2020 06:25:00 8.1 C 7.82 g/m*3 8.1 C 0 km/h
2095 06-09-2020 06:30:00 8 C 7.77 g/m*3 8 C 0 km/h
2096 06-09-2020 06:35:00 8.1 C 7.82 g/m*3 8.1 C 0 km/h
2097 06-09-2020 06:40:00 8.2 C 7.87 g/m*3 8.2 C 0 km/h
2098 06-09-2020 06:45:00 8.2 C 7.87 g/m*3 8.2 C 0 km/h
2099 06-09-2020 06:50:00 8.2 C 7.87 g/m*3 8.2 C 0 km/h
2100 06-09-2020 06:55:00 8.2 C 7.87 g/m*3 8.2 C 0 km/h
Sensor: Nr:Datum:Temp:Abs-Feuchte:Windchill:Wind:
Aussen-T/F 2101 06-09-2020 07:00:00 8.1 C 7.82 g/m*3 8.1 C 0 km/h
2102 06-09-2020 07:05:00 7.9 C 7.72 g/m*3 7.9 C 0 km/h
2103 06-09-2020 07:10:00 7.9 C 7.72 g/m*3 7.9 C 1.6 km/h
2104 06-09-2020 07:15:00 7.9 C 7.8 g/m*3 7.9 C 0 km/h
2105 06-09-2020 07:20:00 8 C 7.85 g/m*3 8 C 0 km/h
2106 06-09-2020 07:25:00 8 C 7.85 g/m*3 8 C 0 km/h
2107 06-09-2020 07:30:00 8.1 C 7.9 g/m*3 8.1 C 0 km/h
2108 06-09-2020 07:35:00 8.1 C 7.9 g/m*3 8.1 C 0 km/h
2109 06-09-2020 07:40:00 8.1 C 7.9 g/m*3 8.1 C 0 km/h
2110 06-09-2020 07:45:00 8.1 C 7.9 g/m*3 8.1 C 0 km/h
2111 06-09-2020 07:50:00 8.1 C 7.9 g/m*3 8.1 C 0 km/h
2112 06-09-2020 07:55:00 8.1 C 7.9 g/m*3 8.1 C 0 km/h
2113 06-09-2020 08:00:00 8 C 7.85 g/m*3 8 C 0 km/h
2114 06-09-2020 08:05:00 8 C 7.85 g/m*3 8 C 0 km/h
2115 06-09-2020 08:10:00 8 C 7.85 g/m*3 8 C 0 km/h
2116 06-09-2020 08:15:00 8 C 7.85 g/m*3 8 C 0 km/h
2117 06-09-2020 08:20:00 8.1 C 7.9 g/m*3 8.1 C 0 km/h
2118 06-09-2020 08:25:00 8.1 C 7.9 g/m*3 8.1 C 0 km/h
2119 06-09-2020 08:30:00 8.1 C 7.9 g/m*3 8.1 C 0 km/h
2120 06-09-2020 08:35:00 8.1 C 7.9 g/m*3 8.1 C 3.2 km/h
2121 06-09-2020 08:40:00 8.2 C 7.96 g/m*3 8.2 C 3.2 km/h
2122 06-09-2020 08:45:00 8.2 C 7.96 g/m*3 8.2 C 0 km/h
2123 06-09-2020 08:50:00 8.3 C 8.01 g/m*3 8.3 C 0 km/h
2124 06-09-2020 08:55:00 8.4 C 8.06 g/m*3 8.4 C 0 km/h
2125 06-09-2020 09:00:00 8.5 C 8.2 g/m*3 8.5 C 0 km/h
Sensor: Nr:Datum:Temp:Abs-Feuchte:Windchill:Wind:
Aussen-T/F 2126 06-09-2020 09:05:00 8.6 C 8.25 g/m*3 8.6 C 1.6 km/h
2127 06-09-2020 09:10:00 8.7 C 8.22 g/m*3 8.7 C 0 km/h
2128 06-09-2020 09:15:00 8.7 C 8.22 g/m*3 8.7 C 0 km/h
2129 06-09-2020 09:20:00 8.8 C 8.27 g/m*3 8.8 C 3.2 km/h
2130 06-09-2020 09:25:00 8.8 C 8.36 g/m*3 8.8 C 3.2 km/h
2131 06-09-2020 09:30:00 8.9 C 8.41 g/m*3 8.9 C 0 km/h
2132 06-09-2020 09:35:00 9.1 C 8.52 g/m*3 9.1 C 0 km/h
2133 06-09-2020 09:40:00 9.2 C 8.57 g/m*3 9.2 C 0 km/h
2134 06-09-2020 09:45:00 9.3 C 8.63 g/m*3 9.3 C 3.2 km/h
2135 06-09-2020 09:50:00 9.4 C 8.68 g/m*3 9.4 C 4.8 km/h
2136 06-09-2020 09:55:00 9.6 C 8.79 g/m*3 9.6 C 0 km/h
2137 06-09-2020 10:00:00 9.7 C 8.85 g/m*3 9.7 C 0 km/h
2138 06-09-2020 10:05:00 9.8 C 8.91 g/m*3 9.8 C 1.6 km/h
2139 06-09-2020 10:10:00 9.9 C 8.96 g/m*3 9.9 C 1.6 km/h
2140 06-09-2020 10:15:00 10.1 C 9.08 g/m*3 10.1 C 1.6 km/h
2141 06-09-2020 10:20:00 10.3 C 9.19 g/m*3 10.3 C 0 km/h
2142 06-09-2020 10:25:00 10.4 C 9.25 g/m*3 10.4 C 0 km/h
2143 06-09-2020 10:30:00 10.6 C 9.37 g/m*3 10.6 C 0 km/h
2144 06-09-2020 10:35:00 10.8 C 9.39 g/m*3 10.8 C 0 km/h
2145 06-09-2020 10:40:00 11.1 C 9.57 g/m*3 11.1 C 0 km/h
2146 06-09-2020 10:45:00 11.3 C 9.59 g/m*3 11.3 C 0 km/h
2147 06-09-2020 10:50:00 11.6 C 9.77 g/m*3 11.6 C 0 km/h
2148 06-09-2020 10:55:00 11.8 C 9.79 g/m*3 11.8 C 0 km/h
2149 06-09-2020 11:00:00 12.1 C 9.76 g/m*3 12.1 C 0 km/h
2150 06-09-2020 11:05:00 12.4 C 9.83 g/m*3 12.4 C 0 km/h
Sensor: Nr:Datum:Temp:Abs-Feuchte:Windchill:Wind:
Aussen-T/F 2151 06-09-2020 11:10:00 12.7 C 9.68 g/m*3 12.7 C 0 km/h
2152 06-09-2020 11:15:00 12.9 C 9.81 g/m*3 12.9 C 0 km/h
2153 06-09-2020 11:20:00 13.3 C 9.82 g/m*3 13.3 C 0 km/h
2154 06-09-2020 11:25:00 13.6 C 9.77 g/m*3 13.6 C 0 km/h
2155 06-09-2020 11:30:00 14 C 9.53 g/m*3 14 C 0 km/h
2156 06-09-2020 11:35:00 14.4 C 9.52 g/m*3 14.4 C 0 km/h
2157 06-09-2020 11:40:00 14.7 C 9.32 g/m*3 14.7 C 0 km/h
2158 06-09-2020 11:45:00 15 C 9.23 g/m*3 15 C 0 km/h
2159 06-09-2020 11:50:00 15.3 C 9.4 g/m*3 15.3 C 0 km/h
2160 06-09-2020 11:55:00 15.7 C 9.5 g/m*3 15.7 C 6.4 km/h
2161 06-09-2020 12:00:00 15.8 C 9.29 g/m*3 15.8 C 4.8 km/h
2162 06-09-2020 12:05:00 16 C 9.4 g/m*3 16 C 4.8 km/h
2163 06-09-2020 12:10:00 16.1 C 9.32 g/m*3 16.1 C 0 km/h
2164 06-09-2020 12:15:00 16.2 C 9.38 g/m*3 16.2 C 3.2 km/h
2165 06-09-2020 12:20:00 16.3 C 9.3 g/m*3 16.3 C 6.4 km/h
2166 06-09-2020 12:25:00 16.3 C 9.16 g/m*3 16.3 C 3.2 km/h
2167 06-09-2020 12:30:00 16.4 C 9.07 g/m*3 16.4 C 9.7 km/h
2168 06-09-2020 12:35:00 16.6 C 9.04 g/m*3 16.6 C 8.1 km/h
2169 06-09-2020 12:40:00 16.7 C 9.1 g/m*3 16.7 C 3.2 km/h
2170 06-09-2020 12:45:00 16.8 C 9.01 g/m*3 16.8 C 0 km/h
2171 06-09-2020 12:50:00 16.9 C 8.92 g/m*3 16.9 C 6.4 km/h
2172 06-09-2020 12:55:00 17.1 C 9.17 g/m*3 17.1 C 8.1 km/h
2173 06-09-2020 13:00:00 17.2 C 9.23 g/m*3 17.2 C 8.1 km/h
2174 06-09-2020 13:05:00 17.3 C 8.99 g/m*3 17.3 C 8.1 km/h
2175 06-09-2020 13:10:00 17.4 C 8.89 g/m*3 17.4 C 3.2 km/h
Sensor: Nr:Datum:Temp:Abs-Feuchte:Windchill:Wind:
Aussen-T/F 2176 06-09-2020 13:15:00 17.4 C 8.89 g/m*3 17.4 C 8.1 km/h
2177 06-09-2020 13:20:00 17.5 C 8.8 g/m*3 17.5 C 6.4 km/h
2178 06-09-2020 13:25:00 17.5 C 8.65 g/m*3 17.5 C 0 km/h
2179 06-09-2020 13:30:00 17.4 C 8.89 g/m*3 17.4 C 0 km/h
2180 06-09-2020 13:35:00 17.4 C 8.74 g/m*3 17.4 C 0 km/h
2181 06-09-2020 13:40:00 17.4 C 8.74 g/m*3 17.4 C 0 km/h
2182 06-09-2020 13:45:00 17.5 C 8.65 g/m*3 17.5 C 0 km/h
2183 06-09-2020 13:50:00 17.6 C 8.85 g/m*3 17.6 C 6.4 km/h
2184 06-09-2020 13:55:00 17.8 C 8.65 g/m*3 17.8 C 8.1 km/h
2185 06-09-2020 14:00:00 17.9 C 8.7 g/m*3 17.9 C 8.1 km/h
2186 06-09-2020 14:05:00 18.1 C 8.65 g/m*3 18.1 C 3.2 km/h
2187 06-09-2020 14:10:00 18.2 C 8.86 g/m*3 18.2 C 6.4 km/h
2188 06-09-2020 14:15:00 18.4 C 8.81 g/m*3 18.4 C 4.8 km/h
2189 06-09-2020 14:20:00 18.6 C 8.44 g/m*3 18.6 C 4.8 km/h
2190 06-09-2020 14:25:00 18.7 C 8.65 g/m*3 18.7 C 3.2 km/h
2191 06-09-2020 14:30:00 18.8 C 8.86 g/m*3 18.8 C 6.4 km/h
2192 06-09-2020 14:35:00 18.8 C 8.86 g/m*3 18.8 C 8.1 km/h
2193 06-09-2020 14:40:00 18.8 C 8.86 g/m*3 18.8 C 3.2 km/h
2194 06-09-2020 14:45:00 18.9 C 8.91 g/m*3 18.9 C 6.4 km/h
2195 06-09-2020 14:50:00 19.1 C 9.02 g/m*3 19.1 C 0 km/h
2196 06-09-2020 14:55:00 19.1 C 9.02 g/m*3 19.1 C 0 km/h
2197 06-09-2020 15:00:00 19.2 C 8.74 g/m*3 19.2 C 9.7 km/h
2198 06-09-2020 15:05:00 19.1 C 8.52 g/m*3 19.1 C 11.3 km/h
2199 06-09-2020 15:10:00 18.9 C 8.42 g/m*3 18.9 C 4.8 km/h
2200 06-09-2020 15:15:00 18.9 C 8.59 g/m*3 18.9 C 6.4 km/h
Sensor: Nr:Datum:Temp:Abs-Feuchte:Windchill:Wind:
Aussen-T/F 2201 06-09-2020 15:20:00 19 C 8.64 g/m*3 19 C 6.4 km/h
2202 06-09-2020 15:25:00 19.1 C 8.52 g/m*3 19.1 C 0 km/h
2203 06-09-2020 15:30:00 19.2 C 8.74 g/m*3 19.2 C 0 km/h
2204 06-09-2020 15:35:00 19.2 C 8.41 g/m*3 19.2 C 6.4 km/h
2205 06-09-2020 15:40:00 19.1 C 8.85 g/m*3 19.1 C 6.4 km/h
2206 06-09-2020 15:45:00 19.1 C 8.69 g/m*3 19.1 C 8.1 km/h
2207 06-09-2020 15:50:00 18.9 C 8.59 g/m*3 18.9 C 8.1 km/h
2208 06-09-2020 15:55:00 18.8 C 8.54 g/m*3 18.8 C 8.1 km/h
2209 06-09-2020 16:00:00 18.7 C 8.49 g/m*3 18.7 C 9.7 km/h
2210 06-09-2020 16:05:00 18.6 C 8.44 g/m*3 18.6 C 4.8 km/h
2211 06-09-2020 16:10:00 18.5 C 8.54 g/m*3 18.5 C 0 km/h
2212 06-09-2020 16:15:00 18.4 C 8.34 g/m*3 18.4 C 1.6 km/h
2213 06-09-2020 16:20:00 18.4 C 8.34 g/m*3 18.4 C 3.2 km/h
2214 06-09-2020 16:25:00 18.4 C 8.34 g/m*3 18.4 C 0 km/h
2215 06-09-2020 16:30:00 18.4 C 8.34 g/m*3 18.4 C 8.1 km/h
2216 06-09-2020 16:35:00 18.4 C 8.34 g/m*3 18.4 C 6.4 km/h
2217 06-09-2020 16:40:00 18.5 C 8.39 g/m*3 18.5 C 4.8 km/h
2218 06-09-2020 16:45:00 18.5 C 8.39 g/m*3 18.5 C 8.1 km/h
2219 06-09-2020 16:50:00 18.6 C 8.59 g/m*3 18.6 C 11.3 km/h
2220 06-09-2020 16:55:00 18.6 C 8.59 g/m*3 18.6 C 8.1 km/h
2221 06-09-2020 17:00:00 18.6 C 8.59 g/m*3 18.6 C 9.7 km/h
2222 06-09-2020 17:05:00 18.7 C 8.49 g/m*3 18.7 C 8.1 km/h
2223 06-09-2020 17:10:00 18.7 C 8.49 g/m*3 18.7 C 8.1 km/h
2224 06-09-2020 17:15:00 18.7 C 8.65 g/m*3 18.7 C 3.2 km/h
2225 06-09-2020 17:20:00 18.7 C 8.65 g/m*3 18.7 C 6.4 km/h
Sensor: Nr:Datum:Temp:Abs-Feuchte:Windchill:Wind:
Aussen-T/F 2226 06-09-2020 17:25:00 18.7 C 8.49 g/m*3 18.7 C 4.8 km/h
2227 06-09-2020 17:30:00 18.6 C 8.59 g/m*3 18.6 C 9.7 km/h
2228 06-09-2020 17:35:00 18.6 C 8.91 g/m*3 18.6 C 8.1 km/h
2229 06-09-2020 17:40:00 18.5 C 8.86 g/m*3 18.5 C 9.7 km/h
2230 06-09-2020 17:45:00 18.4 C 8.97 g/m*3 18.4 C 9.7 km/h
2231 06-09-2020 17:50:00 18.3 C 8.6 g/m*3 18.3 C 8.1 km/h
2232 06-09-2020 17:55:00 18.3 C 8.91 g/m*3 18.3 C 4.8 km/h
2233 06-09-2020 18:00:00 18.3 C 8.76 g/m*3 18.3 C 6.4 km/h
2234 06-09-2020 18:05:00 18.3 C 8.76 g/m*3 18.3 C 4.8 km/h
2235 06-09-2020 18:10:00 18.3 C 8.76 g/m*3 18.3 C 4.8 km/h
2236 06-09-2020 18:15:00 18.4 C 8.81 g/m*3 18.4 C 1.6 km/h
2237 06-09-2020 18:20:00 18.9 C 8.91 g/m*3 18.9 C 0 km/h
2238 06-09-2020 18:25:00 19.3 C 8.79 g/m*3 19.3 C 0 km/h
2239 06-09-2020 18:30:00 19.6 C 8.78 g/m*3 19.6 C 0 km/h
2240 06-09-2020 18:35:00 19.7 C 8.66 g/m*3 19.7 C 9.7 km/h
2241 06-09-2020 18:40:00 19.6 C 8.61 g/m*3 19.6 C 4.8 km/h
2242 06-09-2020 18:45:00 19.6 C 8.95 g/m*3 19.6 C 1.6 km/h
2243 06-09-2020 18:50:00 19.7 C 8.49 g/m*3 19.7 C 3.2 km/h
2244 06-09-2020 18:55:00 19.7 C 8.83 g/m*3 19.7 C 3.2 km/h
2245 06-09-2020 19:00:00 19.8 C 8.71 g/m*3 19.8 C 0 km/h
2246 06-09-2020 19:05:00 19.8 C 8.37 g/m*3 19.8 C 4.8 km/h
2247 06-09-2020 19:10:00 19.6 C 8.61 g/m*3 19.6 C 6.4 km/h
2248 06-09-2020 19:15:00 19.3 C 8.46 g/m*3 19.3 C 3.2 km/h
2249 06-09-2020 19:20:00 19.2 C 8.74 g/m*3 19.2 C 4.8 km/h
2250 06-09-2020 19:25:00 18.9 C 8.91 g/m*3 18.9 C 4.8 km/h
Sensor: Nr:Datum:Temp:Abs-Feuchte:Windchill:Wind:
Aussen-T/F 2251 06-09-2020 19:30:00 18.7 C 8.65 g/m*3 18.7 C 4.8 km/h
2252 06-09-2020 19:35:00 18.4 C 9.28 g/m*3 18.4 C 0 km/h
2253 06-09-2020 19:40:00 18.2 C 9.33 g/m*3 18.2 C 0 km/h
2254 06-09-2020 19:45:00 17.8 C 9.11 g/m*3 17.8 C 0 km/h
2255 06-09-2020 19:50:00 17.3 C 8.99 g/m*3 17.3 C 0 km/h
2256 06-09-2020 19:55:00 16.8 C 9.01 g/m*3 16.8 C 0 km/h
2257 06-09-2020 20:00:00 16.4 C 8.93 g/m*3 16.4 C 0 km/h
2258 06-09-2020 20:05:00 15.9 C 8.8 g/m*3 15.9 C 0 km/h
2259 06-09-2020 20:10:00 15.6 C 8.91 g/m*3 15.6 C 0 km/h
2260 06-09-2020 20:15:00 15.2 C 8.7 g/m*3 15.2 C 0 km/h
2261 06-09-2020 20:20:00 14.9 C 8.54 g/m*3 14.9 C 0 km/h
2262 06-09-2020 20:25:00 14.7 C 8.56 g/m*3 14.7 C 0 km/h
2263 06-09-2020 20:30:00 14.4 C 8.41 g/m*3 14.4 C 0 km/h
2264 06-09-2020 20:35:00 14.2 C 8.43 g/m*3 14.2 C 0 km/h
2265 06-09-2020 20:40:00 14.1 C 8.37 g/m*3 14.1 C 0 km/h
2266 06-09-2020 20:45:00 13.9 C 8.39 g/m*3 13.9 C 0 km/h
2267 06-09-2020 20:50:00 13.7 C 8.41 g/m*3 13.7 C 0 km/h
2268 06-09-2020 20:55:00 13.6 C 8.47 g/m*3 13.6 C 0 km/h
2269 06-09-2020 21:00:00 13.4 C 8.49 g/m*3 13.4 C 0 km/h
2270 06-09-2020 21:05:00 13.3 C 8.55 g/m*3 13.3 C 0 km/h
2271 06-09-2020 21:10:00 13.2 C 8.5 g/m*3 13.2 C 0 km/h
2272 06-09-2020 21:15:00 13.1 C 8.56 g/m*3 13.1 C 0 km/h
2273 06-09-2020 21:20:00 13 C 8.62 g/m*3 13 C 0 km/h
2274 06-09-2020 21:25:00 12.8 C 8.51 g/m*3 12.8 C 0 km/h
2275 06-09-2020 21:30:00 12.7 C 8.57 g/m*3 12.7 C 0 km/h
Sensor: Nr:Datum:Temp:Abs-Feuchte:Windchill:Wind:
Aussen-T/F 2276 06-09-2020 21:35:00 12.6 C 8.63 g/m*3 12.6 C 0 km/h
2277 06-09-2020 21:40:00 12.6 C 8.74 g/m*3 12.6 C 0 km/h
2278 06-09-2020 21:45:00 12.5 C 8.69 g/m*3 12.5 C 0 km/h
2279 06-09-2020 21:50:00 12.4 C 8.74 g/m*3 12.4 C 0 km/h
2280 06-09-2020 21:55:00 12.4 C 8.85 g/m*3 12.4 C 0 km/h
2281 06-09-2020 22:00:00 12.4 C 8.85 g/m*3 12.4 C 0 km/h
2282 06-09-2020 22:05:00 12.4 C 8.85 g/m*3 12.4 C 0 km/h
2283 06-09-2020 22:10:00 12.3 C 8.9 g/m*3 12.3 C 0 km/h
2284 06-09-2020 22:15:00 12.3 C 8.9 g/m*3 12.3 C 0 km/h
2285 06-09-2020 22:20:00 12.3 C 8.8 g/m*3 12.3 C 0 km/h
2286 06-09-2020 22:25:00 12.3 C 8.9 g/m*3 12.3 C 0 km/h
2287 06-09-2020 22:30:00 12.3 C 8.9 g/m*3 12.3 C 0 km/h
2288 06-09-2020 22:35:00 12.4 C 8.96 g/m*3 12.4 C 0 km/h
2289 06-09-2020 22:40:00 12.3 C 8.8 g/m*3 12.3 C 0 km/h
2290 06-09-2020 22:45:00 12.4 C 8.85 g/m*3 12.4 C 0 km/h
2291 06-09-2020 22:50:00 12.4 C 8.96 g/m*3 12.4 C 0 km/h
2292 06-09-2020 22:55:00 12.4 C 8.96 g/m*3 12.4 C 0 km/h
2293 06-09-2020 23:00:00 12.5 C 9.02 g/m*3 12.5 C 0 km/h
2294 06-09-2020 23:05:00 12.5 C 9.02 g/m*3 12.5 C 0 km/h
2295 06-09-2020 23:10:00 12.5 C 9.02 g/m*3 12.5 C 0 km/h
2296 06-09-2020 23:15:00 12.6 C 9.07 g/m*3 12.6 C 0 km/h
2297 06-09-2020 23:20:00 12.6 C 9.07 g/m*3 12.6 C 0 km/h
2298 06-09-2020 23:25:00 12.6 C 9.07 g/m*3 12.6 C 0 km/h
2299 06-09-2020 23:30:00 12.5 C 8.91 g/m*3 12.5 C 0 km/h
2300 06-09-2020 23:35:00 12.6 C 8.96 g/m*3 12.6 C 3.2 km/h
Sensor: Nr:Datum:Temp:Abs-Feuchte:Windchill:Wind:
Aussen-T/F 2301 06-09-2020 23:40:00 12.6 C 8.96 g/m*3 12.6 C 0 km/h
2302 06-09-2020 23:45:00 12.6 C 8.96 g/m*3 12.6 C 0 km/h
2303 06-09-2020 23:50:00 12.6 C 9.07 g/m*3 12.6 C 0 km/h
2304 06-09-2020 23:55:00 12.7 C 9.13 g/m*3 12.7 C 0 km/h
2305 07-09-2020 00:00:00 12.6 C 9.07 g/m*3 12.6 C 0 km/h
2306 07-09-2020 00:05:00 12.6 C 9.07 g/m*3 12.6 C 0 km/h
2307 07-09-2020 00:10:00 12.6 C 8.96 g/m*3 12.6 C 1.6 km/h
2308 07-09-2020 00:15:00 12.6 C 8.96 g/m*3 12.6 C 0 km/h
2309 07-09-2020 00:20:00 12.6 C 8.96 g/m*3 12.6 C 0 km/h
2310 07-09-2020 00:25:00 12.6 C 8.96 g/m*3 12.6 C 0 km/h
2311 07-09-2020 00:30:00 12.6 C 9.07 g/m*3 12.6 C 0 km/h
2312 07-09-2020 00:35:00 12.6 C 9.07 g/m*3 12.6 C 0 km/h
2313 07-09-2020 00:40:00 12.6 C 9.07 g/m*3 12.6 C 0 km/h
2314 07-09-2020 00:45:00 12.6 C 9.07 g/m*3 12.6 C 0 km/h
2315 07-09-2020 00:50:00 12.6 C 9.07 g/m*3 12.6 C 0 km/h
2316 07-09-2020 00:55:00 12.5 C 9.02 g/m*3 12.5 C 0 km/h
2317 07-09-2020 01:00:00 12.5 C 9.02 g/m*3 12.5 C 0 km/h
2318 07-09-2020 01:05:00 12.5 C 9.02 g/m*3 12.5 C 0 km/h
2319 07-09-2020 01:10:00 12.4 C 9.07 g/m*3 12.4 C 0 km/h
2320 07-09-2020 01:15:00 12.4 C 9.07 g/m*3 12.4 C 0 km/h
2321 07-09-2020 01:20:00 12.4 C 9.07 g/m*3 12.4 C 0 km/h
2322 07-09-2020 01:25:00 12.3 C 9.01 g/m*3 12.3 C 0 km/h
2323 07-09-2020 01:30:00 12.3 C 9.01 g/m*3 12.3 C 0 km/h
2324 07-09-2020 01:35:00 12.2 C 8.96 g/m*3 12.2 C 0 km/h
2325 07-09-2020 01:40:00 12 C 8.85 g/m*3 12 C 0 km/h
Sensor: Nr:Datum:Temp:Abs-Feuchte:Windchill:Wind:
Aussen-T/F 2326 07-09-2020 01:45:00 11.9 C 8.79 g/m*3 11.9 C 0 km/h
2327 07-09-2020 01:50:00 11.8 C 8.84 g/m*3 11.8 C 0 km/h
2328 07-09-2020 01:55:00 11.6 C 8.73 g/m*3 11.6 C 0 km/h
2329 07-09-2020 02:00:00 11.5 C 8.68 g/m*3 11.5 C 0 km/h
2330 07-09-2020 02:05:00 11.3 C 8.57 g/m*3 11.3 C 0 km/h
2331 07-09-2020 02:10:00 11.2 C 8.51 g/m*3 11.2 C 0 km/h
2332 07-09-2020 02:15:00 11.1 C 8.56 g/m*3 11.1 C 0 km/h
2333 07-09-2020 02:20:00 10.9 C 8.45 g/m*3 10.9 C 1.6 km/h
2334 07-09-2020 02:25:00 10.8 C 8.5 g/m*3 10.8 C 0 km/h
2335 07-09-2020 02:30:00 10.6 C 8.39 g/m*3 10.6 C 0 km/h
2336 07-09-2020 02:35:00 10.5 C 8.44 g/m*3 10.5 C 0 km/h
2337 07-09-2020 02:40:00 10.4 C 8.38 g/m*3 10.4 C 0 km/h
2338 07-09-2020 02:45:00 10.3 C 8.33 g/m*3 10.3 C 0 km/h
2339 07-09-2020 02:50:00 10.1 C 8.23 g/m*3 10.1 C 0 km/h
2340 07-09-2020 02:55:00 10 C 8.27 g/m*3 10 C 0 km/h
2341 07-09-2020 03:00:00 9.9 C 8.22 g/m*3 9.9 C 0 km/h
2342 07-09-2020 03:05:00 9.8 C 8.16 g/m*3 9.8 C 0 km/h
2343 07-09-2020 03:10:00 9.7 C 8.11 g/m*3 9.7 C 0 km/h
2344 07-09-2020 03:15:00 9.6 C 8.15 g/m*3 9.6 C 1.6 km/h
2345 07-09-2020 03:20:00 9.6 C 8.15 g/m*3 9.6 C 0 km/h
2346 07-09-2020 03:25:00 9.4 C 8.05 g/m*3 9.4 C 0 km/h
2347 07-09-2020 03:30:00 9.4 C 8.05 g/m*3 9.4 C 0 km/h
2348 07-09-2020 03:35:00 9.3 C 8.09 g/m*3 9.3 C 0 km/h
2349 07-09-2020 03:40:00 9.3 C 8.09 g/m*3 9.3 C 0 km/h
2350 07-09-2020 03:45:00 9.3 C 8.09 g/m*3 9.3 C 0 km/h
Sensor: Nr:Datum:Temp:Abs-Feuchte:Windchill:Wind:
Aussen-T/F 2351 07-09-2020 03:50:00 9.2 C 8.04 g/m*3 9.2 C 0 km/h
2352 07-09-2020 03:55:00 9.2 C 8.04 g/m*3 9.2 C 0 km/h
2353 07-09-2020 04:00:00 9.1 C 7.99 g/m*3 9.1 C 0 km/h
2354 07-09-2020 04:05:00 9 C 8.02 g/m*3 9 C 0 km/h
2355 07-09-2020 04:10:00 9 C 8.02 g/m*3 9 C 0 km/h
2356 07-09-2020 04:15:00 8.9 C 7.97 g/m*3 8.9 C 0 km/h
2357 07-09-2020 04:20:00 8.9 C 7.97 g/m*3 8.9 C 0 km/h
2358 07-09-2020 04:25:00 8.8 C 7.92 g/m*3 8.8 C 0 km/h
2359 07-09-2020 04:30:00 8.8 C 7.92 g/m*3 8.8 C 0 km/h
2360 07-09-2020 04:35:00 8.8 C 7.92 g/m*3 8.8 C 0 km/h
2361 07-09-2020 04:40:00 8.7 C 7.87 g/m*3 8.7 C 0 km/h
2362 07-09-2020 04:45:00 8.6 C 7.82 g/m*3 8.6 C 0 km/h
2363 07-09-2020 04:50:00 8.6 C 7.91 g/m*3 8.6 C 0 km/h
2364 07-09-2020 04:55:00 8.5 C 7.85 g/m*3 8.5 C 1.6 km/h
2365 07-09-2020 05:00:00 8.5 C 7.85 g/m*3 8.5 C 0 km/h
2366 07-09-2020 05:05:00 8.4 C 7.8 g/m*3 8.4 C 1.6 km/h
2367 07-09-2020 05:10:00 8.4 C 7.8 g/m*3 8.4 C 3.2 km/h
2368 07-09-2020 05:15:00 8.4 C 7.89 g/m*3 8.4 C 0 km/h
2369 07-09-2020 05:20:00 8.3 C 7.75 g/m*3 8.3 C 0 km/h
2370 07-09-2020 05:25:00 8.3 C 7.75 g/m*3 8.3 C 0 km/h
2371 07-09-2020 05:30:00 8.3 C 7.75 g/m*3 8.3 C 0 km/h
2372 07-09-2020 05:35:00 8.2 C 7.7 g/m*3 8.2 C 0 km/h
2373 07-09-2020 05:40:00 8.1 C 7.74 g/m*3 8.1 C 0 km/h
2374 07-09-2020 05:45:00 8.1 C 7.74 g/m*3 8.1 C 0 km/h
2375 07-09-2020 05:50:00 8 C 7.69 g/m*3 8 C 0 km/h
Sensor: Nr:Datum:Temp:Abs-Feuchte:Windchill:Wind:
Aussen-T/F 2376 07-09-2020 05:55:00 7.9 C 7.64 g/m*3 7.9 C 0 km/h
2377 07-09-2020 06:00:00 7.9 C 7.64 g/m*3 7.9 C 0 km/h
2378 07-09-2020 06:05:00 7.9 C 7.64 g/m*3 7.9 C 0 km/h
2379 07-09-2020 06:10:00 7.8 C 7.59 g/m*3 7.8 C 0 km/h
2380 07-09-2020 06:15:00 7.8 C 7.59 g/m*3 7.8 C 1.6 km/h
2381 07-09-2020 06:20:00 7.9 C 7.72 g/m*3 7.9 C 3.2 km/h
2382 07-09-2020 06:25:00 7.9 C 7.72 g/m*3 7.9 C 1.6 km/h
2383 07-09-2020 06:30:00 7.9 C 7.72 g/m*3 7.9 C 0 km/h
2384 07-09-2020 06:35:00 7.9 C 7.64 g/m*3 7.9 C 0 km/h
2385 07-09-2020 06:40:00 7.8 C 7.59 g/m*3 7.8 C 0 km/h
2386 07-09-2020 06:45:00 7.7 C 7.54 g/m*3 7.7 C 0 km/h
2387 07-09-2020 06:50:00 7.7 C 7.54 g/m*3 7.7 C 0 km/h
2388 07-09-2020 06:55:00 7.6 C 7.49 g/m*3 7.6 C 0 km/h
2389 07-09-2020 07:00:00 7.6 C 7.57 g/m*3 7.6 C 0 km/h
2390 07-09-2020 07:05:00 7.7 C 7.62 g/m*3 7.7 C 0 km/h
2391 07-09-2020 07:10:00 7.6 C 7.57 g/m*3 7.6 C 0 km/h
2392 07-09-2020 07:15:00 7.6 C 7.57 g/m*3 7.6 C 0 km/h
2393 07-09-2020 07:20:00 7.5 C 7.52 g/m*3 7.5 C 0 km/h
2394 07-09-2020 07:25:00 7.5 C 7.52 g/m*3 7.5 C 0 km/h
2395 07-09-2020 07:30:00 7.5 C 7.52 g/m*3 7.5 C 0 km/h
2396 07-09-2020 07:35:00 7.6 C 7.57 g/m*3 7.6 C 0 km/h
2397 07-09-2020 07:40:00 7.6 C 7.57 g/m*3 7.6 C 0 km/h
2398 07-09-2020 07:45:00 7.6 C 7.57 g/m*3 7.6 C 0 km/h
2399 07-09-2020 07:50:00 7.7 C 7.62 g/m*3 7.7 C 0 km/h
2400 07-09-2020 07:55:00 7.7 C 7.62 g/m*3 7.7 C 0 km/h
Sensor: Nr:Datum:Temp:Abs-Feuchte:Windchill:Wind:
Aussen-T/F 2401 07-09-2020 08:00:00 7.7 C 7.7 g/m*3 7.7 C 0 km/h
2402 07-09-2020 08:05:00 7.8 C 7.75 g/m*3 7.8 C 0 km/h
2403 07-09-2020 08:10:00 7.8 C 7.75 g/m*3 7.8 C 0 km/h
2404 07-09-2020 08:15:00 7.8 C 7.75 g/m*3 7.8 C 0 km/h
2405 07-09-2020 08:20:00 7.9 C 7.8 g/m*3 7.9 C 0 km/h
2406 07-09-2020 08:25:00 7.9 C 7.8 g/m*3 7.9 C 0 km/h
2407 07-09-2020 08:30:00 8 C 7.85 g/m*3 8 C 0 km/h
2408 07-09-2020 08:35:00 8.1 C 7.9 g/m*3 8.1 C 1.6 km/h
2409 07-09-2020 08:40:00 8.1 C 7.9 g/m*3 8.1 C 1.6 km/h
2410 07-09-2020 08:45:00 8.2 C 7.96 g/m*3 8.2 C 0 km/h
2411 07-09-2020 08:50:00 8.2 C 7.96 g/m*3 8.2 C 0 km/h
2412 07-09-2020 08:55:00 8.3 C 8.01 g/m*3 8.3 C 0 km/h
2413 07-09-2020 09:00:00 8.4 C 8.06 g/m*3 8.4 C 0 km/h
2414 07-09-2020 09:05:00 8.4 C 8.06 g/m*3 8.4 C 0 km/h
2415 07-09-2020 09:10:00 8.6 C 8.16 g/m*3 8.6 C 0 km/h
2416 07-09-2020 09:15:00 8.7 C 8.22 g/m*3 8.7 C 1.6 km/h
2417 07-09-2020 09:20:00 8.8 C 8.36 g/m*3 8.8 C 0 km/h
2418 07-09-2020 09:25:00 8.9 C 8.32 g/m*3 8.9 C 0 km/h
2419 07-09-2020 09:30:00 9.1 C 8.52 g/m*3 9.1 C 0 km/h
2420 07-09-2020 09:35:00 9.2 C 8.57 g/m*3 9.2 C 0 km/h
2421 07-09-2020 09:40:00 9.2 C 8.57 g/m*3 9.2 C 1.6 km/h
2422 07-09-2020 09:45:00 9.3 C 8.54 g/m*3 9.3 C 0 km/h
2423 07-09-2020 09:50:00 9.4 C 8.59 g/m*3 9.4 C 0 km/h
2424 07-09-2020 09:55:00 9.5 C 8.74 g/m*3 9.5 C 1.6 km/h
2425 07-09-2020 10:00:00 9.7 C 8.85 g/m*3 9.7 C 3.2 km/h
Sensor: Nr:Datum:Temp:Abs-Feuchte:Windchill:Wind:
Aussen-T/F 2426 07-09-2020 10:05:00 9.8 C 8.91 g/m*3 9.8 C 3.2 km/h
2427 07-09-2020 10:10:00 9.9 C 8.96 g/m*3 9.9 C 3.2 km/h
2428 07-09-2020 10:15:00 10.1 C 9.08 g/m*3 10.1 C 0 km/h
2429 07-09-2020 10:20:00 10.2 C 9.14 g/m*3 10.2 C 0 km/h
2430 07-09-2020 10:25:00 10.4 C 9.25 g/m*3 10.4 C 0 km/h
2431 07-09-2020 10:30:00 10.6 C 9.37 g/m*3 10.6 C 0 km/h
2432 07-09-2020 10:35:00 10.8 C 9.39 g/m*3 10.8 C 0 km/h
2433 07-09-2020 10:40:00 11 C 9.51 g/m*3 11 C 0 km/h
2434 07-09-2020 10:45:00 11.2 C 9.63 g/m*3 11.2 C 0 km/h
2435 07-09-2020 10:50:00 11.4 C 9.65 g/m*3 11.4 C 0 km/h
2436 07-09-2020 10:55:00 11.7 C 9.83 g/m*3 11.7 C 1.6 km/h
2437 07-09-2020 11:00:00 12.1 C 9.97 g/m*3 12.1 C 0 km/h
2438 07-09-2020 11:05:00 12.3 C 9.99 g/m*3 12.3 C 3.2 km/h
2439 07-09-2020 11:10:00 12.7 C 10.13 g/m*3 12.7 C 0 km/h
2440 07-09-2020 11:15:00 12.9 C 10.14 g/m*3 12.9 C 1.6 km/h
2441 07-09-2020 11:20:00 13.3 C 10.28 g/m*3 13.3 C 3.2 km/h
2442 07-09-2020 11:25:00 13.6 C 10.36 g/m*3 13.6 C 0 km/h
2443 07-09-2020 11:30:00 13.8 C 10.13 g/m*3 13.8 C 1.6 km/h
2444 07-09-2020 11:35:00 14.2 C 10.26 g/m*3 14.2 C 6.4 km/h
2445 07-09-2020 11:40:00 14.4 C 10.26 g/m*3 14.4 C 0 km/h
2446 07-09-2020 11:45:00 14.7 C 10.45 g/m*3 14.7 C 0 km/h
2447 07-09-2020 11:50:00 14.9 C 10.32 g/m*3 14.9 C 1.6 km/h
2448 07-09-2020 11:55:00 15.1 C 10.32 g/m*3 15.1 C 3.2 km/h
2449 07-09-2020 12:00:00 15.3 C 10.32 g/m*3 15.3 C 1.6 km/h
2450 07-09-2020 12:05:00 15.5 C 10.18 g/m*3 15.5 C 0 km/h
Sensor: Nr:Datum:Temp:Abs-Feuchte:Windchill:Wind:
Aussen-T/F 2451 07-09-2020 12:10:00 15.8 C 10.36 g/m*3 15.8 C 0 km/h
2452 07-09-2020 12:15:00 15.9 C 10.02 g/m*3 15.9 C 4.8 km/h
2453 07-09-2020 12:20:00 16.3 C 10.13 g/m*3 16.3 C 4.8 km/h
2454 07-09-2020 12:25:00 16.5 C 10.11 g/m*3 16.5 C 0 km/h
2455 07-09-2020 12:30:00 16.7 C 10.09 g/m*3 16.7 C 1.6 km/h
2456 07-09-2020 12:35:00 16.8 C 9.87 g/m*3 16.8 C 4.8 km/h
2457 07-09-2020 12:40:00 17 C 9.69 g/m*3 17 C 3.2 km/h
2458 07-09-2020 12:45:00 17.2 C 9.81 g/m*3 17.2 C 4.8 km/h
2459 07-09-2020 12:50:00 17.3 C 9.72 g/m*3 17.3 C 6.4 km/h
2460 07-09-2020 12:55:00 17.4 C 9.48 g/m*3 17.4 C 8.1 km/h
2461 07-09-2020 13:00:00 17.6 C 9.6 g/m*3 17.6 C 6.4 km/h
2462 07-09-2020 13:05:00 17.8 C 9.87 g/m*3 17.8 C 3.2 km/h
2463 07-09-2020 13:10:00 17.9 C 9.62 g/m*3 17.9 C 4.8 km/h
2464 07-09-2020 13:15:00 18 C 9.52 g/m*3 18 C 1.6 km/h
2465 07-09-2020 13:20:00 18.1 C 9.58 g/m*3 18.1 C 9.7 km/h
2466 07-09-2020 13:25:00 18.2 C 9.64 g/m*3 18.2 C 6.4 km/h
2467 07-09-2020 13:30:00 18.2 C 9.79 g/m*3 18.2 C 0 km/h
2468 07-09-2020 13:35:00 18.3 C 9.22 g/m*3 18.3 C 3.2 km/h
2469 07-09-2020 13:40:00 18.3 C 9.38 g/m*3 18.3 C 3.2 km/h
2470 07-09-2020 13:45:00 18.3 C 9.07 g/m*3 18.3 C 3.2 km/h
2471 07-09-2020 13:50:00 18.4 C 8.97 g/m*3 18.4 C 3.2 km/h
2472 07-09-2020 13:55:00 18.5 C 9.02 g/m*3 18.5 C 1.6 km/h
2473 07-09-2020 14:00:00 18.7 C 8.97 g/m*3 18.7 C 4.8 km/h
2474 07-09-2020 14:05:00 18.8 C 8.54 g/m*3 18.8 C 8.1 km/h
2475 07-09-2020 14:10:00 19 C 8.96 g/m*3 19 C 8.1 km/h
Sensor: Nr:Datum:Temp:Abs-Feuchte:Windchill:Wind:
Aussen-T/F 2476 07-09-2020 14:15:00 19.2 C 8.9 g/m*3 19.2 C 9.7 km/h
2477 07-09-2020 14:20:00 19.3 C 8.96 g/m*3 19.3 C 8.1 km/h
2478 07-09-2020 14:25:00 19.3 C 8.79 g/m*3 19.3 C 0 km/h
2479 07-09-2020 14:30:00 19.4 C 8.68 g/m*3 19.4 C 6.4 km/h
2480 07-09-2020 14:35:00 19.5 C 9.06 g/m*3 19.5 C 6.4 km/h
2481 07-09-2020 14:40:00 19.7 C 8.83 g/m*3 19.7 C 9.7 km/h
2482 07-09-2020 14:45:00 19.9 C 8.93 g/m*3 19.9 C 6.4 km/h
2483 07-09-2020 14:50:00 20.1 C 8.87 g/m*3 20.1 C 1.6 km/h
2484 07-09-2020 14:55:00 20.3 C 8.62 g/m*3 20.3 C 11.3 km/h
2485 07-09-2020 15:00:00 20.3 C 8.79 g/m*3 20.3 C 4.8 km/h
2486 07-09-2020 15:05:00 20.4 C 8.49 g/m*3 20.4 C 4.8 km/h
2487 07-09-2020 15:10:00 20.5 C 9.07 g/m*3 20.5 C 6.4 km/h
2488 07-09-2020 15:15:00 20.5 C 8.72 g/m*3 20.5 C 6.4 km/h
2489 07-09-2020 15:20:00 20.6 C 8.95 g/m*3 20.6 C 1.6 km/h
2490 07-09-2020 15:25:00 20.6 C 8.95 g/m*3 20.6 C 4.8 km/h
2491 07-09-2020 15:30:00 20.7 C 8.82 g/m*3 20.7 C 9.7 km/h
2492 07-09-2020 15:35:00 20.8 C 8.87 g/m*3 20.8 C 3.2 km/h
2493 07-09-2020 15:40:00 20.8 C 8.87 g/m*3 20.8 C 6.4 km/h
2494 07-09-2020 15:45:00 20.9 C 8.92 g/m*3 20.9 C 6.4 km/h
2495 07-09-2020 15:50:00 21.1 C 8.84 g/m*3 21.1 C 6.4 km/h
2496 07-09-2020 15:55:00 21.2 C 8.71 g/m*3 21.2 C 4.8 km/h
2497 07-09-2020 16:00:00 21.2 C 8.71 g/m*3 21.2 C 4.8 km/h
2498 07-09-2020 16:05:00 21.1 C 8.66 g/m*3 21.1 C 0 km/h
2499 07-09-2020 16:10:00 21.1 C 8.84 g/m*3 21.1 C 8.1 km/h
2500 07-09-2020 16:15:00 21.2 C 9.08 g/m*3 21.2 C 6.4 km/h
Sensor: Nr:Datum:Temp:Abs-Feuchte:Windchill:Wind:
Aussen-T/F 2501 07-09-2020 16:20:00 21.4 C 9 g/m*3 21.4 C 6.4 km/h
2502 07-09-2020 16:25:00 21.7 C 9.16 g/m*3 21.7 C 4.8 km/h
2503 07-09-2020 16:30:00 21.8 C 8.63 g/m*3 21.8 C 6.4 km/h
2504 07-09-2020 16:35:00 22 C 8.93 g/m*3 22 C 6.4 km/h
2505 07-09-2020 16:40:00 22.2 C 9.03 g/m*3 22.2 C 9.7 km/h
2506 07-09-2020 16:45:00 22.4 C 8.74 g/m*3 22.4 C 6.4 km/h
2507 07-09-2020 16:50:00 22.3 C 8.69 g/m*3 22.3 C 1.6 km/h
2508 07-09-2020 16:55:00 21.9 C 8.88 g/m*3 21.9 C 3.2 km/h
2509 07-09-2020 17:00:00 21.7 C 8.97 g/m*3 21.7 C 6.4 km/h
2510 07-09-2020 17:05:00 21.6 C 9.1 g/m*3 21.6 C 4.8 km/h
2511 07-09-2020 17:10:00 22.1 C 8.98 g/m*3 22.1 C 0 km/h
2512 07-09-2020 17:15:00 22.6 C 8.84 g/m*3 22.6 C 0 km/h
2513 07-09-2020 17:20:00 22.7 C 8.89 g/m*3 22.7 C 6.4 km/h
2514 07-09-2020 17:25:00 22.9 C 8.99 g/m*3 22.9 C 3.2 km/h
2515 07-09-2020 17:30:00 23.3 C 9.41 g/m*3 23.3 C 1.6 km/h
2516 07-09-2020 17:35:00 23.5 C 9.09 g/m*3 23.5 C 8.1 km/h
2517 07-09-2020 17:40:00 23.6 C 9.15 g/m*3 23.6 C 1.6 km/h
2518 07-09-2020 17:45:00 23.6 C 8.72 g/m*3 23.6 C 6.4 km/h
2519 07-09-2020 17:50:00 23.3 C 9.2 g/m*3 23.3 C 6.4 km/h
2520 07-09-2020 17:55:00 23.3 C 8.78 g/m*3 23.3 C 0 km/h
2521 07-09-2020 18:00:00 23.5 C 8.88 g/m*3 23.5 C 1.6 km/h
2522 07-09-2020 18:05:00 23.4 C 10.09 g/m*3 23.4 C 0 km/h
2523 07-09-2020 18:10:00 23.1 C 10.34 g/m*3 23.1 C 0 km/h
2524 07-09-2020 18:15:00 22.6 C 10.04 g/m*3 22.6 C 0 km/h
2525 07-09-2020 18:20:00 22.1 C 10.15 g/m*3 22.1 C 0 km/h
Sensor: Nr:Datum:Temp:Abs-Feuchte:Windchill:Wind:
Aussen-T/F 2526 07-09-2020 18:25:00 21.6 C 10.43 g/m*3 21.6 C 0 km/h
2527 07-09-2020 18:30:00 21.3 C 10.44 g/m*3 21.3 C 0 km/h
2528 07-09-2020 18:35:00 21.6 C 10.43 g/m*3 21.6 C 0 km/h
2529 07-09-2020 18:40:00 22 C 10.09 g/m*3 22 C 0 km/h
2530 07-09-2020 18:45:00 22.4 C 9.73 g/m*3 22.4 C 0 km/h
2531 07-09-2020 18:50:00 22.8 C 10.16 g/m*3 22.8 C 0 km/h
2532 07-09-2020 18:55:00 22.7 C 9.09 g/m*3 22.7 C 6.4 km/h
2533 07-09-2020 19:00:00 22.6 C 9.84 g/m*3 22.6 C 4.8 km/h
2534 07-09-2020 19:05:00 22.6 C 10.65 g/m*3 22.6 C 0 km/h
2535 07-09-2020 19:10:00 22.4 C 10.53 g/m*3 22.4 C 0 km/h
2536 07-09-2020 19:15:00 22.2 C 10.41 g/m*3 22.2 C 0 km/h
2537 07-09-2020 19:20:00 21.8 C 10.36 g/m*3 21.8 C 1.6 km/h
2538 07-09-2020 19:25:00 21.4 C 10.31 g/m*3 21.4 C 3.2 km/h
2539 07-09-2020 19:30:00 20.8 C 10.14 g/m*3 20.8 C 6.4 km/h
2540 07-09-2020 19:35:00 20.3 C 9.85 g/m*3 20.3 C 4.8 km/h
2541 07-09-2020 19:40:00 19.8 C 9.91 g/m*3 19.8 C 4.8 km/h
2542 07-09-2020 19:45:00 19.2 C 9.56 g/m*3 19.2 C 4.8 km/h
2543 07-09-2020 19:50:00 18.8 C 9.5 g/m*3 18.8 C 0 km/h
2544 07-09-2020 19:55:00 18.3 C 9.38 g/m*3 18.3 C 0 km/h
2545 07-09-2020 20:00:00 17.9 C 9.16 g/m*3 17.9 C 4.8 km/h
2546 07-09-2020 20:05:00 17.6 C 9.3 g/m*3 17.6 C 1.6 km/h
2547 07-09-2020 20:10:00 17.3 C 9.13 g/m*3 17.3 C 4.8 km/h
2548 07-09-2020 20:15:00 17.1 C 9.17 g/m*3 17.1 C 4.8 km/h
2549 07-09-2020 20:20:00 16.8 C 9.15 g/m*3 16.8 C 6.4 km/h
2550 07-09-2020 20:25:00 16.7 C 9.1 g/m*3 16.7 C 6.4 km/h
Sensor: Nr:Datum:Temp:Abs-Feuchte:Windchill:Wind:
Aussen-T/F 2551 07-09-2020 20:30:00 16.4 C 9.07 g/m*3 16.4 C 4.8 km/h
2552 07-09-2020 20:35:00 16.3 C 9.16 g/m*3 16.3 C 4.8 km/h
2553 07-09-2020 20:40:00 16.1 C 9.18 g/m*3 16.1 C 0 km/h
2554 07-09-2020 20:45:00 15.9 C 9.34 g/m*3 15.9 C 0 km/h
2555 07-09-2020 20:50:00 15.6 C 9.18 g/m*3 15.6 C 0 km/h
2556 07-09-2020 20:55:00 15.3 C 9.14 g/m*3 15.3 C 6.4 km/h
2557 07-09-2020 21:00:00 15.1 C 9.16 g/m*3 15.1 C 6.4 km/h
2558 07-09-2020 21:05:00 14.9 C 9.18 g/m*3 14.9 C 0 km/h
2559 07-09-2020 21:10:00 14.8 C 9.25 g/m*3 14.8 C 0 km/h
2560 07-09-2020 21:15:00 14.7 C 9.32 g/m*3 14.7 C 0 km/h
2561 07-09-2020 21:20:00 14.5 C 9.33 g/m*3 14.5 C 0 km/h
2562 07-09-2020 21:25:00 14.3 C 9.21 g/m*3 14.3 C 0 km/h
2563 07-09-2020 21:30:00 14.1 C 9.1 g/m*3 14.1 C 0 km/h
2564 07-09-2020 21:35:00 13.9 C 9.11 g/m*3 13.9 C 0 km/h
2565 07-09-2020 21:40:00 13.8 C 9.17 g/m*3 13.8 C 0 km/h
2566 07-09-2020 21:45:00 13.6 C 9.06 g/m*3 13.6 C 0 km/h
2567 07-09-2020 21:50:00 13.5 C 9.12 g/m*3 13.5 C 0 km/h
2568 07-09-2020 21:55:00 13.4 C 9.07 g/m*3 13.4 C 0 km/h
2569 07-09-2020 22:00:00 13.3 C 9.01 g/m*3 13.3 C 0 km/h
2570 07-09-2020 22:05:00 13.2 C 9.07 g/m*3 13.2 C 0 km/h
2571 07-09-2020 22:10:00 13.1 C 9.01 g/m*3 13.1 C 0 km/h
2572 07-09-2020 22:15:00 13 C 9.07 g/m*3 13 C 0 km/h
2573 07-09-2020 22:20:00 12.8 C 8.96 g/m*3 12.8 C 0 km/h
2574 07-09-2020 22:25:00 12.7 C 8.91 g/m*3 12.7 C 0 km/h
2575 07-09-2020 22:30:00 12.6 C 8.96 g/m*3 12.6 C 0 km/h
Sensor: Nr:Datum:Temp:Abs-Feuchte:Windchill:Wind:
Aussen-T/F 2576 07-09-2020 22:35:00 12.5 C 8.91 g/m*3 12.5 C 0 km/h
2577 07-09-2020 22:40:00 12.4 C 8.85 g/m*3 12.4 C 0 km/h
2578 07-09-2020 22:45:00 12.3 C 8.9 g/m*3 12.3 C 0 km/h
2579 07-09-2020 22:50:00 12.3 C 8.9 g/m*3 12.3 C 0 km/h
2580 07-09-2020 22:55:00 12.2 C 8.85 g/m*3 12.2 C 0 km/h
2581 07-09-2020 23:00:00 12.1 C 8.9 g/m*3 12.1 C 0 km/h
2582 07-09-2020 23:05:00 12 C 8.74 g/m*3 12 C 0 km/h
2583 07-09-2020 23:10:00 11.9 C 8.79 g/m*3 11.9 C 0 km/h
2584 07-09-2020 23:15:00 11.8 C 8.74 g/m*3 11.8 C 0 km/h
2585 07-09-2020 23:20:00 11.8 C 8.74 g/m*3 11.8 C 0 km/h
2586 07-09-2020 23:25:00 11.7 C 8.68 g/m*3 11.7 C 0 km/h
2587 07-09-2020 23:30:00 11.7 C 8.68 g/m*3 11.7 C 0 km/h
2588 07-09-2020 23:35:00 11.6 C 8.63 g/m*3 11.6 C 0 km/h
2589 07-09-2020 23:40:00 11.5 C 8.57 g/m*3 11.5 C 0 km/h
2590 07-09-2020 23:45:00 11.4 C 8.62 g/m*3 11.4 C 0 km/h
2591 07-09-2020 23:50:00 11.3 C 8.57 g/m*3 11.3 C 0 km/h
2592 07-09-2020 23:55:00 11.3 C 8.57 g/m*3 11.3 C 0 km/h
2593 08-09-2020 00:00:00 11.2 C 8.51 g/m*3 11.2 C 0 km/h
2594 08-09-2020 00:05:00 11.2 C 8.62 g/m*3 11.2 C 0 km/h
2595 08-09-2020 00:10:00 11.1 C 8.56 g/m*3 11.1 C 0 km/h
2596 08-09-2020 00:15:00 11 C 8.51 g/m*3 11 C 0 km/h
2597 08-09-2020 00:20:00 10.9 C 8.45 g/m*3 10.9 C 0 km/h
2598 08-09-2020 00:25:00 10.9 C 8.45 g/m*3 10.9 C 0 km/h
2599 08-09-2020 00:30:00 10.8 C 8.5 g/m*3 10.8 C 0 km/h
2600 08-09-2020 00:35:00 10.8 C 8.5 g/m*3 10.8 C 0 km/h
Sensor: Nr:Datum:Temp:Abs-Feuchte:Windchill:Wind:
Aussen-T/F 2601 08-09-2020 00:40:00 10.7 C 8.45 g/m*3 10.7 C 0 km/h
2602 08-09-2020 00:45:00 10.7 C 8.45 g/m*3 10.7 C 0 km/h
2603 08-09-2020 00:50:00 10.6 C 8.49 g/m*3 10.6 C 0 km/h
2604 08-09-2020 00:55:00 10.6 C 8.39 g/m*3 10.6 C 0 km/h
2605 08-09-2020 01:00:00 10.6 C 8.49 g/m*3 10.6 C 0 km/h
2606 08-09-2020 01:05:00 10.5 C 8.44 g/m*3 10.5 C 0 km/h
2607 08-09-2020 01:10:00 10.4 C 8.38 g/m*3 10.4 C 0 km/h
2608 08-09-2020 01:15:00 10.5 C 8.53 g/m*3 10.5 C 0 km/h
2609 08-09-2020 01:20:00 10.6 C 8.49 g/m*3 10.6 C 0 km/h
2610 08-09-2020 01:25:00 10.6 C 8.49 g/m*3 10.6 C 0 km/h
2611 08-09-2020 01:30:00 10.5 C 8.44 g/m*3 10.5 C 0 km/h
2612 08-09-2020 01:35:00 10.4 C 8.38 g/m*3 10.4 C 0 km/h
2613 08-09-2020 01:40:00 10.3 C 8.33 g/m*3 10.3 C 1.6 km/h
2614 08-09-2020 01:45:00 10.3 C 8.43 g/m*3 10.3 C 0 km/h
2615 08-09-2020 01:50:00 10.2 C 8.37 g/m*3 10.2 C 0 km/h
2616 08-09-2020 01:55:00 10.2 C 8.37 g/m*3 10.2 C 0 km/h
2617 08-09-2020 02:00:00 10.1 C 8.32 g/m*3 10.1 C 0 km/h
2618 08-09-2020 02:05:00 10 C 8.27 g/m*3 10 C 0 km/h
2619 08-09-2020 02:10:00 9.9 C 8.22 g/m*3 9.9 C 0 km/h
2620 08-09-2020 02:15:00 9.9 C 8.31 g/m*3 9.9 C 0 km/h
2621 08-09-2020 02:20:00 9.8 C 8.26 g/m*3 9.8 C 0 km/h
2622 08-09-2020 02:25:00 9.8 C 8.26 g/m*3 9.8 C 0 km/h
2623 08-09-2020 02:30:00 9.7 C 8.2 g/m*3 9.7 C 0 km/h
2624 08-09-2020 02:35:00 9.7 C 8.2 g/m*3 9.7 C 0 km/h
2625 08-09-2020 02:40:00 9.7 C 8.2 g/m*3 9.7 C 0 km/h
Sensor: Nr:Datum:Temp:Abs-Feuchte:Windchill:Wind:
Aussen-T/F 2626 08-09-2020 02:45:00 9.6 C 8.15 g/m*3 9.6 C 0 km/h
2627 08-09-2020 02:50:00 9.6 C 8.24 g/m*3 9.6 C 0 km/h
2628 08-09-2020 02:55:00 9.5 C 8.19 g/m*3 9.5 C 0 km/h
2629 08-09-2020 03:00:00 9.5 C 8.19 g/m*3 9.5 C 0 km/h
2630 08-09-2020 03:05:00 9.4 C 8.14 g/m*3 9.4 C 0 km/h
2631 08-09-2020 03:10:00 9.4 C 8.14 g/m*3 9.4 C 0 km/h
2632 08-09-2020 03:15:00 9.4 C 8.14 g/m*3 9.4 C 0 km/h
2633 08-09-2020 03:20:00 9.3 C 8.09 g/m*3 9.3 C 0 km/h
2634 08-09-2020 03:25:00 9.3 C 8.09 g/m*3 9.3 C 0 km/h
2635 08-09-2020 03:30:00 9.2 C 8.04 g/m*3 9.2 C 0 km/h
2636 08-09-2020 03:35:00 9.2 C 8.13 g/m*3 9.2 C 0 km/h
2637 08-09-2020 03:40:00 9.1 C 8.07 g/m*3 9.1 C 0 km/h
2638 08-09-2020 03:45:00 9.1 C 8.07 g/m*3 9.1 C 0 km/h
2639 08-09-2020 03:50:00 9.1 C 8.07 g/m*3 9.1 C 0 km/h
2640 08-09-2020 03:55:00 9 C 8.02 g/m*3 9 C 0 km/h
2641 08-09-2020 04:00:00 8.9 C 7.97 g/m*3 8.9 C 0 km/h
2642 08-09-2020 04:05:00 8.9 C 7.97 g/m*3 8.9 C 0 km/h
2643 08-09-2020 04:10:00 8.8 C 7.92 g/m*3 8.8 C 0 km/h
2644 08-09-2020 04:15:00 8.8 C 7.92 g/m*3 8.8 C 0 km/h
2645 08-09-2020 04:20:00 8.8 C 7.92 g/m*3 8.8 C 0 km/h
2646 08-09-2020 04:25:00 8.7 C 7.96 g/m*3 8.7 C 0 km/h
2647 08-09-2020 04:30:00 8.7 C 7.96 g/m*3 8.7 C 0 km/h
2648 08-09-2020 04:35:00 8.7 C 7.96 g/m*3 8.7 C 0 km/h
2649 08-09-2020 04:40:00 8.7 C 7.96 g/m*3 8.7 C 0 km/h
2650 08-09-2020 04:45:00 8.6 C 7.91 g/m*3 8.6 C 0 km/h
Sensor: Nr:Datum:Temp:Abs-Feuchte:Windchill:Wind:
Aussen-T/F 2651 08-09-2020 04:50:00 8.6 C 7.91 g/m*3 8.6 C 0 km/h
2652 08-09-2020 04:55:00 8.5 C 7.85 g/m*3 8.5 C 0 km/h
2653 08-09-2020 05:00:00 8.4 C 7.8 g/m*3 8.4 C 0 km/h
2654 08-09-2020 05:05:00 8.4 C 7.8 g/m*3 8.4 C 0 km/h
2655 08-09-2020 05:10:00 8.4 C 7.8 g/m*3 8.4 C 0 km/h
2656 08-09-2020 05:15:00 8.5 C 7.94 g/m*3 8.5 C 0 km/h
2657 08-09-2020 05:20:00 8.6 C 7.99 g/m*3 8.6 C 0 km/h
2658 08-09-2020 05:25:00 8.6 C 7.99 g/m*3 8.6 C 0 km/h
2659 08-09-2020 05:30:00 8.5 C 7.94 g/m*3 8.5 C 0 km/h
2660 08-09-2020 05:35:00 8.4 C 7.89 g/m*3 8.4 C 0 km/h
2661 08-09-2020 05:40:00 8.4 C 7.8 g/m*3 8.4 C 0 km/h
2662 08-09-2020 05:45:00 8.3 C 7.84 g/m*3 8.3 C 0 km/h
2663 08-09-2020 05:50:00 8.3 C 7.75 g/m*3 8.3 C 0 km/h
2664 08-09-2020 05:55:00 8.2 C 7.7 g/m*3 8.2 C 0 km/h
2665 08-09-2020 06:00:00 8.2 C 7.79 g/m*3 8.2 C 0 km/h
2666 08-09-2020 06:05:00 8.2 C 7.79 g/m*3 8.2 C 0 km/h
2667 08-09-2020 06:10:00 8.1 C 7.74 g/m*3 8.1 C 0 km/h
2668 08-09-2020 06:15:00 8.1 C 7.74 g/m*3 8.1 C 0 km/h
2669 08-09-2020 06:20:00 8.1 C 7.74 g/m*3 8.1 C 0 km/h
2670 08-09-2020 06:25:00 8.1 C 7.74 g/m*3 8.1 C 0 km/h
2671 08-09-2020 06:30:00 8.1 C 7.74 g/m*3 8.1 C 0 km/h
2672 08-09-2020 06:35:00 8.1 C 7.74 g/m*3 8.1 C 0 km/h
2673 08-09-2020 06:40:00 8 C 7.69 g/m*3 8 C 0 km/h
2674 08-09-2020 06:45:00 7.9 C 7.64 g/m*3 7.9 C 0 km/h
2675 08-09-2020 06:50:00 7.9 C 7.64 g/m*3 7.9 C 0 km/h
Sensor: Nr:Datum:Temp:Abs-Feuchte:Windchill:Wind:
Aussen-T/F 2676 08-09-2020 06:55:00 7.9 C 7.64 g/m*3 7.9 C 0 km/h
2677 08-09-2020 07:00:00 7.9 C 7.64 g/m*3 7.9 C 0 km/h
2678 08-09-2020 07:05:00 7.9 C 7.72 g/m*3 7.9 C 0 km/h
2679 08-09-2020 07:10:00 7.9 C 7.72 g/m*3 7.9 C 0 km/h
2680 08-09-2020 07:15:00 7.9 C 7.72 g/m*3 7.9 C 0 km/h
2681 08-09-2020 07:20:00 7.9 C 7.72 g/m*3 7.9 C 0 km/h
2682 08-09-2020 07:25:00 8.1 C 7.82 g/m*3 8.1 C 0 km/h
2683 08-09-2020 07:30:00 8.2 C 7.87 g/m*3 8.2 C 0 km/h
2684 08-09-2020 07:35:00 8.2 C 7.87 g/m*3 8.2 C 0 km/h
2685 08-09-2020 07:40:00 8.3 C 7.92 g/m*3 8.3 C 0 km/h
2686 08-09-2020 07:45:00 8.4 C 7.97 g/m*3 8.4 C 0 km/h
2687 08-09-2020 07:50:00 8.4 C 7.97 g/m*3 8.4 C 0 km/h
2688 08-09-2020 07:55:00 8.4 C 7.97 g/m*3 8.4 C 0 km/h
2689 08-09-2020 08:00:00 8.4 C 7.97 g/m*3 8.4 C 0 km/h
2690 08-09-2020 08:05:00 8.4 C 7.97 g/m*3 8.4 C 0 km/h
2691 08-09-2020 08:10:00 8.5 C 8.03 g/m*3 8.5 C 0 km/h
2692 08-09-2020 08:15:00 8.6 C 8.08 g/m*3 8.6 C 0 km/h
2693 08-09-2020 08:20:00 8.7 C 8.13 g/m*3 8.7 C 0 km/h
2694 08-09-2020 08:25:00 8.7 C 8.13 g/m*3 8.7 C 0 km/h
2695 08-09-2020 08:30:00 8.8 C 8.18 g/m*3 8.8 C 0 km/h
2696 08-09-2020 08:35:00 8.9 C 8.32 g/m*3 8.9 C 0 km/h
2697 08-09-2020 08:40:00 9 C 8.29 g/m*3 9 C 0 km/h
2698 08-09-2020 08:45:00 9 C 8.29 g/m*3 9 C 0 km/h
2699 08-09-2020 08:50:00 9.1 C 8.34 g/m*3 9.1 C 0 km/h
2700 08-09-2020 08:55:00 9.1 C 8.34 g/m*3 9.1 C 0 km/h
Sensor: Nr:Datum:Temp:Abs-Feuchte:Windchill:Wind:
Aussen-T/F 2701 08-09-2020 09:00:00 9.2 C 8.39 g/m*3 9.2 C 0 km/h
2702 08-09-2020 09:05:00 9.2 C 8.39 g/m*3 9.2 C 0 km/h
2703 08-09-2020 09:10:00 9.3 C 8.45 g/m*3 9.3 C 0 km/h
2704 08-09-2020 09:15:00 9.4 C 8.5 g/m*3 9.4 C 0 km/h
2705 08-09-2020 09:20:00 9.5 C 8.56 g/m*3 9.5 C 0 km/h
2706 08-09-2020 09:25:00 9.6 C 8.61 g/m*3 9.6 C 0 km/h
2707 08-09-2020 09:30:00 9.6 C 8.61 g/m*3 9.6 C 3.2 km/h
2708 08-09-2020 09:35:00 9.8 C 8.72 g/m*3 9.8 C 3.2 km/h
2709 08-09-2020 09:40:00 9.9 C 8.78 g/m*3 9.9 C 1.6 km/h
2710 08-09-2020 09:45:00 10.2 C 8.95 g/m*3 10.2 C 1.6 km/h
2711 08-09-2020 09:50:00 10.4 C 9.06 g/m*3 10.4 C 0 km/h
2712 08-09-2020 09:55:00 10.6 C 9.17 g/m*3 10.6 C 0 km/h
2713 08-09-2020 10:00:00 10.7 C 9.23 g/m*3 10.7 C 1.6 km/h
2714 08-09-2020 10:05:00 10.9 C 9.25 g/m*3 10.9 C 1.6 km/h
2715 08-09-2020 10:10:00 11.1 C 9.37 g/m*3 11.1 C 3.2 km/h
2716 08-09-2020 10:15:00 11.3 C 9.49 g/m*3 11.3 C 3.2 km/h
2717 08-09-2020 10:20:00 11.6 C 9.56 g/m*3 11.6 C 4.8 km/h
2718 08-09-2020 10:25:00 11.9 C 9.74 g/m*3 11.9 C 3.2 km/h
2719 08-09-2020 10:30:00 12.2 C 9.82 g/m*3 12.2 C 1.6 km/h
2720 08-09-2020 10:35:00 12.6 C 9.96 g/m*3 12.6 C 0 km/h
2721 08-09-2020 10:40:00 13 C 10.09 g/m*3 13 C 1.6 km/h
2722 08-09-2020 10:45:00 13.3 C 10.17 g/m*3 13.3 C 0 km/h
2723 08-09-2020 10:50:00 13.7 C 10.18 g/m*3 13.7 C 3.2 km/h
2724 08-09-2020 10:55:00 14.2 C 10.26 g/m*3 14.2 C 6.4 km/h
2725 08-09-2020 11:00:00 14.7 C 10.2 g/m*3 14.7 C 6.4 km/h
Sensor: Nr:Datum:Temp:Abs-Feuchte:Windchill:Wind:
Aussen-T/F 2726 08-09-2020 11:05:00 15.3 C 10.19 g/m*3 15.3 C 3.2 km/h
2727 08-09-2020 11:10:00 15.8 C 10.23 g/m*3 15.8 C 1.6 km/h
2728 08-09-2020 11:15:00 16.3 C 10.41 g/m*3 16.3 C 1.6 km/h
2729 08-09-2020 11:20:00 16.7 C 10.23 g/m*3 16.7 C 8.1 km/h
2730 08-09-2020 11:25:00 17.3 C 10.46 g/m*3 17.3 C 8.1 km/h
2731 08-09-2020 11:30:00 17.8 C 10.32 g/m*3 17.8 C 8.1 km/h
2732 08-09-2020 11:35:00 18.3 C 10.16 g/m*3 18.3 C 6.4 km/h
2733 08-09-2020 11:40:00 18.7 C 10.41 g/m*3 18.7 C 8.1 km/h
2734 08-09-2020 11:45:00 19.1 C 10.33 g/m*3 19.1 C 9.7 km/h
2735 08-09-2020 11:50:00 19.3 C 10.12 g/m*3 19.3 C 11.3 km/h
2736 08-09-2020 11:55:00 19.6 C 10.3 g/m*3 19.6 C 11.3 km/h
2737 08-09-2020 12:00:00 19.8 C 10.59 g/m*3 19.8 C 8.1 km/h
2738 08-09-2020 12:05:00 19.9 C 10.31 g/m*3 19.9 C 8.1 km/h
2739 08-09-2020 12:10:00 20.2 C 10.32 g/m*3 20.2 C 16.1 km/h
2740 08-09-2020 12:15:00 20.4 C 10.26 g/m*3 20.4 C 8.1 km/h
2741 08-09-2020 12:20:00 20.6 C 10.38 g/m*3 20.6 C 11.3 km/h
2742 08-09-2020 12:25:00 20.7 C 10.44 g/m*3 20.7 C 8.1 km/h
2743 08-09-2020 12:30:00 20.8 C 10.14 g/m*3 20.8 C 12.9 km/h
2744 08-09-2020 12:35:00 21 C 10.44 g/m*3 21 C 6.4 km/h
2745 08-09-2020 12:40:00 21.1 C 10.32 g/m*3 21.1 C 9.7 km/h
2746 08-09-2020 12:45:00 21.3 C 10.25 g/m*3 21.3 C 12.9 km/h
2747 08-09-2020 12:50:00 21.3 C 10.07 g/m*3 21.3 C 14.5 km/h
2748 08-09-2020 12:55:00 21.4 C 10.31 g/m*3 21.4 C 14.5 km/h
2749 08-09-2020 13:00:00 21.6 C 10.05 g/m*3 21.6 C 14.5 km/h
2750 08-09-2020 13:05:00 21.7 C 10.11 g/m*3 21.7 C 11.3 km/h
Sensor: Nr:Datum:Temp:Abs-Feuchte:Windchill:Wind:
Aussen-T/F 2751 08-09-2020 13:10:00 21.8 C 10.17 g/m*3 21.8 C 11.3 km/h
2752 08-09-2020 13:15:00 21.9 C 10.23 g/m*3 21.9 C 8.1 km/h
2753 08-09-2020 13:20:00 22.1 C 10.35 g/m*3 22.1 C 14.5 km/h
2754 08-09-2020 13:25:00 22.1 C 10.15 g/m*3 22.1 C 9.7 km/h
2755 08-09-2020 13:30:00 22.1 C 10.35 g/m*3 22.1 C 11.3 km/h
2756 08-09-2020 13:35:00 22.2 C 10.41 g/m*3 22.2 C 6.4 km/h
2757 08-09-2020 13:40:00 22.3 C 10.07 g/m*3 22.3 C 14.5 km/h
2758 08-09-2020 13:45:00 22.4 C 10.13 g/m*3 22.4 C 6.4 km/h
2759 08-09-2020 13:50:00 22.5 C 10.19 g/m*3 22.5 C 9.7 km/h
2760 08-09-2020 13:55:00 22.6 C 10.45 g/m*3 22.6 C 8.1 km/h
2761 08-09-2020 14:00:00 22.6 C 10.25 g/m*3 22.6 C 11.3 km/h
2762 08-09-2020 14:05:00 22.6 C 10.04 g/m*3 22.6 C 8.1 km/h
2763 08-09-2020 14:10:00 22.7 C 10.3 g/m*3 22.7 C 11.3 km/h
2764 08-09-2020 14:15:00 22.7 C 10.3 g/m*3 22.7 C 8.1 km/h
2765 08-09-2020 14:20:00 22.8 C 10.16 g/m*3 22.8 C 9.7 km/h
2766 08-09-2020 14:25:00 23 C 10.28 g/m*3 23 C 8.1 km/h
2767 08-09-2020 14:30:00 23.1 C 10.54 g/m*3 23.1 C 6.4 km/h
2768 08-09-2020 14:35:00 23.2 C 10.19 g/m*3 23.2 C 8.1 km/h
2769 08-09-2020 14:40:00 23.3 C 10.45 g/m*3 23.3 C 11.3 km/h
2770 08-09-2020 14:45:00 23.5 C 10.15 g/m*3 23.5 C 14.5 km/h
2771 08-09-2020 14:50:00 23.6 C 10.21 g/m*3 23.6 C 8.1 km/h
2772 08-09-2020 14:55:00 23.7 C 10.27 g/m*3 23.7 C 9.7 km/h
2773 08-09-2020 15:00:00 23.9 C 10.17 g/m*3 23.9 C 9.7 km/h
2774 08-09-2020 15:05:00 24 C 10.44 g/m*3 24 C 6.4 km/h
2775 08-09-2020 15:10:00 24 C 10.23 g/m*3 24 C 14.5 km/h
Sensor: Nr:Datum:Temp:Abs-Feuchte:Windchill:Wind:
Aussen-T/F 2776 08-09-2020 15:15:00 24.1 C 10.28 g/m*3 24.1 C 12.9 km/h
2777 08-09-2020 15:20:00 24.1 C 10.28 g/m*3 24.1 C 11.3 km/h
2778 08-09-2020 15:25:00 24.3 C 10.4 g/m*3 24.3 C 12.9 km/h
2779 08-09-2020 15:30:00 24.3 C 10.18 g/m*3 24.3 C 11.3 km/h
2780 08-09-2020 15:35:00 24.3 C 10.4 g/m*3 24.3 C 6.4 km/h
2781 08-09-2020 15:40:00 24.3 C 10.18 g/m*3 24.3 C 9.7 km/h
2782 08-09-2020 15:45:00 24.4 C 10.24 g/m*3 24.4 C 6.4 km/h
2783 08-09-2020 15:50:00 24.5 C 10.3 g/m*3 24.5 C 14.5 km/h
2784 08-09-2020 15:55:00 24.6 C 10.13 g/m*3 24.6 C 12.9 km/h
2785 08-09-2020 16:00:00 24.7 C 10.41 g/m*3 24.7 C 8.1 km/h
2786 08-09-2020 16:05:00 24.8 C 10.02 g/m*3 24.8 C 12.9 km/h
2787 08-09-2020 16:10:00 24.9 C 10.07 g/m*3 24.9 C 8.1 km/h
2788 08-09-2020 16:15:00 24.9 C 10.3 g/m*3 24.9 C 6.4 km/h
2789 08-09-2020 16:20:00 25.2 C 10.24 g/m*3 25.2 C 11.3 km/h
2790 08-09-2020 16:25:00 25.4 C 10.36 g/m*3 25.4 C 9.7 km/h
2791 08-09-2020 16:30:00 25.8 C 10.59 g/m*3 25.8 C 11.3 km/h
2792 08-09-2020 16:35:00 25.9 C 10.65 g/m*3 25.9 C 1.6 km/h
2793 08-09-2020 16:40:00 26.2 C 10.34 g/m*3 26.2 C 11.3 km/h
2794 08-09-2020 16:45:00 26.3 C 10.4 g/m*3 26.3 C 6.4 km/h
2795 08-09-2020 16:50:00 26.6 C 10.32 g/m*3 26.6 C 12.9 km/h
2796 08-09-2020 16:55:00 26.9 C 10.75 g/m*3 26.9 C 9.7 km/h
2797 08-09-2020 17:00:00 27.1 C 10.35 g/m*3 27.1 C 14.5 km/h
2798 08-09-2020 17:05:00 27.2 C 10.41 g/m*3 27.2 C 8.1 km/h
2799 08-09-2020 17:10:00 27.3 C 10.47 g/m*3 27.3 C 9.7 km/h
2800 08-09-2020 17:15:00 27.4 C 10.52 g/m*3 27.4 C 4.8 km/h
Sensor: Nr:Datum:Temp:Abs-Feuchte:Windchill:Wind:
Aussen-T/F 2801 08-09-2020 17:20:00 27.6 C 10.64 g/m*3 27.6 C 6.4 km/h
2802 08-09-2020 17:25:00 27.8 C 10.49 g/m*3 27.8 C 4.8 km/h
2803 08-09-2020 17:30:00 27.9 C 10.55 g/m*3 27.9 C 6.4 km/h
2804 08-09-2020 17:35:00 27.9 C 10.82 g/m*3 27.9 C 8.1 km/h
2805 08-09-2020 17:40:00 27.7 C 10.97 g/m*3 27.7 C 8.1 km/h
2806 08-09-2020 17:45:00 27.7 C 10.7 g/m*3 27.7 C 9.7 km/h
2807 08-09-2020 17:50:00 27.7 C 10.7 g/m*3 27.7 C 12.9 km/h
2808 08-09-2020 17:55:00 27.7 C 10.97 g/m*3 27.7 C 14.5 km/h
2809 08-09-2020 18:00:00 27.8 C 11.3 g/m*3 27.8 C 4.8 km/h
2810 08-09-2020 18:05:00 28 C 10.61 g/m*3 28 C 6.4 km/h
2811 08-09-2020 18:10:00 28.2 C 11.82 g/m*3 28.2 C 3.2 km/h
2812 08-09-2020 18:15:00 28.2 C 11 g/m*3 28.2 C 8.1 km/h
2813 08-09-2020 18:20:00 28.1 C 10.94 g/m*3 28.1 C 9.7 km/h
2814 08-09-2020 18:25:00 27.8 C 10.76 g/m*3 27.8 C 11.3 km/h
2815 08-09-2020 18:30:00 27.6 C 11.17 g/m*3 27.6 C 9.7 km/h
2816 08-09-2020 18:35:00 27.5 C 10.32 g/m*3 27.5 C 3.2 km/h
2817 08-09-2020 18:40:00 27.6 C 11.71 g/m*3 27.6 C 3.2 km/h
2818 08-09-2020 18:45:00 27.8 C 11.3 g/m*3 27.8 C 4.8 km/h
2819 08-09-2020 18:50:00 27.8 C 11.3 g/m*3 27.8 C 6.4 km/h
2820 08-09-2020 18:55:00 27.6 C 11.97 g/m*3 27.6 C 6.4 km/h
2821 08-09-2020 19:00:00 27.2 C 11.97 g/m*3 27.2 C 6.4 km/h
2822 08-09-2020 19:05:00 26.7 C 11.9 g/m*3 26.7 C 8.1 km/h
2823 08-09-2020 19:10:00 26.3 C 12.13 g/m*3 26.3 C 9.7 km/h
2824 08-09-2020 19:15:00 25.9 C 12.1 g/m*3 25.9 C 6.4 km/h
2825 08-09-2020 19:20:00 25.5 C 12.31 g/m*3 25.5 C 6.4 km/h
Sensor: Nr:Datum:Temp:Abs-Feuchte:Windchill:Wind:
Aussen-T/F 2826 08-09-2020 19:25:00 25.1 C 12.5 g/m*3 25.1 C 6.4 km/h
2827 08-09-2020 19:30:00 24.9 C 12.59 g/m*3 24.9 C 4.8 km/h
2828 08-09-2020 19:35:00 24.6 C 12.38 g/m*3 24.6 C 3.2 km/h
2829 08-09-2020 19:40:00 24.4 C 12.91 g/m*3 24.4 C 3.2 km/h
2830 08-09-2020 19:45:00 24.2 C 12.76 g/m*3 24.2 C 1.6 km/h
2831 08-09-2020 19:50:00 23.7 C 12.83 g/m*3 23.7 C 3.2 km/h
2832 08-09-2020 19:55:00 23.1 C 12.61 g/m*3 23.1 C 0 km/h
2833 08-09-2020 20:00:00 22.5 C 12.58 g/m*3 22.5 C 0 km/h
2834 08-09-2020 20:05:00 22 C 12.62 g/m*3 22 C 4.8 km/h
2835 08-09-2020 20:10:00 21.6 C 12.52 g/m*3 21.6 C 0 km/h
2836 08-09-2020 20:15:00 21.2 C 12.42 g/m*3 21.2 C 0 km/h
2837 08-09-2020 20:20:00 20.8 C 12.31 g/m*3 20.8 C 0 km/h
2838 08-09-2020 20:25:00 20.6 C 12.53 g/m*3 20.6 C 0 km/h
2839 08-09-2020 20:30:00 20.3 C 12.31 g/m*3 20.3 C 0 km/h
2840 08-09-2020 20:35:00 20.1 C 12.34 g/m*3 20.1 C 3.2 km/h
2841 08-09-2020 20:40:00 19.9 C 12.37 g/m*3 19.9 C 0 km/h
2842 08-09-2020 20:45:00 19.7 C 12.4 g/m*3 19.7 C 4.8 km/h
2843 08-09-2020 20:50:00 19.5 C 12.42 g/m*3 19.5 C 0 km/h
2844 08-09-2020 20:55:00 19.3 C 12.27 g/m*3 19.3 C 4.8 km/h
2845 08-09-2020 21:00:00 19.2 C 12.37 g/m*3 19.2 C 0 km/h
2846 08-09-2020 21:05:00 19.1 C 12.29 g/m*3 19.1 C 0 km/h
2847 08-09-2020 21:10:00 18.9 C 12.31 g/m*3 18.9 C 0 km/h
2848 08-09-2020 21:15:00 18.8 C 12.24 g/m*3 18.8 C 4.8 km/h
2849 08-09-2020 21:20:00 18.7 C 12.33 g/m*3 18.7 C 0 km/h
2850 08-09-2020 21:25:00 18.7 C 12.33 g/m*3 18.7 C 3.2 km/h
Sensor: Nr:Datum:Temp:Abs-Feuchte:Windchill:Wind:
Aussen-T/F 2851 08-09-2020 21:30:00 18.6 C 12.26 g/m*3 18.6 C 1.6 km/h
2852 08-09-2020 21:35:00 18.6 C 12.26 g/m*3 18.6 C 3.2 km/h
2853 08-09-2020 21:40:00 18.5 C 12.18 g/m*3 18.5 C 3.2 km/h
2854 08-09-2020 21:45:00 18.4 C 12.27 g/m*3 18.4 C 0 km/h
2855 08-09-2020 21:50:00 18.3 C 12.2 g/m*3 18.3 C 6.4 km/h
2856 08-09-2020 21:55:00 18.2 C 12.12 g/m*3 18.2 C 4.8 km/h
2857 08-09-2020 22:00:00 18.1 C 12.21 g/m*3 18.1 C 1.6 km/h
2858 08-09-2020 22:05:00 17.9 C 12.06 g/m*3 17.9 C 6.4 km/h
2859 08-09-2020 22:10:00 17.9 C 12.06 g/m*3 17.9 C 3.2 km/h
2860 08-09-2020 22:15:00 17.8 C 12.14 g/m*3 17.8 C 6.4 km/h
2861 08-09-2020 22:20:00 17.7 C 12.07 g/m*3 17.7 C 0 km/h
2862 08-09-2020 22:25:00 17.6 C 12 g/m*3 17.6 C 1.6 km/h
2863 08-09-2020 22:30:00 17.5 C 12.08 g/m*3 17.5 C 3.2 km/h
2864 08-09-2020 22:35:00 17.4 C 12 g/m*3 17.4 C 6.4 km/h
2865 08-09-2020 22:40:00 17.3 C 11.93 g/m*3 17.3 C 3.2 km/h
2866 08-09-2020 22:45:00 17.3 C 11.93 g/m*3 17.3 C 0 km/h
2867 08-09-2020 22:50:00 17.2 C 12.01 g/m*3 17.2 C 0 km/h
2868 08-09-2020 22:55:00 17.1 C 11.94 g/m*3 17.1 C 0 km/h
2869 08-09-2020 23:00:00 16.9 C 11.79 g/m*3 16.9 C 0 km/h
2870 08-09-2020 23:05:00 16.8 C 11.87 g/m*3 16.8 C 0 km/h
2871 08-09-2020 23:10:00 16.7 C 11.8 g/m*3 16.7 C 0 km/h
2872 08-09-2020 23:15:00 16.5 C 11.8 g/m*3 16.5 C 0 km/h
2873 08-09-2020 23:20:00 16.4 C 11.72 g/m*3 16.4 C 0 km/h
2874 08-09-2020 23:25:00 16.3 C 11.79 g/m*3 16.3 C 0 km/h
2875 08-09-2020 23:30:00 16.2 C 11.72 g/m*3 16.2 C 0 km/h
Sensor: Nr:Datum:Temp:Abs-Feuchte:Windchill:Wind:
Aussen-T/F 2876 08-09-2020 23:35:00 16 C 11.58 g/m*3 16 C 0 km/h
2877 08-09-2020 23:40:00 15.9 C 11.65 g/m*3 15.9 C 0 km/h
2878 08-09-2020 23:45:00 15.8 C 11.71 g/m*3 15.8 C 0 km/h
2879 08-09-2020 23:50:00 15.7 C 11.64 g/m*3 15.7 C 0 km/h
2880 08-09-2020 23:55:00 15.7 C 11.64 g/m*3 15.7 C 0 km/h
2881 09-09-2020 00:00:00 15.6 C 11.57 g/m*3 15.6 C 0 km/h
2882 09-09-2020 00:05:00 15.5 C 11.5 g/m*3 15.5 C 0 km/h
2883 09-09-2020 00:10:00 15.4 C 11.43 g/m*3 15.4 C 0 km/h
2884 09-09-2020 00:15:00 15.3 C 11.49 g/m*3 15.3 C 0 km/h
2885 09-09-2020 00:20:00 15.2 C 11.42 g/m*3 15.2 C 0 km/h
2886 09-09-2020 00:25:00 15.2 C 11.42 g/m*3 15.2 C 0 km/h
2887 09-09-2020 00:30:00 15.1 C 11.35 g/m*3 15.1 C 0 km/h
2888 09-09-2020 00:35:00 15.1 C 11.35 g/m*3 15.1 C 0 km/h
2889 09-09-2020 00:40:00 15 C 11.41 g/m*3 15 C 0 km/h
2890 09-09-2020 00:45:00 14.9 C 11.34 g/m*3 14.9 C 0 km/h
2891 09-09-2020 00:50:00 14.8 C 11.27 g/m*3 14.8 C 0 km/h
2892 09-09-2020 00:55:00 14.8 C 11.4 g/m*3 14.8 C 0 km/h
2893 09-09-2020 01:00:00 14.8 C 11.4 g/m*3 14.8 C 0 km/h
2894 09-09-2020 01:05:00 14.7 C 11.33 g/m*3 14.7 C 0 km/h
2895 09-09-2020 01:10:00 14.7 C 11.33 g/m*3 14.7 C 0 km/h
2896 09-09-2020 01:15:00 14.6 C 11.26 g/m*3 14.6 C 0 km/h
2897 09-09-2020 01:20:00 14.5 C 11.19 g/m*3 14.5 C 0 km/h
2898 09-09-2020 01:25:00 14.4 C 11.13 g/m*3 14.4 C 0 km/h
2899 09-09-2020 01:30:00 14.4 C 11.25 g/m*3 14.4 C 0 km/h
2900 09-09-2020 01:35:00 14.4 C 11.25 g/m*3 14.4 C 0 km/h
Sensor: Nr:Datum:Temp:Abs-Feuchte:Windchill:Wind:
Aussen-T/F 2901 09-09-2020 01:40:00 14.3 C 11.18 g/m*3 14.3 C 0 km/h
2902 09-09-2020 01:45:00 14.3 C 11.18 g/m*3 14.3 C 0 km/h
2903 09-09-2020 01:50:00 14.3 C 11.18 g/m*3 14.3 C 0 km/h
2904 09-09-2020 01:55:00 14.2 C 11.11 g/m*3 14.2 C 0 km/h
2905 09-09-2020 02:00:00 14.2 C 11.11 g/m*3 14.2 C 0 km/h
2906 09-09-2020 02:05:00 14.1 C 11.04 g/m*3 14.1 C 0 km/h
2907 09-09-2020 02:10:00 14.1 C 11.04 g/m*3 14.1 C 0 km/h
2908 09-09-2020 02:15:00 14.1 C 11.04 g/m*3 14.1 C 0 km/h
2909 09-09-2020 02:20:00 13.9 C 10.91 g/m*3 13.9 C 0 km/h
2910 09-09-2020 02:25:00 13.9 C 11.03 g/m*3 13.9 C 0 km/h
2911 09-09-2020 02:30:00 13.8 C 10.96 g/m*3 13.8 C 0 km/h
2912 09-09-2020 02:35:00 13.8 C 10.96 g/m*3 13.8 C 0 km/h
2913 09-09-2020 02:40:00 13.8 C 10.96 g/m*3 13.8 C 0 km/h
2914 09-09-2020 02:45:00 13.8 C 10.96 g/m*3 13.8 C 0 km/h
2915 09-09-2020 02:50:00 13.7 C 10.89 g/m*3 13.7 C 0 km/h
2916 09-09-2020 02:55:00 13.7 C 10.89 g/m*3 13.7 C 0 km/h
2917 09-09-2020 03:00:00 13.7 C 11.01 g/m*3 13.7 C 0 km/h
2918 09-09-2020 03:05:00 13.6 C 10.95 g/m*3 13.6 C 0 km/h
2919 09-09-2020 03:10:00 13.6 C 10.95 g/m*3 13.6 C 0 km/h
2920 09-09-2020 03:15:00 13.4 C 10.69 g/m*3 13.4 C 0 km/h
2921 09-09-2020 03:20:00 13.4 C 10.69 g/m*3 13.4 C 0 km/h
2922 09-09-2020 03:25:00 13.4 C 10.81 g/m*3 13.4 C 0 km/h
2923 09-09-2020 03:30:00 13.3 C 10.74 g/m*3 13.3 C 0 km/h
2924 09-09-2020 03:35:00 13.2 C 10.68 g/m*3 13.2 C 0 km/h
2925 09-09-2020 03:40:00 13.2 C 10.68 g/m*3 13.2 C 0 km/h
Sensor: Nr:Datum:Temp:Abs-Feuchte:Windchill:Wind:
Aussen-T/F 2926 09-09-2020 03:45:00 13.2 C 10.68 g/m*3 13.2 C 0 km/h
2927 09-09-2020 03:50:00 13.1 C 10.61 g/m*3 13.1 C 0 km/h
2928 09-09-2020 03:55:00 13.1 C 10.61 g/m*3 13.1 C 0 km/h
2929 09-09-2020 04:00:00 13.1 C 10.61 g/m*3 13.1 C 0 km/h
2930 09-09-2020 04:05:00 13.1 C 10.61 g/m*3 13.1 C 0 km/h
2931 09-09-2020 04:10:00 13 C 10.55 g/m*3 13 C 0 km/h
2932 09-09-2020 04:15:00 12.9 C 10.48 g/m*3 12.9 C 0 km/h
2933 09-09-2020 04:20:00 12.9 C 10.48 g/m*3 12.9 C 0 km/h
2934 09-09-2020 04:25:00 12.9 C 10.48 g/m*3 12.9 C 0 km/h
2935 09-09-2020 04:30:00 12.9 C 10.48 g/m*3 12.9 C 0 km/h
2936 09-09-2020 04:35:00 12.8 C 10.42 g/m*3 12.8 C 0 km/h
2937 09-09-2020 04:40:00 12.8 C 10.42 g/m*3 12.8 C 0 km/h
2938 09-09-2020 04:45:00 12.7 C 10.46 g/m*3 12.7 C 0 km/h
2939 09-09-2020 04:50:00 12.7 C 10.46 g/m*3 12.7 C 0 km/h
2940 09-09-2020 04:55:00 12.6 C 10.4 g/m*3 12.6 C 0 km/h
2941 09-09-2020 05:00:00 12.6 C 10.4 g/m*3 12.6 C 0 km/h
2942 09-09-2020 05:05:00 12.6 C 10.4 g/m*3 12.6 C 0 km/h
2943 09-09-2020 05:10:00 12.6 C 10.4 g/m*3 12.6 C 0 km/h
2944 09-09-2020 05:15:00 12.6 C 10.4 g/m*3 12.6 C 0 km/h
2945 09-09-2020 05:20:00 12.6 C 10.4 g/m*3 12.6 C 0 km/h
2946 09-09-2020 05:25:00 12.5 C 10.33 g/m*3 12.5 C 0 km/h
2947 09-09-2020 05:30:00 12.4 C 10.27 g/m*3 12.4 C 0 km/h
2948 09-09-2020 05:35:00 12.4 C 10.27 g/m*3 12.4 C 0 km/h
2949 09-09-2020 05:40:00 12.4 C 10.27 g/m*3 12.4 C 0 km/h
2950 09-09-2020 05:45:00 12.3 C 10.21 g/m*3 12.3 C 0 km/h
Sensor: Nr:Datum:Temp:Abs-Feuchte:Windchill:Wind:
Aussen-T/F 2951 09-09-2020 05:50:00 12.3 C 10.32 g/m*3 12.3 C 0 km/h
2952 09-09-2020 05:55:00 12.3 C 10.21 g/m*3 12.3 C 0 km/h
2953 09-09-2020 06:00:00 12.4 C 10.38 g/m*3 12.4 C 0 km/h
2954 09-09-2020 06:05:00 12.3 C 10.21 g/m*3 12.3 C 0 km/h
2955 09-09-2020 06:10:00 12.3 C 10.21 g/m*3 12.3 C 0 km/h
2956 09-09-2020 06:15:00 12.3 C 10.21 g/m*3 12.3 C 0 km/h
2957 09-09-2020 06:20:00 12.2 C 10.14 g/m*3 12.2 C 0 km/h
2958 09-09-2020 06:25:00 12.2 C 10.14 g/m*3 12.2 C 0 km/h
2959 09-09-2020 06:30:00 12.1 C 10.19 g/m*3 12.1 C 0 km/h
2960 09-09-2020 06:35:00 12.1 C 10.19 g/m*3 12.1 C 0 km/h
2961 09-09-2020 06:40:00 12.1 C 10.19 g/m*3 12.1 C 0 km/h
2962 09-09-2020 06:45:00 12.1 C 10.19 g/m*3 12.1 C 0 km/h
2963 09-09-2020 06:50:00 12.1 C 10.19 g/m*3 12.1 C 0 km/h
2964 09-09-2020 06:55:00 12 C 10.12 g/m*3 12 C 0 km/h
2965 09-09-2020 07:00:00 11.9 C 10.06 g/m*3 11.9 C 0 km/h
2966 09-09-2020 07:05:00 11.9 C 10.06 g/m*3 11.9 C 0 km/h
2967 09-09-2020 07:10:00 11.9 C 10.06 g/m*3 11.9 C 0 km/h
2968 09-09-2020 07:15:00 11.9 C 10.06 g/m*3 11.9 C 0 km/h
2969 09-09-2020 07:20:00 11.9 C 10.06 g/m*3 11.9 C 0 km/h
2970 09-09-2020 07:25:00 11.9 C 10.06 g/m*3 11.9 C 0 km/h
2971 09-09-2020 07:30:00 11.9 C 10.06 g/m*3 11.9 C 0 km/h
2972 09-09-2020 07:35:00 12.1 C 10.19 g/m*3 12.1 C 1.6 km/h
2973 09-09-2020 07:40:00 12.2 C 10.25 g/m*3 12.2 C 0 km/h
2974 09-09-2020 07:45:00 12.2 C 10.25 g/m*3 12.2 C 0 km/h
2975 09-09-2020 07:50:00 12.2 C 10.36 g/m*3 12.2 C 0 km/h
Sensor: Nr:Datum:Temp:Abs-Feuchte:Windchill:Wind:
Aussen-T/F 2976 09-09-2020 07:55:00 12.2 C 10.25 g/m*3 12.2 C 0 km/h
2977 09-09-2020 08:00:00 12.2 C 10.25 g/m*3 12.2 C 0 km/h
2978 09-09-2020 08:05:00 12.2 C 10.36 g/m*3 12.2 C 0 km/h
2979 09-09-2020 08:10:00 12.2 C 10.25 g/m*3 12.2 C 0 km/h
2980 09-09-2020 08:15:00 12.2 C 10.25 g/m*3 12.2 C 0 km/h
2981 09-09-2020 08:20:00 12.2 C 10.36 g/m*3 12.2 C 1.6 km/h
2982 09-09-2020 08:25:00 12.3 C 10.42 g/m*3 12.3 C 0 km/h
2983 09-09-2020 08:30:00 12.4 C 10.49 g/m*3 12.4 C 1.6 km/h
2984 09-09-2020 08:35:00 12.5 C 10.55 g/m*3 12.5 C 1.6 km/h
2985 09-09-2020 08:40:00 12.6 C 10.62 g/m*3 12.6 C 0 km/h
2986 09-09-2020 08:45:00 12.7 C 10.69 g/m*3 12.7 C 1.6 km/h
2987 09-09-2020 08:50:00 12.7 C 10.69 g/m*3 12.7 C 3.2 km/h
2988 09-09-2020 08:55:00 12.8 C 10.75 g/m*3 12.8 C 4.8 km/h
2989 09-09-2020 09:00:00 12.8 C 10.75 g/m*3 12.8 C 1.6 km/h
2990 09-09-2020 09:05:00 12.9 C 10.82 g/m*3 12.9 C 0 km/h
2991 09-09-2020 09:10:00 13 C 10.89 g/m*3 13 C 0 km/h
2992 09-09-2020 09:15:00 13.1 C 10.95 g/m*3 13.1 C 0 km/h
2993 09-09-2020 09:20:00 13.1 C 10.95 g/m*3 13.1 C 1.6 km/h
2994 09-09-2020 09:25:00 13.3 C 11.09 g/m*3 13.3 C 4.8 km/h
2995 09-09-2020 09:30:00 13.3 C 11.09 g/m*3 13.3 C 3.2 km/h
2996 09-09-2020 09:35:00 13.5 C 11.23 g/m*3 13.5 C 1.6 km/h
2997 09-09-2020 09:40:00 13.7 C 11.37 g/m*3 13.7 C 0 km/h
2998 09-09-2020 09:45:00 14.1 C 11.77 g/m*3 14.1 C 1.6 km/h
2999 09-09-2020 09:50:00 14.3 C 11.92 g/m*3 14.3 C 3.2 km/h
3000 09-09-2020 09:55:00 14.7 C 12.21 g/m*3 14.7 C 1.6 km/h
Sensor: Nr:Datum:Temp:Abs-Feuchte:Windchill:Wind:
Aussen-T/F 3001 09-09-2020 10:00:00 14.9 C 12.36 g/m*3 14.9 C 0 km/h
3002 09-09-2020 10:05:00 15.1 C 12.39 g/m*3 15.1 C 0 km/h
3003 09-09-2020 10:10:00 15.2 C 12.46 g/m*3 15.2 C 0 km/h
3004 09-09-2020 10:15:00 15.4 C 12.61 g/m*3 15.4 C 0 km/h
3005 09-09-2020 10:20:00 15.7 C 12.84 g/m*3 15.7 C 0 km/h
3006 09-09-2020 10:25:00 15.9 C 12.87 g/m*3 15.9 C 0 km/h
3007 09-09-2020 10:30:00 16.3 C 13.04 g/m*3 16.3 C 0 km/h
3008 09-09-2020 10:35:00 16.5 C 13.06 g/m*3 16.5 C 0 km/h
3009 09-09-2020 10:40:00 16.8 C 13.01 g/m*3 16.8 C 0 km/h
3010 09-09-2020 10:45:00 17.3 C 13.26 g/m*3 17.3 C 0 km/h
3011 09-09-2020 10:50:00 17.8 C 13.36 g/m*3 17.8 C 0 km/h
3012 09-09-2020 10:55:00 18.3 C 13.13 g/m*3 18.3 C 1.6 km/h
3013 09-09-2020 11:00:00 18.9 C 13.45 g/m*3 18.9 C 1.6 km/h
3014 09-09-2020 11:05:00 19.3 C 13.27 g/m*3 19.3 C 3.2 km/h
3015 09-09-2020 11:10:00 19.7 C 13.25 g/m*3 19.7 C 0 km/h
3016 09-09-2020 11:15:00 20 C 13.13 g/m*3 20 C 1.6 km/h
3017 09-09-2020 11:20:00 20.3 C 13.19 g/m*3 20.3 C 0 km/h
3018 09-09-2020 11:25:00 20.7 C 13.5 g/m*3 20.7 C 0 km/h
3019 09-09-2020 11:30:00 20.9 C 13.3 g/m*3 20.9 C 0 km/h
3020 09-09-2020 11:35:00 21.2 C 13.53 g/m*3 21.2 C 0 km/h
3021 09-09-2020 11:40:00 21.5 C 13.58 g/m*3 21.5 C 0 km/h
3022 09-09-2020 11:45:00 21.7 C 13.54 g/m*3 21.7 C 0 km/h
3023 09-09-2020 11:50:00 21.9 C 14.09 g/m*3 21.9 C 0 km/h
3024 09-09-2020 11:55:00 22.2 C 14.33 g/m*3 22.2 C 0 km/h
3025 09-09-2020 12:00:00 22.3 C 13.82 g/m*3 22.3 C 0 km/h
Sensor: Nr:Datum:Temp:Abs-Feuchte:Windchill:Wind:
Aussen-T/F 3026 09-09-2020 12:05:00 22.4 C 13.7 g/m*3 22.4 C 6.4 km/h
3027 09-09-2020 12:10:00 22.4 C 13.5 g/m*3 22.4 C 8.1 km/h
3028 09-09-2020 12:15:00 22.3 C 13.62 g/m*3 22.3 C 4.8 km/h
3029 09-09-2020 12:20:00 22.4 C 13.7 g/m*3 22.4 C 1.6 km/h
3030 09-09-2020 12:25:00 22.3 C 13.62 g/m*3 22.3 C 4.8 km/h
3031 09-09-2020 12:30:00 22.3 C 13.62 g/m*3 22.3 C 0 km/h
3032 09-09-2020 12:35:00 22.3 C 13.43 g/m*3 22.3 C 6.4 km/h
3033 09-09-2020 12:40:00 22.3 C 13.62 g/m*3 22.3 C 6.4 km/h
3034 09-09-2020 12:45:00 22.4 C 13.7 g/m*3 22.4 C 3.2 km/h
3035 09-09-2020 12:50:00 22.5 C 13.98 g/m*3 22.5 C 0 km/h
3036 09-09-2020 12:55:00 22.5 C 13.78 g/m*3 22.5 C 3.2 km/h
3037 09-09-2020 13:00:00 22.6 C 13.86 g/m*3 22.6 C 0 km/h
3038 09-09-2020 13:05:00 22.7 C 13.94 g/m*3 22.7 C 1.6 km/h
3039 09-09-2020 13:10:00 22.7 C 13.94 g/m*3 22.7 C 4.8 km/h
3040 09-09-2020 13:15:00 22.8 C 13.82 g/m*3 22.8 C 6.4 km/h
3041 09-09-2020 13:20:00 22.9 C 14.31 g/m*3 22.9 C 4.8 km/h
3042 09-09-2020 13:25:00 22.9 C 13.69 g/m*3 22.9 C 3.2 km/h
3043 09-09-2020 13:30:00 22.9 C 13.9 g/m*3 22.9 C 4.8 km/h
3044 09-09-2020 13:35:00 22.9 C 13.9 g/m*3 22.9 C 8.1 km/h
3045 09-09-2020 13:40:00 22.9 C 13.69 g/m*3 22.9 C 9.7 km/h
3046 09-09-2020 13:45:00 22.9 C 13.9 g/m*3 22.9 C 6.4 km/h
3047 09-09-2020 13:50:00 23 C 13.77 g/m*3 23 C 4.8 km/h
3048 09-09-2020 13:55:00 23 C 13.77 g/m*3 23 C 8.1 km/h
3049 09-09-2020 14:00:00 23.1 C 13.85 g/m*3 23.1 C 3.2 km/h
3050 09-09-2020 14:05:00 23.2 C 13.93 g/m*3 23.2 C 8.1 km/h
Sensor: Nr:Datum:Temp:Abs-Feuchte:Windchill:Wind:
Aussen-T/F 3051 09-09-2020 14:10:00 23.2 C 13.93 g/m*3 23.2 C 8.1 km/h
3052 09-09-2020 14:15:00 23.2 C 13.72 g/m*3 23.2 C 6.4 km/h
3053 09-09-2020 14:20:00 23.3 C 14.01 g/m*3 23.3 C 4.8 km/h
3054 09-09-2020 14:25:00 23.6 C 14.25 g/m*3 23.6 C 9.7 km/h
3055 09-09-2020 14:30:00 23.8 C 14.2 g/m*3 23.8 C 8.1 km/h
3056 09-09-2020 14:35:00 24 C 13.92 g/m*3 24 C 11.3 km/h
3057 09-09-2020 14:40:00 24.1 C 14 g/m*3 24.1 C 6.4 km/h
3058 09-09-2020 14:45:00 24.2 C 14.08 g/m*3 24.2 C 8.1 km/h
3059 09-09-2020 14:50:00 24.3 C 13.94 g/m*3 24.3 C 9.7 km/h
3060 09-09-2020 14:55:00 24.3 C 13.94 g/m*3 24.3 C 8.1 km/h
3061 09-09-2020 15:00:00 24.2 C 13.86 g/m*3 24.2 C 9.7 km/h
3062 09-09-2020 15:05:00 24.2 C 15.18 g/m*3 24.2 C 4.8 km/h
3063 09-09-2020 15:10:00 24.2 C 14.08 g/m*3 24.2 C 12.9 km/h
3064 09-09-2020 15:15:00 24.2 C 14.3 g/m*3 24.2 C 8.1 km/h
3065 09-09-2020 15:20:00 24.3 C 14.61 g/m*3 24.3 C 1.6 km/h
3066 09-09-2020 15:25:00 24.3 C 14.16 g/m*3 24.3 C 11.3 km/h
3067 09-09-2020 15:30:00 24.2 C 14.08 g/m*3 24.2 C 11.3 km/h
3068 09-09-2020 15:35:00 24.1 C 14 g/m*3 24.1 C 3.2 km/h
3069 09-09-2020 15:40:00 24 C 14.14 g/m*3 24 C 6.4 km/h
3070 09-09-2020 15:45:00 23.9 C 14.06 g/m*3 23.9 C 4.8 km/h
3071 09-09-2020 15:50:00 23.8 C 13.77 g/m*3 23.8 C 9.7 km/h
3072 09-09-2020 15:55:00 23.8 C 13.98 g/m*3 23.8 C 4.8 km/h
3073 09-09-2020 16:00:00 23.7 C 13.9 g/m*3 23.7 C 8.1 km/h
3074 09-09-2020 16:05:00 23.7 C 14.12 g/m*3 23.7 C 3.2 km/h
3075 09-09-2020 16:10:00 23.8 C 14.2 g/m*3 23.8 C 0 km/h
Sensor: Nr:Datum:Temp:Abs-Feuchte:Windchill:Wind:
Aussen-T/F 3076 09-09-2020 16:15:00 23.8 C 13.98 g/m*3 23.8 C 4.8 km/h
3077 09-09-2020 16:20:00 23.9 C 14.06 g/m*3 23.9 C 11.3 km/h
3078 09-09-2020 16:25:00 23.9 C 14.06 g/m*3 23.9 C 4.8 km/h
3079 09-09-2020 16:30:00 23.9 C 14.06 g/m*3 23.9 C 4.8 km/h
3080 09-09-2020 16:35:00 24 C 14.36 g/m*3 24 C 4.8 km/h
3081 09-09-2020 16:40:00 24.1 C 14.22 g/m*3 24.1 C 1.6 km/h
3082 09-09-2020 16:45:00 24.1 C 13.78 g/m*3 24.1 C 3.2 km/h
3083 09-09-2020 16:50:00 24.1 C 14.22 g/m*3 24.1 C 3.2 km/h
3084 09-09-2020 16:55:00 24.1 C 13.78 g/m*3 24.1 C 4.8 km/h
3085 09-09-2020 17:00:00 24.1 C 13.78 g/m*3 24.1 C 4.8 km/h
3086 09-09-2020 17:05:00 24.2 C 13.86 g/m*3 24.2 C 4.8 km/h
3087 09-09-2020 17:10:00 24.3 C 13.72 g/m*3 24.3 C 3.2 km/h
3088 09-09-2020 17:15:00 24.4 C 14.02 g/m*3 24.4 C 6.4 km/h
3089 09-09-2020 17:20:00 24.5 C 13.88 g/m*3 24.5 C 6.4 km/h
3090 09-09-2020 17:25:00 24.6 C 14.18 g/m*3 24.6 C 6.4 km/h
3091 09-09-2020 17:30:00 24.6 C 14.4 g/m*3 24.6 C 4.8 km/h
3092 09-09-2020 17:35:00 24.7 C 14.03 g/m*3 24.7 C 8.1 km/h
3093 09-09-2020 17:40:00 24.7 C 14.03 g/m*3 24.7 C 4.8 km/h
3094 09-09-2020 17:45:00 24.7 C 14.26 g/m*3 24.7 C 1.6 km/h
3095 09-09-2020 17:50:00 24.7 C 14.71 g/m*3 24.7 C 1.6 km/h
3096 09-09-2020 17:55:00 24.8 C 15.02 g/m*3 24.8 C 1.6 km/h
3097 09-09-2020 18:00:00 25.1 C 14.12 g/m*3 25.1 C 8.1 km/h
3098 09-09-2020 18:05:00 25.2 C 14.67 g/m*3 25.2 C 0 km/h
3099 09-09-2020 18:10:00 25.1 C 14.58 g/m*3 25.1 C 0 km/h
3100 09-09-2020 18:15:00 24.9 C 14.65 g/m*3 24.9 C 0 km/h
Sensor: Nr:Datum:Temp:Abs-Feuchte:Windchill:Wind:
Aussen-T/F 3101 09-09-2020 18:20:00 24.7 C 14.94 g/m*3 24.7 C 1.6 km/h
3102 09-09-2020 18:25:00 24.5 C 14.77 g/m*3 24.5 C 0 km/h
3103 09-09-2020 18:30:00 24.3 C 14.83 g/m*3 24.3 C 0 km/h
3104 09-09-2020 18:35:00 24.2 C 14.96 g/m*3 24.2 C 0 km/h
3105 09-09-2020 18:40:00 24 C 14.36 g/m*3 24 C 4.8 km/h
3106 09-09-2020 18:45:00 23.9 C 14.71 g/m*3 23.9 C 0 km/h
3107 09-09-2020 18:50:00 23.9 C 14.93 g/m*3 23.9 C 0 km/h
3108 09-09-2020 18:55:00 23.8 C 15.06 g/m*3 23.8 C 0 km/h
3109 09-09-2020 19:00:00 23.7 C 14.97 g/m*3 23.7 C 0 km/h
3110 09-09-2020 19:05:00 23.6 C 14.89 g/m*3 23.6 C 0 km/h
3111 09-09-2020 19:10:00 23.4 C 14.93 g/m*3 23.4 C 0 km/h
3112 09-09-2020 19:15:00 23.2 C 14.55 g/m*3 23.2 C 0 km/h
3113 09-09-2020 19:20:00 23 C 14.59 g/m*3 23 C 0 km/h
3114 09-09-2020 19:25:00 22.8 C 14.43 g/m*3 22.8 C 0 km/h
3115 09-09-2020 19:30:00 22.5 C 14.38 g/m*3 22.5 C 0 km/h
3116 09-09-2020 19:35:00 22.3 C 14.41 g/m*3 22.3 C 0 km/h
3117 09-09-2020 19:40:00 22.2 C 14.33 g/m*3 22.2 C 0 km/h
3118 09-09-2020 19:45:00 22.1 C 14.45 g/m*3 22.1 C 0 km/h
3119 09-09-2020 19:50:00 21.9 C 14.28 g/m*3 21.9 C 0 km/h
3120 09-09-2020 19:55:00 21.8 C 14.2 g/m*3 21.8 C 0 km/h
3121 09-09-2020 20:00:00 21.7 C 14.5 g/m*3 21.7 C 0 km/h
3122 09-09-2020 20:05:00 21.6 C 14.41 g/m*3 21.6 C 0 km/h
3123 09-09-2020 20:10:00 21.5 C 14.33 g/m*3 21.5 C 0 km/h
3124 09-09-2020 20:15:00 21.4 C 14.25 g/m*3 21.4 C 0 km/h
3125 09-09-2020 20:20:00 21.3 C 14.17 g/m*3 21.3 C 0 km/h
Sensor: Nr:Datum:Temp:Abs-Feuchte:Windchill:Wind:
Aussen-T/F 3126 09-09-2020 20:25:00 21.2 C 14.08 g/m*3 21.2 C 0 km/h
3127 09-09-2020 20:30:00 21 C 14.11 g/m*3 21 C 0 km/h
3128 09-09-2020 20:35:00 20.9 C 14.02 g/m*3 20.9 C 0 km/h
3129 09-09-2020 20:40:00 20.7 C 13.86 g/m*3 20.7 C 0 km/h
3130 09-09-2020 20:45:00 20.5 C 13.88 g/m*3 20.5 C 0 km/h
3131 09-09-2020 20:50:00 20.3 C 13.72 g/m*3 20.3 C 0 km/h
3132 09-09-2020 20:55:00 20.2 C 13.64 g/m*3 20.2 C 1.6 km/h
3133 09-09-2020 21:00:00 20.1 C 13.56 g/m*3 20.1 C 1.6 km/h
3134 09-09-2020 21:05:00 20.1 C 13.73 g/m*3 20.1 C 0 km/h
3135 09-09-2020 21:10:00 19.9 C 13.57 g/m*3 19.9 C 4.8 km/h
3136 09-09-2020 21:15:00 19.8 C 13.66 g/m*3 19.8 C 4.8 km/h
3137 09-09-2020 21:20:00 19.7 C 13.41 g/m*3 19.7 C 6.4 km/h
3138 09-09-2020 21:25:00 19.7 C 13.58 g/m*3 19.7 C 4.8 km/h
3139 09-09-2020 21:30:00 19.7 C 13.58 g/m*3 19.7 C 6.4 km/h
3140 09-09-2020 21:35:00 19.6 C 13.51 g/m*3 19.6 C 6.4 km/h
3141 09-09-2020 21:40:00 19.6 C 13.51 g/m*3 19.6 C 6.4 km/h
3142 09-09-2020 21:45:00 19.6 C 13.51 g/m*3 19.6 C 6.4 km/h
3143 09-09-2020 21:50:00 19.6 C 13.67 g/m*3 19.6 C 4.8 km/h
3144 09-09-2020 21:55:00 19.6 C 13.67 g/m*3 19.6 C 4.8 km/h
3145 09-09-2020 22:00:00 19.6 C 13.67 g/m*3 19.6 C 3.2 km/h
3146 09-09-2020 22:05:00 19.6 C 13.67 g/m*3 19.6 C 0 km/h
3147 09-09-2020 22:10:00 19.6 C 13.67 g/m*3 19.6 C 4.8 km/h
3148 09-09-2020 22:15:00 19.6 C 13.67 g/m*3 19.6 C 3.2 km/h
3149 09-09-2020 22:20:00 19.6 C 13.67 g/m*3 19.6 C 3.2 km/h
3150 09-09-2020 22:25:00 19.7 C 13.75 g/m*3 19.7 C 0 km/h
Sensor: Nr:Datum:Temp:Abs-Feuchte:Windchill:Wind:
Aussen-T/F 3151 09-09-2020 22:30:00 19.7 C 13.75 g/m*3 19.7 C 0 km/h
3152 09-09-2020 22:35:00 19.7 C 13.75 g/m*3 19.7 C 0 km/h
3153 09-09-2020 22:40:00 19.7 C 13.75 g/m*3 19.7 C 0 km/h
3154 09-09-2020 22:45:00 19.7 C 13.75 g/m*3 19.7 C 0 km/h
3155 09-09-2020 22:50:00 19.7 C 13.92 g/m*3 19.7 C 0 km/h
3156 09-09-2020 22:55:00 19.7 C 13.92 g/m*3 19.7 C 0 km/h
3157 09-09-2020 23:00:00 19.7 C 13.75 g/m*3 19.7 C 3.2 km/h
3158 09-09-2020 23:05:00 19.7 C 13.75 g/m*3 19.7 C 1.6 km/h
3159 09-09-2020 23:10:00 19.7 C 13.75 g/m*3 19.7 C 0 km/h
3160 09-09-2020 23:15:00 19.7 C 13.58 g/m*3 19.7 C 0 km/h
3161 09-09-2020 23:20:00 19.7 C 13.41 g/m*3 19.7 C 1.6 km/h
3162 09-09-2020 23:25:00 19.9 C 13.74 g/m*3 19.9 C 0 km/h
3163 09-09-2020 23:30:00 20 C 13.65 g/m*3 20 C 6.4 km/h
3164 09-09-2020 23:35:00 20.2 C 13.64 g/m*3 20.2 C 4.8 km/h
3165 09-09-2020 23:40:00 20.3 C 13.72 g/m*3 20.3 C 6.4 km/h
3166 09-09-2020 23:45:00 20.5 C 13.88 g/m*3 20.5 C 4.8 km/h
3167 09-09-2020 23:50:00 20.6 C 13.78 g/m*3 20.6 C 4.8 km/h
3168 09-09-2020 23:55:00 20.7 C 14.04 g/m*3 20.7 C 14.5 km/h
3169 10-09-2020 00:00:00 20.8 C 14.3 g/m*3 20.8 C 11.3 km/h
3170 10-09-2020 00:05:00 20.7 C 14.4 g/m*3 20.7 C 11.3 km/h
3171 10-09-2020 00:10:00 20.6 C 14.5 g/m*3 20.6 C 16.1 km/h
3172 10-09-2020 00:15:00 20.5 C 14.59 g/m*3 20.5 C 9.7 km/h
3173 10-09-2020 00:20:00 20.3 C 14.6 g/m*3 20.3 C 11.3 km/h
3174 10-09-2020 00:25:00 20.2 C 14.69 g/m*3 20.2 C 11.3 km/h
3175 10-09-2020 00:30:00 20.1 C 14.6 g/m*3 20.1 C 8.1 km/h
Sensor: Nr:Datum:Temp:Abs-Feuchte:Windchill:Wind:
Aussen-T/F 3176 10-09-2020 00:35:00 20 C 14.69 g/m*3 20 C 11.3 km/h
3177 10-09-2020 00:40:00 19.9 C 14.6 g/m*3 19.9 C 14.5 km/h
3178 10-09-2020 00:45:00 19.8 C 14.69 g/m*3 19.8 C 9.7 km/h
3179 10-09-2020 00:50:00 19.7 C 14.6 g/m*3 19.7 C 9.7 km/h
3180 10-09-2020 00:55:00 19.6 C 14.69 g/m*3 19.6 C 6.4 km/h
3181 10-09-2020 01:00:00 19.4 C 14.68 g/m*3 19.4 C 14.5 km/h
3182 10-09-2020 01:05:00 19.2 C 14.68 g/m*3 19.2 C 8.1 km/h
3183 10-09-2020 01:10:00 19.1 C 14.75 g/m*3 19.1 C 4.8 km/h
3184 10-09-2020 01:15:00 18.9 C 14.58 g/m*3 18.9 C 8.1 km/h
3185 10-09-2020 01:20:00 18.7 C 14.41 g/m*3 18.7 C 12.9 km/h
3186 10-09-2020 01:25:00 18.6 C 14.48 g/m*3 18.6 C 8.1 km/h
3187 10-09-2020 01:30:00 18.6 C 14.48 g/m*3 18.6 C 6.4 km/h
3188 10-09-2020 01:35:00 18.5 C 14.4 g/m*3 18.5 C 6.4 km/h
3189 10-09-2020 01:40:00 18.4 C 14.47 g/m*3 18.4 C 4.8 km/h
3190 10-09-2020 01:45:00 18.4 C 14.47 g/m*3 18.4 C 8.1 km/h
3191 10-09-2020 01:50:00 18.3 C 14.38 g/m*3 18.3 C 11.3 km/h
3192 10-09-2020 01:55:00 18.2 C 14.3 g/m*3 18.2 C 9.7 km/h
3193 10-09-2020 02:00:00 18.1 C 14.21 g/m*3 18.1 C 3.2 km/h
3194 10-09-2020 02:05:00 18.1 C 14.21 g/m*3 18.1 C 0 km/h
3195 10-09-2020 02:10:00 18 C 14.13 g/m*3 18 C 4.8 km/h
3196 10-09-2020 02:15:00 17.9 C 13.89 g/m*3 17.9 C 8.1 km/h
3197 10-09-2020 02:20:00 17.8 C 13.66 g/m*3 17.8 C 11.3 km/h
3198 10-09-2020 02:25:00 17.7 C 13.58 g/m*3 17.7 C 6.4 km/h
3199 10-09-2020 02:30:00 17.6 C 13.5 g/m*3 17.6 C 1.6 km/h
3200 10-09-2020 02:35:00 17.4 C 13.19 g/m*3 17.4 C 9.7 km/h
Sensor: Nr:Datum:Temp:Abs-Feuchte:Windchill:Wind:
Aussen-T/F 3201 10-09-2020 02:40:00 17.4 C 13.34 g/m*3 17.4 C 4.8 km/h
3202 10-09-2020 02:45:00 17.4 C 13.34 g/m*3 17.4 C 0 km/h
3203 10-09-2020 02:50:00 17.4 C 13.34 g/m*3 17.4 C 4.8 km/h
3204 10-09-2020 02:55:00 17.3 C 13.26 g/m*3 17.3 C 0 km/h
3205 10-09-2020 03:00:00 17.3 C 13.26 g/m*3 17.3 C 6.4 km/h
3206 10-09-2020 03:05:00 17.3 C 13.11 g/m*3 17.3 C 0 km/h
3207 10-09-2020 03:10:00 17.3 C 13.11 g/m*3 17.3 C 0 km/h
3208 10-09-2020 03:15:00 17.2 C 13.18 g/m*3 17.2 C 0 km/h
3209 10-09-2020 03:20:00 17.2 C 13.18 g/m*3 17.2 C 0 km/h
3210 10-09-2020 03:25:00 17.2 C 13.03 g/m*3 17.2 C 1.6 km/h
3211 10-09-2020 03:30:00 17.1 C 12.96 g/m*3 17.1 C 4.8 km/h
3212 10-09-2020 03:35:00 17.1 C 12.96 g/m*3 17.1 C 1.6 km/h
3213 10-09-2020 03:40:00 17.1 C 12.96 g/m*3 17.1 C 0 km/h
3214 10-09-2020 03:45:00 17.1 C 12.96 g/m*3 17.1 C 1.6 km/h